<?xml version="1.0" encoding="UTF-8" standalone="no" ?>
<gpx xmlns="http://www.topografix.com/GPX/1/1" xmlns:xsi="http://www.w3.org/2001/XMLSchema-instance" xsi:schemaLocation="http://www.topografix.com/GPX/1/1 http://www.topografix.com/GPX/1/1/gpx.xsd" version="1.1" creator="VisuGPX - https://www.visugpx.com">
  <metadata>
    <name>HLR2015 - Le petit bresse</name>
    <desc><![CDATA[HLR2015 - Le petit bresse]]></desc>
  </metadata>
  <trk>
    <name><![CDATA[OK - La Bresse]]></name>
    <trkseg>
      <trkpt lat="48.02192" lon="6.9516">
        <ele>804</ele>
        <time>2010-10-29T09:26:19Z</time>
      </trkpt>
      <trkpt lat="48.02198" lon="6.95178">
        <ele>804</ele>
        <time>2010-10-29T09:26:25Z</time>
      </trkpt>
      <trkpt lat="48.02208" lon="6.95199">
        <ele>805</ele>
        <time>2010-10-29T09:26:33Z</time>
      </trkpt>
      <trkpt lat="48.02225" lon="6.95214">
        <ele>805</ele>
        <time>2010-10-29T09:26:41Z</time>
      </trkpt>
      <trkpt lat="48.02237" lon="6.95225">
        <ele>805</ele>
        <time>2010-10-29T09:26:48Z</time>
      </trkpt>
      <trkpt lat="48.02252" lon="6.95236">
        <ele>810</ele>
        <time>2010-10-29T09:26:56Z</time>
      </trkpt>
      <trkpt lat="48.02266" lon="6.9525">
        <ele>811</ele>
        <time>2010-10-29T09:27:03Z</time>
      </trkpt>
      <trkpt lat="48.02286" lon="6.95262">
        <ele>811</ele>
        <time>2010-10-29T09:27:12Z</time>
      </trkpt>
      <trkpt lat="48.02302" lon="6.95266">
        <ele>813</ele>
        <time>2010-10-29T09:27:19Z</time>
      </trkpt>
      <trkpt lat="48.02319" lon="6.95273">
        <ele>814</ele>
        <time>2010-10-29T09:27:27Z</time>
      </trkpt>
      <trkpt lat="48.02333" lon="6.95282">
        <ele>821</ele>
        <time>2010-10-29T09:27:34Z</time>
      </trkpt>
      <trkpt lat="48.02346" lon="6.95291">
        <ele>821</ele>
        <time>2010-10-29T09:27:41Z</time>
      </trkpt>
      <trkpt lat="48.0236" lon="6.95297">
        <ele>821</ele>
        <time>2010-10-29T09:27:48Z</time>
      </trkpt>
      <trkpt lat="48.02377" lon="6.95304">
        <ele>822</ele>
        <time>2010-10-29T09:27:56Z</time>
      </trkpt>
      <trkpt lat="48.02395" lon="6.95309">
        <ele>822</ele>
        <time>2010-10-29T09:28:03Z</time>
      </trkpt>
      <trkpt lat="48.02408" lon="6.95308">
        <ele>822</ele>
        <time>2010-10-29T09:28:09Z</time>
      </trkpt>
      <trkpt lat="48.02418" lon="6.953">
        <ele>831</ele>
        <time>2010-10-29T09:28:17Z</time>
      </trkpt>
      <trkpt lat="48.02429" lon="6.95298">
        <ele>832</ele>
        <time>2010-10-29T09:28:24Z</time>
      </trkpt>
      <trkpt lat="48.02443" lon="6.953">
        <ele>832</ele>
        <time>2010-10-29T09:28:30Z</time>
      </trkpt>
      <trkpt lat="48.02457" lon="6.95315">
        <ele>832</ele>
        <time>2010-10-29T09:28:38Z</time>
      </trkpt>
      <trkpt lat="48.02471" lon="6.95335">
        <ele>825</ele>
        <time>2010-10-29T09:28:48Z</time>
      </trkpt>
      <trkpt lat="48.0248" lon="6.95357">
        <ele>826</ele>
        <time>2010-10-29T09:28:57Z</time>
      </trkpt>
      <trkpt lat="48.02493" lon="6.95386">
        <ele>826</ele>
        <time>2010-10-29T09:29:09Z</time>
      </trkpt>
      <trkpt lat="48.025" lon="6.95396">
        <ele>826</ele>
        <time>2010-10-29T09:29:15Z</time>
      </trkpt>
      <trkpt lat="48.0251" lon="6.95411">
        <ele>832</ele>
        <time>2010-10-29T09:29:22Z</time>
      </trkpt>
      <trkpt lat="48.02517" lon="6.95421">
        <ele>831</ele>
        <time>2010-10-29T09:29:28Z</time>
      </trkpt>
      <trkpt lat="48.0253" lon="6.9543">
        <ele>833</ele>
        <time>2010-10-29T09:29:34Z</time>
      </trkpt>
      <trkpt lat="48.02538" lon="6.95439">
        <ele>833</ele>
        <time>2010-10-29T09:29:41Z</time>
      </trkpt>
      <trkpt lat="48.02551" lon="6.95451">
        <ele>834</ele>
        <time>2010-10-29T09:29:48Z</time>
      </trkpt>
      <trkpt lat="48.02559" lon="6.9546">
        <ele>834</ele>
        <time>2010-10-29T09:29:53Z</time>
      </trkpt>
      <trkpt lat="48.02569" lon="6.95476">
        <ele>834</ele>
        <time>2010-10-29T09:30:00Z</time>
      </trkpt>
      <trkpt lat="48.02573" lon="6.95494">
        <ele>835</ele>
        <time>2010-10-29T09:30:07Z</time>
      </trkpt>
      <trkpt lat="48.02573" lon="6.95503">
        <ele>835</ele>
        <time>2010-10-29T09:30:11Z</time>
      </trkpt>
      <trkpt lat="48.02574" lon="6.95515">
        <ele>835</ele>
        <time>2010-10-29T09:30:15Z</time>
      </trkpt>
      <trkpt lat="48.02573" lon="6.95536">
        <ele>835</ele>
        <time>2010-10-29T09:30:22Z</time>
      </trkpt>
      <trkpt lat="48.02571" lon="6.9555">
        <ele>835</ele>
        <time>2010-10-29T09:30:28Z</time>
      </trkpt>
      <trkpt lat="48.02573" lon="6.95567">
        <ele>835</ele>
        <time>2010-10-29T09:30:34Z</time>
      </trkpt>
      <trkpt lat="48.02572" lon="6.95582">
        <ele>836</ele>
        <time>2010-10-29T09:30:40Z</time>
      </trkpt>
      <trkpt lat="48.02575" lon="6.95599">
        <ele>834</ele>
        <time>2010-10-29T09:30:46Z</time>
      </trkpt>
      <trkpt lat="48.02579" lon="6.95616">
        <ele>833</ele>
        <time>2010-10-29T09:30:51Z</time>
      </trkpt>
      <trkpt lat="48.02579" lon="6.95616">
        <ele>833</ele>
        <time>2010-10-29T09:30:52Z</time>
      </trkpt>
      <trkpt lat="48.02577" lon="6.95614">
        <ele>833</ele>
        <time>2010-10-29T09:30:59Z</time>
      </trkpt>
      <trkpt lat="48.02576" lon="6.95614">
        <ele>833</ele>
        <time>2010-10-29T09:31:00Z</time>
      </trkpt>
      <trkpt lat="48.02579" lon="6.95615">
        <ele>833</ele>
        <time>2010-10-29T09:31:04Z</time>
      </trkpt>
      <trkpt lat="48.02581" lon="6.95621">
        <ele>833</ele>
        <time>2010-10-29T09:31:07Z</time>
      </trkpt>
      <trkpt lat="48.02593" lon="6.9563">
        <ele>837</ele>
        <time>2010-10-29T09:31:12Z</time>
      </trkpt>
      <trkpt lat="48.02612" lon="6.95642">
        <ele>837</ele>
        <time>2010-10-29T09:31:17Z</time>
      </trkpt>
      <trkpt lat="48.0262" lon="6.95658">
        <ele>837</ele>
        <time>2010-10-29T09:31:22Z</time>
      </trkpt>
      <trkpt lat="48.02625" lon="6.95673">
        <ele>837</ele>
        <time>2010-10-29T09:31:27Z</time>
      </trkpt>
      <trkpt lat="48.02631" lon="6.95689">
        <ele>837</ele>
        <time>2010-10-29T09:31:33Z</time>
      </trkpt>
      <trkpt lat="48.02632" lon="6.95691">
        <ele>837</ele>
        <time>2010-10-29T09:31:34Z</time>
      </trkpt>
      <trkpt lat="48.02635" lon="6.95697">
        <ele>838</ele>
        <time>2010-10-29T09:31:37Z</time>
      </trkpt>
      <trkpt lat="48.02648" lon="6.9571">
        <ele>838</ele>
        <time>2010-10-29T09:31:44Z</time>
      </trkpt>
      <trkpt lat="48.02652" lon="6.95713">
        <ele>838</ele>
        <time>2010-10-29T09:31:46Z</time>
      </trkpt>
      <trkpt lat="48.02662" lon="6.9572">
        <ele>839</ele>
        <time>2010-10-29T09:31:50Z</time>
      </trkpt>
      <trkpt lat="48.02674" lon="6.95721">
        <ele>846</ele>
        <time>2010-10-29T09:31:55Z</time>
      </trkpt>
      <trkpt lat="48.02684" lon="6.95725">
        <ele>846</ele>
        <time>2010-10-29T09:32:01Z</time>
      </trkpt>
      <trkpt lat="48.02698" lon="6.9573">
        <ele>847</ele>
        <time>2010-10-29T09:32:07Z</time>
      </trkpt>
      <trkpt lat="48.02714" lon="6.95731">
        <ele>849</ele>
        <time>2010-10-29T09:32:13Z</time>
      </trkpt>
      <trkpt lat="48.02724" lon="6.95735">
        <ele>850</ele>
        <time>2010-10-29T09:32:19Z</time>
      </trkpt>
      <trkpt lat="48.02735" lon="6.95743">
        <ele>852</ele>
        <time>2010-10-29T09:32:24Z</time>
      </trkpt>
      <trkpt lat="48.02742" lon="6.95752">
        <ele>853</ele>
        <time>2010-10-29T09:32:30Z</time>
      </trkpt>
      <trkpt lat="48.02742" lon="6.95753">
        <ele>853</ele>
        <time>2010-10-29T09:32:31Z</time>
      </trkpt>
      <trkpt lat="48.02756" lon="6.95764">
        <ele>857</ele>
        <time>2010-10-29T09:32:39Z</time>
      </trkpt>
      <trkpt lat="48.02766" lon="6.95774">
        <ele>858</ele>
        <time>2010-10-29T09:32:48Z</time>
      </trkpt>
      <trkpt lat="48.02776" lon="6.95781">
        <ele>858</ele>
        <time>2010-10-29T09:32:54Z</time>
      </trkpt>
      <trkpt lat="48.02781" lon="6.95784">
        <ele>858</ele>
        <time>2010-10-29T09:32:58Z</time>
      </trkpt>
      <trkpt lat="48.02784" lon="6.95784">
        <ele>859</ele>
        <time>2010-10-29T09:33:00Z</time>
      </trkpt>
      <trkpt lat="48.02795" lon="6.9578">
        <ele>859</ele>
        <time>2010-10-29T09:33:08Z</time>
      </trkpt>
      <trkpt lat="48.02797" lon="6.95778">
        <ele>860</ele>
        <time>2010-10-29T09:33:09Z</time>
      </trkpt>
      <trkpt lat="48.028" lon="6.95777">
        <ele>860</ele>
        <time>2010-10-29T09:33:12Z</time>
      </trkpt>
      <trkpt lat="48.02802" lon="6.95778">
        <ele>860</ele>
        <time>2010-10-29T09:33:17Z</time>
      </trkpt>
      <trkpt lat="48.02803" lon="6.95778">
        <ele>860</ele>
        <time>2010-10-29T09:33:18Z</time>
      </trkpt>
      <trkpt lat="48.02805" lon="6.95773">
        <ele>860</ele>
        <time>2010-10-29T09:34:23Z</time>
      </trkpt>
      <trkpt lat="48.02806" lon="6.9577">
        <ele>861</ele>
        <time>2010-10-29T09:34:26Z</time>
      </trkpt>
      <trkpt lat="48.02809" lon="6.95768">
        <ele>861</ele>
        <time>2010-10-29T09:34:31Z</time>
      </trkpt>
      <trkpt lat="48.0281" lon="6.95769">
        <ele>861</ele>
        <time>2010-10-29T09:34:32Z</time>
      </trkpt>
      <trkpt lat="48.0282" lon="6.95763">
        <ele>862</ele>
        <time>2010-10-29T09:34:38Z</time>
      </trkpt>
      <trkpt lat="48.02835" lon="6.95761">
        <ele>867</ele>
        <time>2010-10-29T09:34:45Z</time>
      </trkpt>
      <trkpt lat="48.02843" lon="6.95763">
        <ele>867</ele>
        <time>2010-10-29T09:34:49Z</time>
      </trkpt>
      <trkpt lat="48.02855" lon="6.95766">
        <ele>868</ele>
        <time>2010-10-29T09:34:53Z</time>
      </trkpt>
      <trkpt lat="48.02858" lon="6.95767">
        <ele>868</ele>
        <time>2010-10-29T09:34:54Z</time>
      </trkpt>
      <trkpt lat="48.02867" lon="6.95778">
        <ele>868</ele>
        <time>2010-10-29T09:35:00Z</time>
      </trkpt>
      <trkpt lat="48.0288" lon="6.95786">
        <ele>869</ele>
        <time>2010-10-29T09:35:05Z</time>
      </trkpt>
      <trkpt lat="48.02895" lon="6.95794">
        <ele>869</ele>
        <time>2010-10-29T09:35:10Z</time>
      </trkpt>
      <trkpt lat="48.02914" lon="6.958">
        <ele>869</ele>
        <time>2010-10-29T09:35:16Z</time>
      </trkpt>
      <trkpt lat="48.02927" lon="6.95799">
        <ele>874</ele>
        <time>2010-10-29T09:35:21Z</time>
      </trkpt>
      <trkpt lat="48.02938" lon="6.95796">
        <ele>874</ele>
        <time>2010-10-29T09:35:25Z</time>
      </trkpt>
      <trkpt lat="48.02949" lon="6.95796">
        <ele>875</ele>
        <time>2010-10-29T09:35:31Z</time>
      </trkpt>
      <trkpt lat="48.0296" lon="6.958">
        <ele>875</ele>
        <time>2010-10-29T09:35:36Z</time>
      </trkpt>
      <trkpt lat="48.02969" lon="6.95807">
        <ele>875</ele>
        <time>2010-10-29T09:35:41Z</time>
      </trkpt>
      <trkpt lat="48.02976" lon="6.95814">
        <ele>874</ele>
        <time>2010-10-29T09:35:45Z</time>
      </trkpt>
      <trkpt lat="48.02994" lon="6.95821">
        <ele>873</ele>
        <time>2010-10-29T09:35:51Z</time>
      </trkpt>
      <trkpt lat="48.03008" lon="6.95825">
        <ele>876</ele>
        <time>2010-10-29T09:35:56Z</time>
      </trkpt>
      <trkpt lat="48.03014" lon="6.95827">
        <ele>878</ele>
        <time>2010-10-29T09:35:58Z</time>
      </trkpt>
      <trkpt lat="48.03027" lon="6.95833">
        <ele>881</ele>
        <time>2010-10-29T09:36:04Z</time>
      </trkpt>
      <trkpt lat="48.03042" lon="6.95842">
        <ele>875</ele>
        <time>2010-10-29T09:36:11Z</time>
      </trkpt>
      <trkpt lat="48.03056" lon="6.95849">
        <ele>877</ele>
        <time>2010-10-29T09:36:18Z</time>
      </trkpt>
      <trkpt lat="48.03065" lon="6.95854">
        <ele>877</ele>
        <time>2010-10-29T09:36:23Z</time>
      </trkpt>
      <trkpt lat="48.03078" lon="6.95859">
        <ele>878</ele>
        <time>2010-10-29T09:36:30Z</time>
      </trkpt>
      <trkpt lat="48.03091" lon="6.95867">
        <ele>885</ele>
        <time>2010-10-29T09:36:37Z</time>
      </trkpt>
      <trkpt lat="48.03104" lon="6.95875">
        <ele>885</ele>
        <time>2010-10-29T09:36:45Z</time>
      </trkpt>
      <trkpt lat="48.03116" lon="6.95882">
        <ele>885</ele>
        <time>2010-10-29T09:36:52Z</time>
      </trkpt>
      <trkpt lat="48.03129" lon="6.9589">
        <ele>886</ele>
        <time>2010-10-29T09:36:59Z</time>
      </trkpt>
      <trkpt lat="48.03139" lon="6.95899">
        <ele>886</ele>
        <time>2010-10-29T09:37:06Z</time>
      </trkpt>
      <trkpt lat="48.0315" lon="6.95907">
        <ele>886</ele>
        <time>2010-10-29T09:37:13Z</time>
      </trkpt>
      <trkpt lat="48.03162" lon="6.95912">
        <ele>886</ele>
        <time>2010-10-29T09:37:20Z</time>
      </trkpt>
      <trkpt lat="48.03175" lon="6.95916">
        <ele>887</ele>
        <time>2010-10-29T09:37:27Z</time>
      </trkpt>
      <trkpt lat="48.03188" lon="6.9592">
        <ele>883</ele>
        <time>2010-10-29T09:37:32Z</time>
      </trkpt>
      <trkpt lat="48.03202" lon="6.95926">
        <ele>882</ele>
        <time>2010-10-29T09:37:38Z</time>
      </trkpt>
      <trkpt lat="48.03219" lon="6.95933">
        <ele>881</ele>
        <time>2010-10-29T09:37:45Z</time>
      </trkpt>
      <trkpt lat="48.03238" lon="6.95931">
        <ele>881</ele>
        <time>2010-10-29T09:37:51Z</time>
      </trkpt>
      <trkpt lat="48.03263" lon="6.95928">
        <ele>882</ele>
        <time>2010-10-29T09:37:59Z</time>
      </trkpt>
      <trkpt lat="48.03283" lon="6.95939">
        <ele>882</ele>
        <time>2010-10-29T09:38:06Z</time>
      </trkpt>
      <trkpt lat="48.03292" lon="6.95946">
        <ele>883</ele>
        <time>2010-10-29T09:38:11Z</time>
      </trkpt>
      <trkpt lat="48.03303" lon="6.95958">
        <ele>883</ele>
        <time>2010-10-29T09:38:18Z</time>
      </trkpt>
      <trkpt lat="48.03315" lon="6.95973">
        <ele>882</ele>
        <time>2010-10-29T09:38:26Z</time>
      </trkpt>
      <trkpt lat="48.03325" lon="6.95986">
        <ele>882</ele>
        <time>2010-10-29T09:38:33Z</time>
      </trkpt>
      <trkpt lat="48.03333" lon="6.95991">
        <ele>882</ele>
        <time>2010-10-29T09:38:37Z</time>
      </trkpt>
      <trkpt lat="48.03344" lon="6.95992">
        <ele>888</ele>
        <time>2010-10-29T09:38:43Z</time>
      </trkpt>
      <trkpt lat="48.03353" lon="6.96">
        <ele>890</ele>
        <time>2010-10-29T09:38:49Z</time>
      </trkpt>
      <trkpt lat="48.03364" lon="6.96008">
        <ele>886</ele>
        <time>2010-10-29T09:38:56Z</time>
      </trkpt>
      <trkpt lat="48.03375" lon="6.96016">
        <ele>887</ele>
        <time>2010-10-29T09:39:02Z</time>
      </trkpt>
      <trkpt lat="48.03387" lon="6.96028">
        <ele>887</ele>
        <time>2010-10-29T09:39:09Z</time>
      </trkpt>
      <trkpt lat="48.03398" lon="6.96052">
        <ele>887</ele>
        <time>2010-10-29T09:39:17Z</time>
      </trkpt>
      <trkpt lat="48.03408" lon="6.96076">
        <ele>887</ele>
        <time>2010-10-29T09:39:24Z</time>
      </trkpt>
      <trkpt lat="48.03416" lon="6.96091">
        <ele>885</ele>
        <time>2010-10-29T09:39:29Z</time>
      </trkpt>
      <trkpt lat="48.03433" lon="6.96118">
        <ele>891</ele>
        <time>2010-10-29T09:39:38Z</time>
      </trkpt>
      <trkpt lat="48.03452" lon="6.96139">
        <ele>891</ele>
        <time>2010-10-29T09:39:46Z</time>
      </trkpt>
      <trkpt lat="48.03464" lon="6.96153">
        <ele>892</ele>
        <time>2010-10-29T09:39:54Z</time>
      </trkpt>
      <trkpt lat="48.03469" lon="6.96159">
        <ele>893</ele>
        <time>2010-10-29T09:39:58Z</time>
      </trkpt>
      <trkpt lat="48.03479" lon="6.9617">
        <ele>888</ele>
        <time>2010-10-29T09:40:04Z</time>
      </trkpt>
      <trkpt lat="48.03481" lon="6.96171">
        <ele>889</ele>
        <time>2010-10-29T09:40:05Z</time>
      </trkpt>
      <trkpt lat="48.0349" lon="6.96184">
        <ele>889</ele>
        <time>2010-10-29T09:40:11Z</time>
      </trkpt>
      <trkpt lat="48.03493" lon="6.96198">
        <ele>886</ele>
        <time>2010-10-29T09:40:13Z</time>
      </trkpt>
      <trkpt lat="48.03495" lon="6.96216">
        <ele>885</ele>
        <time>2010-10-29T09:40:15Z</time>
      </trkpt>
      <trkpt lat="48.035" lon="6.96264">
        <ele>881</ele>
        <time>2010-10-29T09:40:19Z</time>
      </trkpt>
      <trkpt lat="48.03501" lon="6.96276">
        <ele>890</ele>
        <time>2010-10-29T09:40:20Z</time>
      </trkpt>
      <trkpt lat="48.03506" lon="6.96323">
        <ele>885</ele>
        <time>2010-10-29T09:40:24Z</time>
      </trkpt>
      <trkpt lat="48.03529" lon="6.96391">
        <ele>885</ele>
        <time>2010-10-29T09:40:30Z</time>
      </trkpt>
      <trkpt lat="48.03552" lon="6.96436">
        <ele>887</ele>
        <time>2010-10-29T09:40:35Z</time>
      </trkpt>
      <trkpt lat="48.03571" lon="6.96469">
        <ele>888</ele>
        <time>2010-10-29T09:40:40Z</time>
      </trkpt>
      <trkpt lat="48.0358" lon="6.9649">
        <ele>890</ele>
        <time>2010-10-29T09:40:45Z</time>
      </trkpt>
      <trkpt lat="48.03593" lon="6.9652">
        <ele>896</ele>
        <time>2010-10-29T09:40:55Z</time>
      </trkpt>
      <trkpt lat="48.03596" lon="6.96524">
        <ele>897</ele>
        <time>2010-10-29T09:40:57Z</time>
      </trkpt>
      <trkpt lat="48.03605" lon="6.96545">
        <ele>897</ele>
        <time>2010-10-29T09:41:05Z</time>
      </trkpt>
      <trkpt lat="48.03613" lon="6.96566">
        <ele>896</ele>
        <time>2010-10-29T09:41:13Z</time>
      </trkpt>
      <trkpt lat="48.03626" lon="6.96598">
        <ele>893</ele>
        <time>2010-10-29T09:41:23Z</time>
      </trkpt>
      <trkpt lat="48.03638" lon="6.96627">
        <ele>894</ele>
        <time>2010-10-29T09:41:33Z</time>
      </trkpt>
      <trkpt lat="48.03646" lon="6.96646">
        <ele>894</ele>
        <time>2010-10-29T09:41:40Z</time>
      </trkpt>
      <trkpt lat="48.03649" lon="6.96663">
        <ele>895</ele>
        <time>2010-10-29T09:41:45Z</time>
      </trkpt>
      <trkpt lat="48.03655" lon="6.96682">
        <ele>895</ele>
        <time>2010-10-29T09:41:52Z</time>
      </trkpt>
      <trkpt lat="48.0366" lon="6.96704">
        <ele>894</ele>
        <time>2010-10-29T09:41:59Z</time>
      </trkpt>
      <trkpt lat="48.03661" lon="6.96727">
        <ele>893</ele>
        <time>2010-10-29T09:42:06Z</time>
      </trkpt>
      <trkpt lat="48.03658" lon="6.96747">
        <ele>894</ele>
        <time>2010-10-29T09:42:12Z</time>
      </trkpt>
      <trkpt lat="48.03658" lon="6.96754">
        <ele>894</ele>
        <time>2010-10-29T09:42:14Z</time>
      </trkpt>
      <trkpt lat="48.03662" lon="6.96786">
        <ele>894</ele>
        <time>2010-10-29T09:42:23Z</time>
      </trkpt>
      <trkpt lat="48.03675" lon="6.96819">
        <ele>898</ele>
        <time>2010-10-29T09:42:33Z</time>
      </trkpt>
      <trkpt lat="48.03683" lon="6.96848">
        <ele>899</ele>
        <time>2010-10-29T09:42:41Z</time>
      </trkpt>
      <trkpt lat="48.03679" lon="6.96866">
        <ele>900</ele>
        <time>2010-10-29T09:42:46Z</time>
      </trkpt>
      <trkpt lat="48.03666" lon="6.96877">
        <ele>899</ele>
        <time>2010-10-29T09:42:51Z</time>
      </trkpt>
      <trkpt lat="48.03659" lon="6.96881">
        <ele>899</ele>
        <time>2010-10-29T09:42:53Z</time>
      </trkpt>
      <trkpt lat="48.03649" lon="6.96904">
        <ele>900</ele>
        <time>2010-10-29T09:42:58Z</time>
      </trkpt>
      <trkpt lat="48.0365" lon="6.96908">
        <ele>899</ele>
        <time>2010-10-29T09:42:59Z</time>
      </trkpt>
      <trkpt lat="48.03659" lon="6.96924">
        <ele>901</ele>
        <time>2010-10-29T09:43:04Z</time>
      </trkpt>
      <trkpt lat="48.03664" lon="6.96934">
        <ele>903</ele>
        <time>2010-10-29T09:43:08Z</time>
      </trkpt>
      <trkpt lat="48.03666" lon="6.96937">
        <ele>903</ele>
        <time>2010-10-29T09:43:10Z</time>
      </trkpt>
      <trkpt lat="48.0368" lon="6.96948">
        <ele>901</ele>
        <time>2010-10-29T09:43:18Z</time>
      </trkpt>
      <trkpt lat="48.03695" lon="6.96959">
        <ele>903</ele>
        <time>2010-10-29T09:43:26Z</time>
      </trkpt>
      <trkpt lat="48.03708" lon="6.96974">
        <ele>903</ele>
        <time>2010-10-29T09:43:35Z</time>
      </trkpt>
      <trkpt lat="48.03709" lon="6.96976">
        <ele>903</ele>
        <time>2010-10-29T09:43:36Z</time>
      </trkpt>
      <trkpt lat="48.0372" lon="6.96996">
        <ele>904</ele>
        <time>2010-10-29T09:43:46Z</time>
      </trkpt>
      <trkpt lat="48.03732" lon="6.97015">
        <ele>905</ele>
        <time>2010-10-29T09:43:56Z</time>
      </trkpt>
      <trkpt lat="48.0374" lon="6.97035">
        <ele>905</ele>
        <time>2010-10-29T09:44:05Z</time>
      </trkpt>
      <trkpt lat="48.03756" lon="6.97054">
        <ele>912</ele>
        <time>2010-10-29T09:44:14Z</time>
      </trkpt>
      <trkpt lat="48.03766" lon="6.9707">
        <ele>911</ele>
        <time>2010-10-29T09:44:22Z</time>
      </trkpt>
      <trkpt lat="48.03783" lon="6.97095">
        <ele>912</ele>
        <time>2010-10-29T09:44:33Z</time>
      </trkpt>
      <trkpt lat="48.03804" lon="6.97116">
        <ele>914</ele>
        <time>2010-10-29T09:44:43Z</time>
      </trkpt>
      <trkpt lat="48.03809" lon="6.97126">
        <ele>914</ele>
        <time>2010-10-29T09:44:49Z</time>
      </trkpt>
      <trkpt lat="48.0381" lon="6.97128">
        <ele>914</ele>
        <time>2010-10-29T09:44:51Z</time>
      </trkpt>
      <trkpt lat="48.03815" lon="6.97144">
        <ele>913</ele>
        <time>2010-10-29T09:44:59Z</time>
      </trkpt>
      <trkpt lat="48.03825" lon="6.97167">
        <ele>914</ele>
        <time>2010-10-29T09:45:11Z</time>
      </trkpt>
      <trkpt lat="48.03834" lon="6.97187">
        <ele>917</ele>
        <time>2010-10-29T09:45:21Z</time>
      </trkpt>
      <trkpt lat="48.03838" lon="6.97198">
        <ele>917</ele>
        <time>2010-10-29T09:45:26Z</time>
      </trkpt>
      <trkpt lat="48.03845" lon="6.97217">
        <ele>918</ele>
        <time>2010-10-29T09:45:35Z</time>
      </trkpt>
      <trkpt lat="48.03852" lon="6.97238">
        <ele>917</ele>
        <time>2010-10-29T09:45:44Z</time>
      </trkpt>
      <trkpt lat="48.03861" lon="6.97257">
        <ele>917</ele>
        <time>2010-10-29T09:45:52Z</time>
      </trkpt>
      <trkpt lat="48.03874" lon="6.97278">
        <ele>918</ele>
        <time>2010-10-29T09:46:01Z</time>
      </trkpt>
      <trkpt lat="48.03883" lon="6.97295">
        <ele>918</ele>
        <time>2010-10-29T09:46:08Z</time>
      </trkpt>
      <trkpt lat="48.03894" lon="6.97315">
        <ele>919</ele>
        <time>2010-10-29T09:46:16Z</time>
      </trkpt>
      <trkpt lat="48.03903" lon="6.97326">
        <ele>919</ele>
        <time>2010-10-29T09:46:22Z</time>
      </trkpt>
      <trkpt lat="48.03916" lon="6.97341">
        <ele>921</ele>
        <time>2010-10-29T09:46:31Z</time>
      </trkpt>
      <trkpt lat="48.03932" lon="6.97354">
        <ele>923</ele>
        <time>2010-10-29T09:46:40Z</time>
      </trkpt>
      <trkpt lat="48.03943" lon="6.97369">
        <ele>924</ele>
        <time>2010-10-29T09:46:47Z</time>
      </trkpt>
      <trkpt lat="48.03955" lon="6.97385">
        <ele>925</ele>
        <time>2010-10-29T09:46:54Z</time>
      </trkpt>
      <trkpt lat="48.03973" lon="6.974">
        <ele>926</ele>
        <time>2010-10-29T09:47:03Z</time>
      </trkpt>
      <trkpt lat="48.03983" lon="6.97417">
        <ele>930</ele>
        <time>2010-10-29T09:47:10Z</time>
      </trkpt>
      <trkpt lat="48.03994" lon="6.9744">
        <ele>932</ele>
        <time>2010-10-29T09:47:19Z</time>
      </trkpt>
      <trkpt lat="48.04007" lon="6.97466">
        <ele>933</ele>
        <time>2010-10-29T09:47:30Z</time>
      </trkpt>
      <trkpt lat="48.0402" lon="6.97481">
        <ele>934</ele>
        <time>2010-10-29T09:47:37Z</time>
      </trkpt>
      <trkpt lat="48.04035" lon="6.97494">
        <ele>934</ele>
        <time>2010-10-29T09:47:44Z</time>
      </trkpt>
      <trkpt lat="48.0405" lon="6.97507">
        <ele>947</ele>
        <time>2010-10-29T09:47:51Z</time>
      </trkpt>
      <trkpt lat="48.04069" lon="6.97517">
        <ele>946</ele>
        <time>2010-10-29T09:47:58Z</time>
      </trkpt>
      <trkpt lat="48.04077" lon="6.97522">
        <ele>946</ele>
        <time>2010-10-29T09:48:01Z</time>
      </trkpt>
      <trkpt lat="48.04096" lon="6.9753">
        <ele>945</ele>
        <time>2010-10-29T09:48:09Z</time>
      </trkpt>
      <trkpt lat="48.04098" lon="6.97531">
        <ele>945</ele>
        <time>2010-10-29T09:48:10Z</time>
      </trkpt>
      <trkpt lat="48.04099" lon="6.97531">
        <ele>945</ele>
        <time>2010-10-29T09:48:13Z</time>
      </trkpt>
      <trkpt lat="48.04103" lon="6.97533">
        <ele>945</ele>
        <time>2010-10-29T09:48:14Z</time>
      </trkpt>
      <trkpt lat="48.04108" lon="6.97535">
        <ele>945</ele>
        <time>2010-10-29T09:48:17Z</time>
      </trkpt>
      <trkpt lat="48.04118" lon="6.97539">
        <ele>946</ele>
        <time>2010-10-29T09:48:21Z</time>
      </trkpt>
      <trkpt lat="48.04135" lon="6.97544">
        <ele>946</ele>
        <time>2010-10-29T09:48:27Z</time>
      </trkpt>
      <trkpt lat="48.04166" lon="6.97556">
        <ele>947</ele>
        <time>2010-10-29T09:48:38Z</time>
      </trkpt>
      <trkpt lat="48.04197" lon="6.97567">
        <ele>942</ele>
        <time>2010-10-29T09:48:49Z</time>
      </trkpt>
      <trkpt lat="48.04212" lon="6.97575">
        <ele>942</ele>
        <time>2010-10-29T09:48:55Z</time>
      </trkpt>
      <trkpt lat="48.0423" lon="6.97583">
        <ele>944</ele>
        <time>2010-10-29T09:49:02Z</time>
      </trkpt>
      <trkpt lat="48.04245" lon="6.97589">
        <ele>954</ele>
        <time>2010-10-29T09:49:08Z</time>
      </trkpt>
      <trkpt lat="48.0426" lon="6.97597">
        <ele>957</ele>
        <time>2010-10-29T09:49:14Z</time>
      </trkpt>
      <trkpt lat="48.04261" lon="6.97599">
        <ele>957</ele>
        <time>2010-10-29T09:49:16Z</time>
      </trkpt>
      <trkpt lat="48.04276" lon="6.97604">
        <ele>960</ele>
        <time>2010-10-29T09:49:33Z</time>
      </trkpt>
      <trkpt lat="48.04297" lon="6.9761">
        <ele>960</ele>
        <time>2010-10-29T09:49:34Z</time>
      </trkpt>
      <trkpt lat="48.0433" lon="6.97617">
        <ele>960</ele>
        <time>2010-10-29T09:49:40Z</time>
      </trkpt>
      <trkpt lat="48.04346" lon="6.97617">
        <ele>956</ele>
        <time>2010-10-29T09:49:46Z</time>
      </trkpt>
      <trkpt lat="48.04358" lon="6.97617">
        <ele>956</ele>
        <time>2010-10-29T09:49:51Z</time>
      </trkpt>
      <trkpt lat="48.04379" lon="6.97616">
        <ele>956</ele>
        <time>2010-10-29T09:49:58Z</time>
      </trkpt>
      <trkpt lat="48.04395" lon="6.97614">
        <ele>955</ele>
        <time>2010-10-29T09:50:04Z</time>
      </trkpt>
      <trkpt lat="48.04412" lon="6.97614">
        <ele>953</ele>
        <time>2010-10-29T09:50:10Z</time>
      </trkpt>
      <trkpt lat="48.04426" lon="6.97613">
        <ele>953</ele>
        <time>2010-10-29T09:50:15Z</time>
      </trkpt>
      <trkpt lat="48.04441" lon="6.97613">
        <ele>954</ele>
        <time>2010-10-29T09:50:20Z</time>
      </trkpt>
      <trkpt lat="48.04467" lon="6.97614">
        <ele>955</ele>
        <time>2010-10-29T09:50:29Z</time>
      </trkpt>
      <trkpt lat="48.04485" lon="6.97615">
        <ele>955</ele>
        <time>2010-10-29T09:50:36Z</time>
      </trkpt>
      <trkpt lat="48.04502" lon="6.97615">
        <ele>956</ele>
        <time>2010-10-29T09:50:42Z</time>
      </trkpt>
      <trkpt lat="48.04514" lon="6.97616">
        <ele>957</ele>
        <time>2010-10-29T09:50:46Z</time>
      </trkpt>
      <trkpt lat="48.04532" lon="6.97615">
        <ele>958</ele>
        <time>2010-10-29T09:50:52Z</time>
      </trkpt>
      <trkpt lat="48.04547" lon="6.97613">
        <ele>958</ele>
        <time>2010-10-29T09:50:58Z</time>
      </trkpt>
      <trkpt lat="48.04564" lon="6.9761">
        <ele>958</ele>
        <time>2010-10-29T09:51:04Z</time>
      </trkpt>
      <trkpt lat="48.04577" lon="6.97608">
        <ele>957</ele>
        <time>2010-10-29T09:51:09Z</time>
      </trkpt>
      <trkpt lat="48.0459" lon="6.97605">
        <ele>959</ele>
        <time>2010-10-29T09:51:14Z</time>
      </trkpt>
      <trkpt lat="48.04611" lon="6.97602">
        <ele>960</ele>
        <time>2010-10-29T09:51:20Z</time>
      </trkpt>
      <trkpt lat="48.04629" lon="6.97598">
        <ele>961</ele>
        <time>2010-10-29T09:51:26Z</time>
      </trkpt>
      <trkpt lat="48.04644" lon="6.97592">
        <ele>960</ele>
        <time>2010-10-29T09:51:32Z</time>
      </trkpt>
      <trkpt lat="48.04655" lon="6.97588">
        <ele>959</ele>
        <time>2010-10-29T09:51:36Z</time>
      </trkpt>
      <trkpt lat="48.04676" lon="6.97578">
        <ele>954</ele>
        <time>2010-10-29T09:51:45Z</time>
      </trkpt>
      <trkpt lat="48.04688" lon="6.97572">
        <ele>953</ele>
        <time>2010-10-29T09:51:51Z</time>
      </trkpt>
      <trkpt lat="48.04701" lon="6.97568">
        <ele>953</ele>
        <time>2010-10-29T09:51:56Z</time>
      </trkpt>
      <trkpt lat="48.04714" lon="6.97556">
        <ele>953</ele>
        <time>2010-10-29T09:52:02Z</time>
      </trkpt>
      <trkpt lat="48.04727" lon="6.97556">
        <ele>954</ele>
        <time>2010-10-29T09:52:07Z</time>
      </trkpt>
      <trkpt lat="48.04745" lon="6.97563">
        <ele>955</ele>
        <time>2010-10-29T09:52:14Z</time>
      </trkpt>
      <trkpt lat="48.04758" lon="6.97563">
        <ele>960</ele>
        <time>2010-10-29T09:52:21Z</time>
      </trkpt>
      <trkpt lat="48.04761" lon="6.97562">
        <ele>960</ele>
        <time>2010-10-29T09:52:23Z</time>
      </trkpt>
      <trkpt lat="48.04768" lon="6.97544">
        <ele>960</ele>
        <time>2010-10-29T09:52:29Z</time>
      </trkpt>
      <trkpt lat="48.04771" lon="6.97524">
        <ele>959</ele>
        <time>2010-10-29T09:52:35Z</time>
      </trkpt>
      <trkpt lat="48.04774" lon="6.97504">
        <ele>959</ele>
        <time>2010-10-29T09:52:43Z</time>
      </trkpt>
      <trkpt lat="48.0478" lon="6.97481">
        <ele>962</ele>
        <time>2010-10-29T09:52:52Z</time>
      </trkpt>
      <trkpt lat="48.04785" lon="6.97456">
        <ele>963</ele>
        <time>2010-10-29T09:53:02Z</time>
      </trkpt>
      <trkpt lat="48.04788" lon="6.97428">
        <ele>964</ele>
        <time>2010-10-29T09:53:13Z</time>
      </trkpt>
      <trkpt lat="48.04789" lon="6.97404">
        <ele>970</ele>
        <time>2010-10-29T09:53:23Z</time>
      </trkpt>
      <trkpt lat="48.04789" lon="6.97389">
        <ele>971</ele>
        <time>2010-10-29T09:53:29Z</time>
      </trkpt>
      <trkpt lat="48.04789" lon="6.97387">
        <ele>971</ele>
        <time>2010-10-29T09:53:30Z</time>
      </trkpt>
      <trkpt lat="48.04787" lon="6.97365">
        <ele>972</ele>
        <time>2010-10-29T09:53:39Z</time>
      </trkpt>
      <trkpt lat="48.04781" lon="6.97341">
        <ele>972</ele>
        <time>2010-10-29T09:53:49Z</time>
      </trkpt>
      <trkpt lat="48.04772" lon="6.97326">
        <ele>977</ele>
        <time>2010-10-29T09:53:57Z</time>
      </trkpt>
      <trkpt lat="48.04759" lon="6.97313">
        <ele>977</ele>
        <time>2010-10-29T09:54:05Z</time>
      </trkpt>
      <trkpt lat="48.04748" lon="6.97292">
        <ele>965</ele>
        <time>2010-10-29T09:54:15Z</time>
      </trkpt>
      <trkpt lat="48.04737" lon="6.9727">
        <ele>968</ele>
        <time>2010-10-29T09:54:25Z</time>
      </trkpt>
      <trkpt lat="48.0473" lon="6.97254">
        <ele>969</ele>
        <time>2010-10-29T09:54:32Z</time>
      </trkpt>
      <trkpt lat="48.04727" lon="6.97244">
        <ele>975</ele>
        <time>2010-10-29T09:54:37Z</time>
      </trkpt>
      <trkpt lat="48.04722" lon="6.97231">
        <ele>974</ele>
        <time>2010-10-29T09:54:43Z</time>
      </trkpt>
      <trkpt lat="48.04718" lon="6.97215">
        <ele>974</ele>
        <time>2010-10-29T09:54:49Z</time>
      </trkpt>
      <trkpt lat="48.04715" lon="6.97195">
        <ele>974</ele>
        <time>2010-10-29T09:54:56Z</time>
      </trkpt>
      <trkpt lat="48.04716" lon="6.97176">
        <ele>976</ele>
        <time>2010-10-29T09:55:03Z</time>
      </trkpt>
      <trkpt lat="48.04723" lon="6.97149">
        <ele>981</ele>
        <time>2010-10-29T09:55:14Z</time>
      </trkpt>
      <trkpt lat="48.04732" lon="6.97124">
        <ele>982</ele>
        <time>2010-10-29T09:55:24Z</time>
      </trkpt>
      <trkpt lat="48.04737" lon="6.97094">
        <ele>985</ele>
        <time>2010-10-29T09:55:35Z</time>
      </trkpt>
      <trkpt lat="48.04739" lon="6.9707">
        <ele>988</ele>
        <time>2010-10-29T09:55:44Z</time>
      </trkpt>
      <trkpt lat="48.04739" lon="6.97052">
        <ele>987</ele>
        <time>2010-10-29T09:55:51Z</time>
      </trkpt>
      <trkpt lat="48.04738" lon="6.97035">
        <ele>988</ele>
        <time>2010-10-29T09:55:58Z</time>
      </trkpt>
      <trkpt lat="48.04733" lon="6.97011">
        <ele>989</ele>
        <time>2010-10-29T09:56:07Z</time>
      </trkpt>
      <trkpt lat="48.04725" lon="6.96988">
        <ele>992</ele>
        <time>2010-10-29T09:56:15Z</time>
      </trkpt>
      <trkpt lat="48.0472" lon="6.96968">
        <ele>992</ele>
        <time>2010-10-29T09:56:22Z</time>
      </trkpt>
      <trkpt lat="48.04713" lon="6.96947">
        <ele>992</ele>
        <time>2010-10-29T09:56:29Z</time>
      </trkpt>
      <trkpt lat="48.04707" lon="6.96932">
        <ele>993</ele>
        <time>2010-10-29T09:56:34Z</time>
      </trkpt>
      <trkpt lat="48.04703" lon="6.96913">
        <ele>996</ele>
        <time>2010-10-29T09:56:41Z</time>
      </trkpt>
      <trkpt lat="48.04701" lon="6.96896">
        <ele>996</ele>
        <time>2010-10-29T09:56:47Z</time>
      </trkpt>
      <trkpt lat="48.04704" lon="6.96877">
        <ele>997</ele>
        <time>2010-10-29T09:56:53Z</time>
      </trkpt>
      <trkpt lat="48.04706" lon="6.96864">
        <ele>997</ele>
        <time>2010-10-29T09:56:57Z</time>
      </trkpt>
      <trkpt lat="48.04713" lon="6.96838">
        <ele>998</ele>
        <time>2010-10-29T09:57:06Z</time>
      </trkpt>
      <trkpt lat="48.04718" lon="6.96822">
        <ele>999</ele>
        <time>2010-10-29T09:57:13Z</time>
      </trkpt>
      <trkpt lat="48.0472" lon="6.96816">
        <ele>999</ele>
        <time>2010-10-29T09:57:16Z</time>
      </trkpt>
      <trkpt lat="48.04727" lon="6.96803">
        <ele>998</ele>
        <time>2010-10-29T09:57:23Z</time>
      </trkpt>
      <trkpt lat="48.04729" lon="6.96781">
        <ele>998</ele>
        <time>2010-10-29T09:57:33Z</time>
      </trkpt>
      <trkpt lat="48.04729" lon="6.96779">
        <ele>998</ele>
        <time>2010-10-29T09:57:34Z</time>
      </trkpt>
      <trkpt lat="48.04721" lon="6.96767">
        <ele>998</ele>
        <time>2010-10-29T09:57:39Z</time>
      </trkpt>
      <trkpt lat="48.04713" lon="6.96761">
        <ele>998</ele>
        <time>2010-10-29T09:57:43Z</time>
      </trkpt>
      <trkpt lat="48.04709" lon="6.96755">
        <ele>998</ele>
        <time>2010-10-29T09:57:48Z</time>
      </trkpt>
      <trkpt lat="48.04708" lon="6.96753">
        <ele>998</ele>
        <time>2010-10-29T09:57:50Z</time>
      </trkpt>
      <trkpt lat="48.04708" lon="6.96753">
        <ele>998</ele>
        <time>2010-10-29T09:57:55Z</time>
      </trkpt>
      <trkpt lat="48.04705" lon="6.96744">
        <ele>998</ele>
        <time>2010-10-29T09:57:59Z</time>
      </trkpt>
      <trkpt lat="48.04704" lon="6.96741">
        <ele>998</ele>
        <time>2010-10-29T09:58:02Z</time>
      </trkpt>
      <trkpt lat="48.04703" lon="6.96742">
        <ele>998</ele>
        <time>2010-10-29T09:58:07Z</time>
      </trkpt>
      <trkpt lat="48.04703" lon="6.96743">
        <ele>998</ele>
        <time>2010-10-29T09:58:08Z</time>
      </trkpt>
      <trkpt lat="48.04707" lon="6.96747">
        <ele>998</ele>
        <time>2010-10-29T09:58:12Z</time>
      </trkpt>
      <trkpt lat="48.04711" lon="6.96752">
        <ele>998</ele>
        <time>2010-10-29T09:58:21Z</time>
      </trkpt>
      <trkpt lat="48.04711" lon="6.96751">
        <ele>998</ele>
        <time>2010-10-29T09:58:22Z</time>
      </trkpt>
      <trkpt lat="48.04712" lon="6.96749">
        <ele>997</ele>
        <time>2010-10-29T09:58:31Z</time>
      </trkpt>
      <trkpt lat="48.04713" lon="6.96747">
        <ele>997</ele>
        <time>2010-10-29T09:58:32Z</time>
      </trkpt>
      <trkpt lat="48.04713" lon="6.96747">
        <ele>997</ele>
        <time>2010-10-29T09:58:33Z</time>
      </trkpt>
      <trkpt lat="48.04706" lon="6.96758">
        <ele>999</ele>
        <time>2010-10-29T09:59:48Z</time>
      </trkpt>
      <trkpt lat="48.04708" lon="6.96756">
        <ele>999</ele>
        <time>2010-10-29T09:59:49Z</time>
      </trkpt>
      <trkpt lat="48.04705" lon="6.96746">
        <ele>998</ele>
        <time>2010-10-29T10:00:55Z</time>
      </trkpt>
      <trkpt lat="48.04705" lon="6.96746">
        <ele>998</ele>
        <time>2010-10-29T10:00:56Z</time>
      </trkpt>
      <trkpt lat="48.04705" lon="6.96746">
        <ele>998</ele>
        <time>2010-10-29T10:00:57Z</time>
      </trkpt>
      <trkpt lat="48.04711" lon="6.96745">
        <ele>997</ele>
        <time>2010-10-29T10:02:10Z</time>
      </trkpt>
      <trkpt lat="48.0471" lon="6.96744">
        <ele>997</ele>
        <time>2010-10-29T10:02:11Z</time>
      </trkpt>
      <trkpt lat="48.04704" lon="6.96738">
        <ele>998</ele>
        <time>2010-10-29T10:02:14Z</time>
      </trkpt>
      <trkpt lat="48.04702" lon="6.96736">
        <ele>998</ele>
        <time>2010-10-29T10:02:15Z</time>
      </trkpt>
      <trkpt lat="48.04683" lon="6.96718">
        <ele>998</ele>
        <time>2010-10-29T10:02:23Z</time>
      </trkpt>
      <trkpt lat="48.04672" lon="6.96706">
        <ele>998</ele>
        <time>2010-10-29T10:02:29Z</time>
      </trkpt>
      <trkpt lat="48.04665" lon="6.96696">
        <ele>1008</ele>
        <time>2010-10-29T10:02:33Z</time>
      </trkpt>
      <trkpt lat="48.04656" lon="6.96688">
        <ele>1008</ele>
        <time>2010-10-29T10:02:39Z</time>
      </trkpt>
      <trkpt lat="48.04646" lon="6.96694">
        <ele>1011</ele>
        <time>2010-10-29T10:02:46Z</time>
      </trkpt>
      <trkpt lat="48.04639" lon="6.96706">
        <ele>1012</ele>
        <time>2010-10-29T10:02:53Z</time>
      </trkpt>
      <trkpt lat="48.04634" lon="6.96714">
        <ele>1013</ele>
        <time>2010-10-29T10:02:58Z</time>
      </trkpt>
      <trkpt lat="48.0463" lon="6.96727">
        <ele>1014</ele>
        <time>2010-10-29T10:03:04Z</time>
      </trkpt>
      <trkpt lat="48.04626" lon="6.96737">
        <ele>1014</ele>
        <time>2010-10-29T10:03:08Z</time>
      </trkpt>
      <trkpt lat="48.04625" lon="6.9675">
        <ele>1014</ele>
        <time>2010-10-29T10:03:14Z</time>
      </trkpt>
      <trkpt lat="48.04626" lon="6.96772">
        <ele>1014</ele>
        <time>2010-10-29T10:03:24Z</time>
      </trkpt>
      <trkpt lat="48.04625" lon="6.9679">
        <ele>1014</ele>
        <time>2010-10-29T10:03:32Z</time>
      </trkpt>
      <trkpt lat="48.04624" lon="6.96809">
        <ele>1014</ele>
        <time>2010-10-29T10:03:41Z</time>
      </trkpt>
      <trkpt lat="48.04619" lon="6.96824">
        <ele>1015</ele>
        <time>2010-10-29T10:03:49Z</time>
      </trkpt>
      <trkpt lat="48.04613" lon="6.96835">
        <ele>1013</ele>
        <time>2010-10-29T10:03:56Z</time>
      </trkpt>
      <trkpt lat="48.04604" lon="6.96842">
        <ele>1014</ele>
        <time>2010-10-29T10:04:01Z</time>
      </trkpt>
      <trkpt lat="48.04594" lon="6.96854">
        <ele>1015</ele>
        <time>2010-10-29T10:04:07Z</time>
      </trkpt>
      <trkpt lat="48.04592" lon="6.96857">
        <ele>1015</ele>
        <time>2010-10-29T10:04:08Z</time>
      </trkpt>
      <trkpt lat="48.04578" lon="6.96872">
        <ele>1025</ele>
        <time>2010-10-29T10:04:13Z</time>
      </trkpt>
      <trkpt lat="48.04561" lon="6.96891">
        <ele>1024</ele>
        <time>2010-10-29T10:04:21Z</time>
      </trkpt>
      <trkpt lat="48.04543" lon="6.96914">
        <ele>1025</ele>
        <time>2010-10-29T10:04:28Z</time>
      </trkpt>
      <trkpt lat="48.04531" lon="6.96935">
        <ele>1017</ele>
        <time>2010-10-29T10:04:33Z</time>
      </trkpt>
      <trkpt lat="48.04517" lon="6.96962">
        <ele>1014</ele>
        <time>2010-10-29T10:04:39Z</time>
      </trkpt>
      <trkpt lat="48.04504" lon="6.96972">
        <ele>1013</ele>
        <time>2010-10-29T10:04:43Z</time>
      </trkpt>
      <trkpt lat="48.04485" lon="6.96983">
        <ele>1016</ele>
        <time>2010-10-29T10:04:49Z</time>
      </trkpt>
      <trkpt lat="48.04471" lon="6.96987">
        <ele>1017</ele>
        <time>2010-10-29T10:04:55Z</time>
      </trkpt>
      <trkpt lat="48.04458" lon="6.96986">
        <ele>1018</ele>
        <time>2010-10-29T10:05:02Z</time>
      </trkpt>
      <trkpt lat="48.04453" lon="6.96987">
        <ele>1018</ele>
        <time>2010-10-29T10:05:06Z</time>
      </trkpt>
      <trkpt lat="48.04446" lon="6.96986">
        <ele>1018</ele>
        <time>2010-10-29T10:05:11Z</time>
      </trkpt>
      <trkpt lat="48.04437" lon="6.96985">
        <ele>1018</ele>
        <time>2010-10-29T10:05:18Z</time>
      </trkpt>
      <trkpt lat="48.0443" lon="6.96985">
        <ele>1017</ele>
        <time>2010-10-29T10:05:23Z</time>
      </trkpt>
      <trkpt lat="48.04421" lon="6.96983">
        <ele>1017</ele>
        <time>2010-10-29T10:05:29Z</time>
      </trkpt>
      <trkpt lat="48.04413" lon="6.96981">
        <ele>1021</ele>
        <time>2010-10-29T10:05:36Z</time>
      </trkpt>
      <trkpt lat="48.04403" lon="6.96979">
        <ele>1022</ele>
        <time>2010-10-29T10:05:43Z</time>
      </trkpt>
      <trkpt lat="48.04394" lon="6.96977">
        <ele>1024</ele>
        <time>2010-10-29T10:05:50Z</time>
      </trkpt>
      <trkpt lat="48.04393" lon="6.96977">
        <ele>1024</ele>
        <time>2010-10-29T10:05:51Z</time>
      </trkpt>
      <trkpt lat="48.04387" lon="6.96972">
        <ele>1025</ele>
        <time>2010-10-29T10:05:56Z</time>
      </trkpt>
      <trkpt lat="48.04388" lon="6.96959">
        <ele>1027</ele>
        <time>2010-10-29T10:06:03Z</time>
      </trkpt>
      <trkpt lat="48.04391" lon="6.96958">
        <ele>1027</ele>
        <time>2010-10-29T10:06:05Z</time>
      </trkpt>
      <trkpt lat="48.04402" lon="6.96954">
        <ele>1027</ele>
        <time>2010-10-29T10:06:14Z</time>
      </trkpt>
      <trkpt lat="48.04411" lon="6.96952">
        <ele>1027</ele>
        <time>2010-10-29T10:06:20Z</time>
      </trkpt>
      <trkpt lat="48.04421" lon="6.96943">
        <ele>1024</ele>
        <time>2010-10-29T10:06:28Z</time>
      </trkpt>
      <trkpt lat="48.04435" lon="6.96931">
        <ele>1026</ele>
        <time>2010-10-29T10:06:39Z</time>
      </trkpt>
      <trkpt lat="48.0444" lon="6.9692">
        <ele>1026</ele>
        <time>2010-10-29T10:06:46Z</time>
      </trkpt>
      <trkpt lat="48.0444" lon="6.96919">
        <ele>1026</ele>
        <time>2010-10-29T10:06:47Z</time>
      </trkpt>
      <trkpt lat="48.04435" lon="6.96911">
        <ele>1037</ele>
        <time>2010-10-29T10:06:54Z</time>
      </trkpt>
      <trkpt lat="48.04433" lon="6.96911">
        <ele>1037</ele>
        <time>2010-10-29T10:06:56Z</time>
      </trkpt>
      <trkpt lat="48.04422" lon="6.96917">
        <ele>1031</ele>
        <time>2010-10-29T10:07:04Z</time>
      </trkpt>
      <trkpt lat="48.04406" lon="6.96923">
        <ele>1031</ele>
        <time>2010-10-29T10:07:14Z</time>
      </trkpt>
      <trkpt lat="48.0439" lon="6.96929">
        <ele>1030</ele>
        <time>2010-10-29T10:07:25Z</time>
      </trkpt>
      <trkpt lat="48.04377" lon="6.96933">
        <ele>1030</ele>
        <time>2010-10-29T10:07:34Z</time>
      </trkpt>
      <trkpt lat="48.04367" lon="6.96937">
        <ele>1030</ele>
        <time>2010-10-29T10:07:41Z</time>
      </trkpt>
      <trkpt lat="48.04356" lon="6.96942">
        <ele>1031</ele>
        <time>2010-10-29T10:07:47Z</time>
      </trkpt>
      <trkpt lat="48.04343" lon="6.96948">
        <ele>1031</ele>
        <time>2010-10-29T10:07:52Z</time>
      </trkpt>
      <trkpt lat="48.04342" lon="6.96948">
        <ele>1031</ele>
        <time>2010-10-29T10:07:53Z</time>
      </trkpt>
      <trkpt lat="48.04333" lon="6.96962">
        <ele>1036</ele>
        <time>2010-10-29T10:08:01Z</time>
      </trkpt>
      <trkpt lat="48.04325" lon="6.96969">
        <ele>1035</ele>
        <time>2010-10-29T10:08:07Z</time>
      </trkpt>
      <trkpt lat="48.04315" lon="6.96977">
        <ele>1034</ele>
        <time>2010-10-29T10:08:14Z</time>
      </trkpt>
      <trkpt lat="48.043" lon="6.96988">
        <ele>1035</ele>
        <time>2010-10-29T10:08:23Z</time>
      </trkpt>
      <trkpt lat="48.04287" lon="6.96996">
        <ele>1037</ele>
        <time>2010-10-29T10:08:31Z</time>
      </trkpt>
      <trkpt lat="48.04277" lon="6.97001">
        <ele>1029</ele>
        <time>2010-10-29T10:08:37Z</time>
      </trkpt>
      <trkpt lat="48.04265" lon="6.97009">
        <ele>1031</ele>
        <time>2010-10-29T10:08:44Z</time>
      </trkpt>
      <trkpt lat="48.04252" lon="6.97021">
        <ele>1031</ele>
        <time>2010-10-29T10:08:53Z</time>
      </trkpt>
      <trkpt lat="48.04237" lon="6.97038">
        <ele>1036</ele>
        <time>2010-10-29T10:09:03Z</time>
      </trkpt>
      <trkpt lat="48.04226" lon="6.9705">
        <ele>1036</ele>
        <time>2010-10-29T10:09:11Z</time>
      </trkpt>
      <trkpt lat="48.04221" lon="6.9705">
        <ele>1036</ele>
        <time>2010-10-29T10:09:14Z</time>
      </trkpt>
      <trkpt lat="48.04216" lon="6.97039">
        <ele>1037</ele>
        <time>2010-10-29T10:09:20Z</time>
      </trkpt>
      <trkpt lat="48.04221" lon="6.97029">
        <ele>1038</ele>
        <time>2010-10-29T10:09:26Z</time>
      </trkpt>
      <trkpt lat="48.04222" lon="6.97028">
        <ele>1038</ele>
        <time>2010-10-29T10:09:27Z</time>
      </trkpt>
      <trkpt lat="48.04233" lon="6.97016">
        <ele>1038</ele>
        <time>2010-10-29T10:09:36Z</time>
      </trkpt>
      <trkpt lat="48.04243" lon="6.97">
        <ele>1042</ele>
        <time>2010-10-29T10:09:45Z</time>
      </trkpt>
      <trkpt lat="48.04253" lon="6.96983">
        <ele>1040</ele>
        <time>2010-10-29T10:09:54Z</time>
      </trkpt>
      <trkpt lat="48.04261" lon="6.96964">
        <ele>1041</ele>
        <time>2010-10-29T10:10:03Z</time>
      </trkpt>
      <trkpt lat="48.04268" lon="6.96949">
        <ele>1042</ele>
        <time>2010-10-29T10:10:11Z</time>
      </trkpt>
      <trkpt lat="48.04272" lon="6.9693">
        <ele>1044</ele>
        <time>2010-10-29T10:10:19Z</time>
      </trkpt>
      <trkpt lat="48.04272" lon="6.96911">
        <ele>1053</ele>
        <time>2010-10-29T10:10:27Z</time>
      </trkpt>
      <trkpt lat="48.0427" lon="6.96906">
        <ele>1053</ele>
        <time>2010-10-29T10:10:32Z</time>
      </trkpt>
      <trkpt lat="48.04269" lon="6.96905">
        <ele>1053</ele>
        <time>2010-10-29T10:10:33Z</time>
      </trkpt>
      <trkpt lat="48.04263" lon="6.96902">
        <ele>1053</ele>
        <time>2010-10-29T10:10:52Z</time>
      </trkpt>
      <trkpt lat="48.04263" lon="6.96901">
        <ele>1053</ele>
        <time>2010-10-29T10:10:53Z</time>
      </trkpt>
      <trkpt lat="48.0426" lon="6.96897">
        <ele>1053</ele>
        <time>2010-10-29T10:10:56Z</time>
      </trkpt>
      <trkpt lat="48.04251" lon="6.96887">
        <ele>1054</ele>
        <time>2010-10-29T10:11:03Z</time>
      </trkpt>
      <trkpt lat="48.04241" lon="6.96877">
        <ele>1056</ele>
        <time>2010-10-29T10:11:11Z</time>
      </trkpt>
      <trkpt lat="48.04228" lon="6.9687">
        <ele>1056</ele>
        <time>2010-10-29T10:11:17Z</time>
      </trkpt>
      <trkpt lat="48.04213" lon="6.96853">
        <ele>1056</ele>
        <time>2010-10-29T10:11:24Z</time>
      </trkpt>
      <trkpt lat="48.04203" lon="6.96829">
        <ele>1059</ele>
        <time>2010-10-29T10:11:31Z</time>
      </trkpt>
      <trkpt lat="48.04195" lon="6.96809">
        <ele>1059</ele>
        <time>2010-10-29T10:11:38Z</time>
      </trkpt>
      <trkpt lat="48.04193" lon="6.96803">
        <ele>1059</ele>
        <time>2010-10-29T10:11:40Z</time>
      </trkpt>
      <trkpt lat="48.04188" lon="6.96783">
        <ele>1059</ele>
        <time>2010-10-29T10:11:48Z</time>
      </trkpt>
      <trkpt lat="48.04188" lon="6.9676">
        <ele>1058</ele>
        <time>2010-10-29T10:11:57Z</time>
      </trkpt>
      <trkpt lat="48.0419" lon="6.96745">
        <ele>1062</ele>
        <time>2010-10-29T10:12:03Z</time>
      </trkpt>
      <trkpt lat="48.04195" lon="6.96719">
        <ele>1064</ele>
        <time>2010-10-29T10:12:14Z</time>
      </trkpt>
      <trkpt lat="48.04196" lon="6.96697">
        <ele>1065</ele>
        <time>2010-10-29T10:12:23Z</time>
      </trkpt>
      <trkpt lat="48.04193" lon="6.96676">
        <ele>1064</ele>
        <time>2010-10-29T10:12:32Z</time>
      </trkpt>
      <trkpt lat="48.04188" lon="6.96648">
        <ele>1069</ele>
        <time>2010-10-29T10:12:42Z</time>
      </trkpt>
      <trkpt lat="48.0419" lon="6.96643">
        <ele>1070</ele>
        <time>2010-10-29T10:12:45Z</time>
      </trkpt>
      <trkpt lat="48.04194" lon="6.96645">
        <ele>1071</ele>
        <time>2010-10-29T10:12:49Z</time>
      </trkpt>
      <trkpt lat="48.04195" lon="6.9666">
        <ele>1070</ele>
        <time>2010-10-29T10:12:56Z</time>
      </trkpt>
      <trkpt lat="48.04202" lon="6.96677">
        <ele>1066</ele>
        <time>2010-10-29T10:13:03Z</time>
      </trkpt>
      <trkpt lat="48.04211" lon="6.96695">
        <ele>1068</ele>
        <time>2010-10-29T10:13:12Z</time>
      </trkpt>
      <trkpt lat="48.04219" lon="6.96707">
        <ele>1068</ele>
        <time>2010-10-29T10:13:19Z</time>
      </trkpt>
      <trkpt lat="48.04229" lon="6.96724">
        <ele>1069</ele>
        <time>2010-10-29T10:13:29Z</time>
      </trkpt>
      <trkpt lat="48.04236" lon="6.96736">
        <ele>1071</ele>
        <time>2010-10-29T10:13:36Z</time>
      </trkpt>
      <trkpt lat="48.04242" lon="6.9674">
        <ele>1072</ele>
        <time>2010-10-29T10:13:40Z</time>
      </trkpt>
      <trkpt lat="48.04256" lon="6.96746">
        <ele>1078</ele>
        <time>2010-10-29T10:13:48Z</time>
      </trkpt>
      <trkpt lat="48.04265" lon="6.96748">
        <ele>1080</ele>
        <time>2010-10-29T10:13:52Z</time>
      </trkpt>
      <trkpt lat="48.04281" lon="6.96753">
        <ele>1072</ele>
        <time>2010-10-29T10:14:01Z</time>
      </trkpt>
      <trkpt lat="48.04296" lon="6.96756">
        <ele>1073</ele>
        <time>2010-10-29T10:14:09Z</time>
      </trkpt>
      <trkpt lat="48.04305" lon="6.96758">
        <ele>1073</ele>
        <time>2010-10-29T10:14:15Z</time>
      </trkpt>
      <trkpt lat="48.04306" lon="6.96759">
        <ele>1073</ele>
        <time>2010-10-29T10:14:16Z</time>
      </trkpt>
      <trkpt lat="48.04319" lon="6.96763">
        <ele>1074</ele>
        <time>2010-10-29T10:14:23Z</time>
      </trkpt>
      <trkpt lat="48.0433" lon="6.96762">
        <ele>1076</ele>
        <time>2010-10-29T10:14:30Z</time>
      </trkpt>
      <trkpt lat="48.04343" lon="6.96761">
        <ele>1076</ele>
        <time>2010-10-29T10:14:38Z</time>
      </trkpt>
      <trkpt lat="48.04354" lon="6.96757">
        <ele>1074</ele>
        <time>2010-10-29T10:14:46Z</time>
      </trkpt>
      <trkpt lat="48.04367" lon="6.96749">
        <ele>1087</ele>
        <time>2010-10-29T10:14:55Z</time>
      </trkpt>
      <trkpt lat="48.04374" lon="6.96741">
        <ele>1087</ele>
        <time>2010-10-29T10:15:01Z</time>
      </trkpt>
      <trkpt lat="48.04381" lon="6.9673">
        <ele>1088</ele>
        <time>2010-10-29T10:15:06Z</time>
      </trkpt>
      <trkpt lat="48.04385" lon="6.96725">
        <ele>1088</ele>
        <time>2010-10-29T10:15:09Z</time>
      </trkpt>
      <trkpt lat="48.04387" lon="6.96719">
        <ele>1089</ele>
        <time>2010-10-29T10:15:14Z</time>
      </trkpt>
      <trkpt lat="48.0439" lon="6.96719">
        <ele>1089</ele>
        <time>2010-10-29T10:15:36Z</time>
      </trkpt>
      <trkpt lat="48.04386" lon="6.96717">
        <ele>1090</ele>
        <time>2010-10-29T10:15:39Z</time>
      </trkpt>
      <trkpt lat="48.04378" lon="6.96722">
        <ele>1089</ele>
        <time>2010-10-29T10:15:44Z</time>
      </trkpt>
      <trkpt lat="48.04374" lon="6.96723">
        <ele>1089</ele>
        <time>2010-10-29T10:15:47Z</time>
      </trkpt>
      <trkpt lat="48.04362" lon="6.96725">
        <ele>1089</ele>
        <time>2010-10-29T10:15:54Z</time>
      </trkpt>
      <trkpt lat="48.04351" lon="6.96721">
        <ele>1089</ele>
        <time>2010-10-29T10:16:01Z</time>
      </trkpt>
      <trkpt lat="48.04339" lon="6.96721">
        <ele>1088</ele>
        <time>2010-10-29T10:16:08Z</time>
      </trkpt>
      <trkpt lat="48.0433" lon="6.96722">
        <ele>1086</ele>
        <time>2010-10-29T10:16:12Z</time>
      </trkpt>
      <trkpt lat="48.04321" lon="6.96719">
        <ele>1086</ele>
        <time>2010-10-29T10:16:18Z</time>
      </trkpt>
      <trkpt lat="48.04311" lon="6.96703">
        <ele>1088</ele>
        <time>2010-10-29T10:16:27Z</time>
      </trkpt>
      <trkpt lat="48.04302" lon="6.96689">
        <ele>1089</ele>
        <time>2010-10-29T10:16:35Z</time>
      </trkpt>
      <trkpt lat="48.04297" lon="6.96679">
        <ele>1089</ele>
        <time>2010-10-29T10:16:41Z</time>
      </trkpt>
      <trkpt lat="48.043" lon="6.96668">
        <ele>1091</ele>
        <time>2010-10-29T10:16:47Z</time>
      </trkpt>
      <trkpt lat="48.04306" lon="6.96668">
        <ele>1092</ele>
        <time>2010-10-29T10:16:51Z</time>
      </trkpt>
      <trkpt lat="48.04309" lon="6.96673">
        <ele>1093</ele>
        <time>2010-10-29T10:16:54Z</time>
      </trkpt>
      <trkpt lat="48.0432" lon="6.96679">
        <ele>1094</ele>
        <time>2010-10-29T10:17:03Z</time>
      </trkpt>
      <trkpt lat="48.04332" lon="6.96678">
        <ele>1097</ele>
        <time>2010-10-29T10:17:11Z</time>
      </trkpt>
      <trkpt lat="48.04341" lon="6.96676">
        <ele>1099</ele>
        <time>2010-10-29T10:17:18Z</time>
      </trkpt>
      <trkpt lat="48.04351" lon="6.96676">
        <ele>1097</ele>
        <time>2010-10-29T10:17:25Z</time>
      </trkpt>
      <trkpt lat="48.04361" lon="6.96676">
        <ele>1095</ele>
        <time>2010-10-29T10:17:31Z</time>
      </trkpt>
      <trkpt lat="48.04376" lon="6.96675">
        <ele>1094</ele>
        <time>2010-10-29T10:17:40Z</time>
      </trkpt>
      <trkpt lat="48.04388" lon="6.96675">
        <ele>1094</ele>
        <time>2010-10-29T10:17:47Z</time>
      </trkpt>
      <trkpt lat="48.04391" lon="6.96677">
        <ele>1094</ele>
        <time>2010-10-29T10:17:52Z</time>
      </trkpt>
      <trkpt lat="48.04392" lon="6.96677">
        <ele>1094</ele>
        <time>2010-10-29T10:17:54Z</time>
      </trkpt>
      <trkpt lat="48.04395" lon="6.96676">
        <ele>1095</ele>
        <time>2010-10-29T10:18:54Z</time>
      </trkpt>
      <trkpt lat="48.04397" lon="6.96675">
        <ele>1095</ele>
        <time>2010-10-29T10:18:57Z</time>
      </trkpt>
      <trkpt lat="48.04398" lon="6.96675">
        <ele>1095</ele>
        <time>2010-10-29T10:19:01Z</time>
      </trkpt>
      <trkpt lat="48.04409" lon="6.96676">
        <ele>1096</ele>
        <time>2010-10-29T10:19:07Z</time>
      </trkpt>
      <trkpt lat="48.04424" lon="6.96674">
        <ele>1092</ele>
        <time>2010-10-29T10:19:15Z</time>
      </trkpt>
      <trkpt lat="48.04432" lon="6.9666">
        <ele>1095</ele>
        <time>2010-10-29T10:19:22Z</time>
      </trkpt>
      <trkpt lat="48.04432" lon="6.96635">
        <ele>1095</ele>
        <time>2010-10-29T10:19:31Z</time>
      </trkpt>
      <trkpt lat="48.04432" lon="6.96618">
        <ele>1097</ele>
        <time>2010-10-29T10:19:37Z</time>
      </trkpt>
      <trkpt lat="48.04432" lon="6.96613">
        <ele>1098</ele>
        <time>2010-10-29T10:19:39Z</time>
      </trkpt>
      <trkpt lat="48.04425" lon="6.96614">
        <ele>1099</ele>
        <time>2010-10-29T10:19:44Z</time>
      </trkpt>
      <trkpt lat="48.04424" lon="6.96618">
        <ele>1098</ele>
        <time>2010-10-29T10:19:46Z</time>
      </trkpt>
      <trkpt lat="48.04415" lon="6.96637">
        <ele>1107</ele>
        <time>2010-10-29T10:19:54Z</time>
      </trkpt>
      <trkpt lat="48.04403" lon="6.96652">
        <ele>1105</ele>
        <time>2010-10-29T10:20:02Z</time>
      </trkpt>
      <trkpt lat="48.04388" lon="6.96652">
        <ele>1107</ele>
        <time>2010-10-29T10:20:09Z</time>
      </trkpt>
      <trkpt lat="48.0438" lon="6.9665">
        <ele>1108</ele>
        <time>2010-10-29T10:20:13Z</time>
      </trkpt>
      <trkpt lat="48.04367" lon="6.96641">
        <ele>1109</ele>
        <time>2010-10-29T10:20:21Z</time>
      </trkpt>
      <trkpt lat="48.04355" lon="6.9663">
        <ele>1110</ele>
        <time>2010-10-29T10:20:28Z</time>
      </trkpt>
      <trkpt lat="48.04342" lon="6.96617">
        <ele>1112</ele>
        <time>2010-10-29T10:20:36Z</time>
      </trkpt>
      <trkpt lat="48.0433" lon="6.96605">
        <ele>1111</ele>
        <time>2010-10-29T10:20:43Z</time>
      </trkpt>
      <trkpt lat="48.04314" lon="6.96586">
        <ele>1111</ele>
        <time>2010-10-29T10:20:54Z</time>
      </trkpt>
      <trkpt lat="48.04303" lon="6.96569">
        <ele>1117</ele>
        <time>2010-10-29T10:21:02Z</time>
      </trkpt>
      <trkpt lat="48.04293" lon="6.96557">
        <ele>1116</ele>
        <time>2010-10-29T10:21:09Z</time>
      </trkpt>
      <trkpt lat="48.04283" lon="6.96538">
        <ele>1116</ele>
        <time>2010-10-29T10:21:18Z</time>
      </trkpt>
      <trkpt lat="48.04277" lon="6.96517">
        <ele>1117</ele>
        <time>2010-10-29T10:21:27Z</time>
      </trkpt>
      <trkpt lat="48.04271" lon="6.9649">
        <ele>1120</ele>
        <time>2010-10-29T10:21:38Z</time>
      </trkpt>
      <trkpt lat="48.04269" lon="6.96466">
        <ele>1121</ele>
        <time>2010-10-29T10:21:48Z</time>
      </trkpt>
      <trkpt lat="48.04269" lon="6.96448">
        <ele>1122</ele>
        <time>2010-10-29T10:21:55Z</time>
      </trkpt>
      <trkpt lat="48.04269" lon="6.9643">
        <ele>1122</ele>
        <time>2010-10-29T10:22:02Z</time>
      </trkpt>
      <trkpt lat="48.04268" lon="6.9641">
        <ele>1122</ele>
        <time>2010-10-29T10:22:11Z</time>
      </trkpt>
      <trkpt lat="48.04266" lon="6.9639">
        <ele>1123</ele>
        <time>2010-10-29T10:22:20Z</time>
      </trkpt>
      <trkpt lat="48.04263" lon="6.96372">
        <ele>1124</ele>
        <time>2010-10-29T10:22:28Z</time>
      </trkpt>
      <trkpt lat="48.04261" lon="6.96355">
        <ele>1124</ele>
        <time>2010-10-29T10:22:35Z</time>
      </trkpt>
      <trkpt lat="48.04262" lon="6.96339">
        <ele>1125</ele>
        <time>2010-10-29T10:22:44Z</time>
      </trkpt>
      <trkpt lat="48.04264" lon="6.9632">
        <ele>1126</ele>
        <time>2010-10-29T10:22:52Z</time>
      </trkpt>
      <trkpt lat="48.04266" lon="6.96296">
        <ele>1126</ele>
        <time>2010-10-29T10:23:01Z</time>
      </trkpt>
      <trkpt lat="48.04268" lon="6.96279">
        <ele>1127</ele>
        <time>2010-10-29T10:23:09Z</time>
      </trkpt>
      <trkpt lat="48.04267" lon="6.9626">
        <ele>1128</ele>
        <time>2010-10-29T10:23:17Z</time>
      </trkpt>
      <trkpt lat="48.04266" lon="6.96243">
        <ele>1128</ele>
        <time>2010-10-29T10:23:24Z</time>
      </trkpt>
      <trkpt lat="48.04265" lon="6.96241">
        <ele>1128</ele>
        <time>2010-10-29T10:23:25Z</time>
      </trkpt>
      <trkpt lat="48.04261" lon="6.96228">
        <ele>1128</ele>
        <time>2010-10-29T10:23:33Z</time>
      </trkpt>
      <trkpt lat="48.04253" lon="6.96219">
        <ele>1128</ele>
        <time>2010-10-29T10:23:41Z</time>
      </trkpt>
      <trkpt lat="48.0425" lon="6.96215">
        <ele>1128</ele>
        <time>2010-10-29T10:23:44Z</time>
      </trkpt>
      <trkpt lat="48.04243" lon="6.96205">
        <ele>1133</ele>
        <time>2010-10-29T10:23:51Z</time>
      </trkpt>
      <trkpt lat="48.0424" lon="6.962">
        <ele>1133</ele>
        <time>2010-10-29T10:23:55Z</time>
      </trkpt>
      <trkpt lat="48.04231" lon="6.96187">
        <ele>1133</ele>
        <time>2010-10-29T10:24:04Z</time>
      </trkpt>
      <trkpt lat="48.04222" lon="6.96176">
        <ele>1133</ele>
        <time>2010-10-29T10:24:12Z</time>
      </trkpt>
      <trkpt lat="48.04211" lon="6.96164">
        <ele>1135</ele>
        <time>2010-10-29T10:24:20Z</time>
      </trkpt>
      <trkpt lat="48.04203" lon="6.96156">
        <ele>1135</ele>
        <time>2010-10-29T10:24:26Z</time>
      </trkpt>
      <trkpt lat="48.0419" lon="6.96144">
        <ele>1136</ele>
        <time>2010-10-29T10:24:34Z</time>
      </trkpt>
      <trkpt lat="48.04179" lon="6.96129">
        <ele>1136</ele>
        <time>2010-10-29T10:24:41Z</time>
      </trkpt>
      <trkpt lat="48.0417" lon="6.96119">
        <ele>1137</ele>
        <time>2010-10-29T10:24:47Z</time>
      </trkpt>
      <trkpt lat="48.04156" lon="6.96104">
        <ele>1138</ele>
        <time>2010-10-29T10:24:57Z</time>
      </trkpt>
      <trkpt lat="48.04146" lon="6.96093">
        <ele>1138</ele>
        <time>2010-10-29T10:25:05Z</time>
      </trkpt>
      <trkpt lat="48.04132" lon="6.96078">
        <ele>1139</ele>
        <time>2010-10-29T10:25:14Z</time>
      </trkpt>
      <trkpt lat="48.04121" lon="6.96064">
        <ele>1138</ele>
        <time>2010-10-29T10:25:22Z</time>
      </trkpt>
      <trkpt lat="48.04109" lon="6.96047">
        <ele>1138</ele>
        <time>2010-10-29T10:25:32Z</time>
      </trkpt>
      <trkpt lat="48.04106" lon="6.96027">
        <ele>1139</ele>
        <time>2010-10-29T10:25:39Z</time>
      </trkpt>
      <trkpt lat="48.04104" lon="6.96021">
        <ele>1139</ele>
        <time>2010-10-29T10:25:41Z</time>
      </trkpt>
      <trkpt lat="48.04097" lon="6.96011">
        <ele>1141</ele>
        <time>2010-10-29T10:25:48Z</time>
      </trkpt>
      <trkpt lat="48.04089" lon="6.96006">
        <ele>1143</ele>
        <time>2010-10-29T10:25:55Z</time>
      </trkpt>
      <trkpt lat="48.04078" lon="6.95999">
        <ele>1145</ele>
        <time>2010-10-29T10:26:03Z</time>
      </trkpt>
      <trkpt lat="48.04071" lon="6.9599">
        <ele>1145</ele>
        <time>2010-10-29T10:26:10Z</time>
      </trkpt>
      <trkpt lat="48.04065" lon="6.9598">
        <ele>1145</ele>
        <time>2010-10-29T10:26:16Z</time>
      </trkpt>
      <trkpt lat="48.04059" lon="6.95965">
        <ele>1145</ele>
        <time>2010-10-29T10:26:24Z</time>
      </trkpt>
      <trkpt lat="48.04055" lon="6.95954">
        <ele>1145</ele>
        <time>2010-10-29T10:26:30Z</time>
      </trkpt>
      <trkpt lat="48.04053" lon="6.95951">
        <ele>1145</ele>
        <time>2010-10-29T10:26:32Z</time>
      </trkpt>
      <trkpt lat="48.04047" lon="6.95941">
        <ele>1145</ele>
        <time>2010-10-29T10:26:38Z</time>
      </trkpt>
      <trkpt lat="48.04043" lon="6.9593">
        <ele>1146</ele>
        <time>2010-10-29T10:26:46Z</time>
      </trkpt>
      <trkpt lat="48.04039" lon="6.9591">
        <ele>1147</ele>
        <time>2010-10-29T10:26:55Z</time>
      </trkpt>
      <trkpt lat="48.04036" lon="6.95892">
        <ele>1147</ele>
        <time>2010-10-29T10:27:03Z</time>
      </trkpt>
      <trkpt lat="48.04033" lon="6.95878">
        <ele>1147</ele>
        <time>2010-10-29T10:27:10Z</time>
      </trkpt>
      <trkpt lat="48.04033" lon="6.95877">
        <ele>1147</ele>
        <time>2010-10-29T10:27:11Z</time>
      </trkpt>
      <trkpt lat="48.04029" lon="6.95874">
        <ele>1148</ele>
        <time>2010-10-29T10:27:40Z</time>
      </trkpt>
      <trkpt lat="48.04028" lon="6.95874">
        <ele>1148</ele>
        <time>2010-10-29T10:27:41Z</time>
      </trkpt>
      <trkpt lat="48.04027" lon="6.95872">
        <ele>1148</ele>
        <time>2010-10-29T10:27:44Z</time>
      </trkpt>
      <trkpt lat="48.04028" lon="6.95872">
        <ele>1148</ele>
        <time>2010-10-29T10:27:49Z</time>
      </trkpt>
      <trkpt lat="48.04027" lon="6.95871">
        <ele>1148</ele>
        <time>2010-10-29T10:27:50Z</time>
      </trkpt>
      <trkpt lat="48.04021" lon="6.95862">
        <ele>1149</ele>
        <time>2010-10-29T10:27:55Z</time>
      </trkpt>
      <trkpt lat="48.04019" lon="6.95856">
        <ele>1150</ele>
        <time>2010-10-29T10:27:58Z</time>
      </trkpt>
      <trkpt lat="48.04011" lon="6.9584">
        <ele>1153</ele>
        <time>2010-10-29T10:28:06Z</time>
      </trkpt>
      <trkpt lat="48.0401" lon="6.95835">
        <ele>1154</ele>
        <time>2010-10-29T10:28:08Z</time>
      </trkpt>
      <trkpt lat="48.04002" lon="6.95822">
        <ele>1153</ele>
        <time>2010-10-29T10:28:16Z</time>
      </trkpt>
      <trkpt lat="48.03999" lon="6.95812">
        <ele>1159</ele>
        <time>2010-10-29T10:28:23Z</time>
      </trkpt>
      <trkpt lat="48.03997" lon="6.95797">
        <ele>1159</ele>
        <time>2010-10-29T10:28:30Z</time>
      </trkpt>
      <trkpt lat="48.03997" lon="6.95774">
        <ele>1159</ele>
        <time>2010-10-29T10:28:38Z</time>
      </trkpt>
      <trkpt lat="48.03997" lon="6.95753">
        <ele>1158</ele>
        <time>2010-10-29T10:28:46Z</time>
      </trkpt>
      <trkpt lat="48.03997" lon="6.95743">
        <ele>1158</ele>
        <time>2010-10-29T10:28:53Z</time>
      </trkpt>
      <trkpt lat="48.03993" lon="6.95739">
        <ele>1158</ele>
        <time>2010-10-29T10:29:59Z</time>
      </trkpt>
      <trkpt lat="48.03992" lon="6.95735">
        <ele>1157</ele>
        <time>2010-10-29T10:30:04Z</time>
      </trkpt>
      <trkpt lat="48.03992" lon="6.95734">
        <ele>1157</ele>
        <time>2010-10-29T10:30:07Z</time>
      </trkpt>
      <trkpt lat="48.03992" lon="6.95729">
        <ele>1157</ele>
        <time>2010-10-29T10:30:10Z</time>
      </trkpt>
      <trkpt lat="48.03992" lon="6.95728">
        <ele>1157</ele>
        <time>2010-10-29T10:30:13Z</time>
      </trkpt>
      <trkpt lat="48.03991" lon="6.95712">
        <ele>1157</ele>
        <time>2010-10-29T10:30:17Z</time>
      </trkpt>
      <trkpt lat="48.03986" lon="6.95687">
        <ele>1155</ele>
        <time>2010-10-29T10:30:24Z</time>
      </trkpt>
      <trkpt lat="48.03981" lon="6.9567">
        <ele>1155</ele>
        <time>2010-10-29T10:30:30Z</time>
      </trkpt>
      <trkpt lat="48.03975" lon="6.95652">
        <ele>1154</ele>
        <time>2010-10-29T10:30:38Z</time>
      </trkpt>
      <trkpt lat="48.03968" lon="6.95641">
        <ele>1155</ele>
        <time>2010-10-29T10:30:45Z</time>
      </trkpt>
      <trkpt lat="48.03956" lon="6.95629">
        <ele>1155</ele>
        <time>2010-10-29T10:30:53Z</time>
      </trkpt>
      <trkpt lat="48.03947" lon="6.95609">
        <ele>1155</ele>
        <time>2010-10-29T10:31:01Z</time>
      </trkpt>
      <trkpt lat="48.0394" lon="6.95583">
        <ele>1156</ele>
        <time>2010-10-29T10:31:09Z</time>
      </trkpt>
      <trkpt lat="48.03939" lon="6.95572">
        <ele>1156</ele>
        <time>2010-10-29T10:31:11Z</time>
      </trkpt>
      <trkpt lat="48.03938" lon="6.95554">
        <ele>1156</ele>
        <time>2010-10-29T10:31:16Z</time>
      </trkpt>
      <trkpt lat="48.03936" lon="6.95545">
        <ele>1156</ele>
        <time>2010-10-29T10:31:20Z</time>
      </trkpt>
      <trkpt lat="48.03935" lon="6.9553">
        <ele>1156</ele>
        <time>2010-10-29T10:31:25Z</time>
      </trkpt>
      <trkpt lat="48.03931" lon="6.95517">
        <ele>1156</ele>
        <time>2010-10-29T10:31:31Z</time>
      </trkpt>
      <trkpt lat="48.0393" lon="6.95505">
        <ele>1156</ele>
        <time>2010-10-29T10:31:36Z</time>
      </trkpt>
      <trkpt lat="48.03933" lon="6.95489">
        <ele>1157</ele>
        <time>2010-10-29T10:31:41Z</time>
      </trkpt>
      <trkpt lat="48.03939" lon="6.95471">
        <ele>1158</ele>
        <time>2010-10-29T10:31:47Z</time>
      </trkpt>
      <trkpt lat="48.03939" lon="6.95452">
        <ele>1158</ele>
        <time>2010-10-29T10:31:52Z</time>
      </trkpt>
      <trkpt lat="48.0394" lon="6.95436">
        <ele>1157</ele>
        <time>2010-10-29T10:31:58Z</time>
      </trkpt>
      <trkpt lat="48.0394" lon="6.95425">
        <ele>1157</ele>
        <time>2010-10-29T10:32:03Z</time>
      </trkpt>
      <trkpt lat="48.03939" lon="6.9542">
        <ele>1157</ele>
        <time>2010-10-29T10:32:05Z</time>
      </trkpt>
      <trkpt lat="48.03944" lon="6.95404">
        <ele>1158</ele>
        <time>2010-10-29T10:32:11Z</time>
      </trkpt>
      <trkpt lat="48.03946" lon="6.95391">
        <ele>1158</ele>
        <time>2010-10-29T10:32:17Z</time>
      </trkpt>
      <trkpt lat="48.03945" lon="6.95371">
        <ele>1158</ele>
        <time>2010-10-29T10:32:24Z</time>
      </trkpt>
      <trkpt lat="48.03945" lon="6.95354">
        <ele>1158</ele>
        <time>2010-10-29T10:32:30Z</time>
      </trkpt>
      <trkpt lat="48.03944" lon="6.95334">
        <ele>1157</ele>
        <time>2010-10-29T10:32:35Z</time>
      </trkpt>
      <trkpt lat="48.03944" lon="6.9532">
        <ele>1157</ele>
        <time>2010-10-29T10:32:39Z</time>
      </trkpt>
      <trkpt lat="48.03945" lon="6.95297">
        <ele>1158</ele>
        <time>2010-10-29T10:32:46Z</time>
      </trkpt>
      <trkpt lat="48.03946" lon="6.95271">
        <ele>1158</ele>
        <time>2010-10-29T10:32:54Z</time>
      </trkpt>
      <trkpt lat="48.03949" lon="6.95243">
        <ele>1156</ele>
        <time>2010-10-29T10:33:01Z</time>
      </trkpt>
      <trkpt lat="48.0395" lon="6.95221">
        <ele>1156</ele>
        <time>2010-10-29T10:33:06Z</time>
      </trkpt>
      <trkpt lat="48.03953" lon="6.95198">
        <ele>1156</ele>
        <time>2010-10-29T10:33:11Z</time>
      </trkpt>
      <trkpt lat="48.03958" lon="6.95173">
        <ele>1156</ele>
        <time>2010-10-29T10:33:18Z</time>
      </trkpt>
      <trkpt lat="48.03961" lon="6.95152">
        <ele>1153</ele>
        <time>2010-10-29T10:33:24Z</time>
      </trkpt>
      <trkpt lat="48.03962" lon="6.95146">
        <ele>1153</ele>
        <time>2010-10-29T10:33:26Z</time>
      </trkpt>
      <trkpt lat="48.03968" lon="6.95126">
        <ele>1152</ele>
        <time>2010-10-29T10:33:32Z</time>
      </trkpt>
      <trkpt lat="48.03972" lon="6.95116">
        <ele>1152</ele>
        <time>2010-10-29T10:33:35Z</time>
      </trkpt>
      <trkpt lat="48.03978" lon="6.95097">
        <ele>1152</ele>
        <time>2010-10-29T10:33:42Z</time>
      </trkpt>
      <trkpt lat="48.03984" lon="6.95085">
        <ele>1152</ele>
        <time>2010-10-29T10:33:47Z</time>
      </trkpt>
      <trkpt lat="48.0398" lon="6.95066">
        <ele>1148</ele>
        <time>2010-10-29T10:33:53Z</time>
      </trkpt>
      <trkpt lat="48.03978" lon="6.95045">
        <ele>1146</ele>
        <time>2010-10-29T10:33:59Z</time>
      </trkpt>
      <trkpt lat="48.03981" lon="6.95028">
        <ele>1145</ele>
        <time>2010-10-29T10:34:05Z</time>
      </trkpt>
      <trkpt lat="48.03986" lon="6.95016">
        <ele>1144</ele>
        <time>2010-10-29T10:34:10Z</time>
      </trkpt>
      <trkpt lat="48.03987" lon="6.95014">
        <ele>1144</ele>
        <time>2010-10-29T10:34:11Z</time>
      </trkpt>
      <trkpt lat="48.03994" lon="6.94997">
        <ele>1141</ele>
        <time>2010-10-29T10:34:18Z</time>
      </trkpt>
      <trkpt lat="48.04002" lon="6.94983">
        <ele>1142</ele>
        <time>2010-10-29T10:34:24Z</time>
      </trkpt>
      <trkpt lat="48.04007" lon="6.94976">
        <ele>1142</ele>
        <time>2010-10-29T10:34:28Z</time>
      </trkpt>
      <trkpt lat="48.0401" lon="6.94971">
        <ele>1141</ele>
        <time>2010-10-29T10:34:32Z</time>
      </trkpt>
      <trkpt lat="48.04012" lon="6.94966">
        <ele>1141</ele>
        <time>2010-10-29T10:35:10Z</time>
      </trkpt>
      <trkpt lat="48.04017" lon="6.94956">
        <ele>1141</ele>
        <time>2010-10-29T10:35:13Z</time>
      </trkpt>
      <trkpt lat="48.04022" lon="6.94947">
        <ele>1140</ele>
        <time>2010-10-29T10:35:18Z</time>
      </trkpt>
      <trkpt lat="48.04023" lon="6.94941">
        <ele>1140</ele>
        <time>2010-10-29T10:35:20Z</time>
      </trkpt>
      <trkpt lat="48.04025" lon="6.94926">
        <ele>1139</ele>
        <time>2010-10-29T10:35:26Z</time>
      </trkpt>
      <trkpt lat="48.04023" lon="6.9492">
        <ele>1139</ele>
        <time>2010-10-29T10:35:29Z</time>
      </trkpt>
      <trkpt lat="48.04016" lon="6.94912">
        <ele>1134</ele>
        <time>2010-10-29T10:35:34Z</time>
      </trkpt>
      <trkpt lat="48.04014" lon="6.94911">
        <ele>1134</ele>
        <time>2010-10-29T10:35:35Z</time>
      </trkpt>
      <trkpt lat="48.04012" lon="6.94909">
        <ele>1134</ele>
        <time>2010-10-29T10:35:37Z</time>
      </trkpt>
      <trkpt lat="48.04" lon="6.94904">
        <ele>1133</ele>
        <time>2010-10-29T10:35:42Z</time>
      </trkpt>
      <trkpt lat="48.03988" lon="6.94897">
        <ele>1133</ele>
        <time>2010-10-29T10:35:48Z</time>
      </trkpt>
      <trkpt lat="48.0397" lon="6.94888">
        <ele>1133</ele>
        <time>2010-10-29T10:35:55Z</time>
      </trkpt>
      <trkpt lat="48.0395" lon="6.94877">
        <ele>1133</ele>
        <time>2010-10-29T10:36:00Z</time>
      </trkpt>
      <trkpt lat="48.03941" lon="6.94872">
        <ele>1133</ele>
        <time>2010-10-29T10:36:03Z</time>
      </trkpt>
      <trkpt lat="48.03934" lon="6.94869">
        <ele>1133</ele>
        <time>2010-10-29T10:36:06Z</time>
      </trkpt>
      <trkpt lat="48.03928" lon="6.94866">
        <ele>1133</ele>
        <time>2010-10-29T10:36:09Z</time>
      </trkpt>
      <trkpt lat="48.0392" lon="6.9486">
        <ele>1133</ele>
        <time>2010-10-29T10:36:14Z</time>
      </trkpt>
      <trkpt lat="48.03918" lon="6.94857">
        <ele>1133</ele>
        <time>2010-10-29T10:36:18Z</time>
      </trkpt>
      <trkpt lat="48.03917" lon="6.94857">
        <ele>1141</ele>
        <time>2010-10-29T10:37:00Z</time>
      </trkpt>
      <trkpt lat="48.03913" lon="6.94844">
        <ele>1139</ele>
        <time>2010-10-29T10:37:05Z</time>
      </trkpt>
      <trkpt lat="48.0391" lon="6.94837">
        <ele>1137</ele>
        <time>2010-10-29T10:37:08Z</time>
      </trkpt>
      <trkpt lat="48.03911" lon="6.94826">
        <ele>1140</ele>
        <time>2010-10-29T10:37:12Z</time>
      </trkpt>
      <trkpt lat="48.0391" lon="6.94804">
        <ele>1146</ele>
        <time>2010-10-29T10:37:22Z</time>
      </trkpt>
      <trkpt lat="48.03909" lon="6.9479">
        <ele>1148</ele>
        <time>2010-10-29T10:37:28Z</time>
      </trkpt>
      <trkpt lat="48.03907" lon="6.94775">
        <ele>1148</ele>
        <time>2010-10-29T10:37:35Z</time>
      </trkpt>
      <trkpt lat="48.03906" lon="6.94758">
        <ele>1147</ele>
        <time>2010-10-29T10:37:42Z</time>
      </trkpt>
      <trkpt lat="48.03908" lon="6.94744">
        <ele>1149</ele>
        <time>2010-10-29T10:37:48Z</time>
      </trkpt>
      <trkpt lat="48.03913" lon="6.94729">
        <ele>1152</ele>
        <time>2010-10-29T10:37:56Z</time>
      </trkpt>
      <trkpt lat="48.03916" lon="6.9471">
        <ele>1154</ele>
        <time>2010-10-29T10:38:05Z</time>
      </trkpt>
      <trkpt lat="48.03917" lon="6.94697">
        <ele>1154</ele>
        <time>2010-10-29T10:38:12Z</time>
      </trkpt>
      <trkpt lat="48.03915" lon="6.94687">
        <ele>1153</ele>
        <time>2010-10-29T10:38:18Z</time>
      </trkpt>
      <trkpt lat="48.03911" lon="6.94677">
        <ele>1151</ele>
        <time>2010-10-29T10:38:24Z</time>
      </trkpt>
      <trkpt lat="48.03908" lon="6.94658">
        <ele>1152</ele>
        <time>2010-10-29T10:38:34Z</time>
      </trkpt>
      <trkpt lat="48.03904" lon="6.94645">
        <ele>1155</ele>
        <time>2010-10-29T10:38:42Z</time>
      </trkpt>
      <trkpt lat="48.03902" lon="6.94633">
        <ele>1156</ele>
        <time>2010-10-29T10:38:50Z</time>
      </trkpt>
      <trkpt lat="48.039" lon="6.94615">
        <ele>1156</ele>
        <time>2010-10-29T10:38:59Z</time>
      </trkpt>
      <trkpt lat="48.03899" lon="6.94602">
        <ele>1155</ele>
        <time>2010-10-29T10:39:06Z</time>
      </trkpt>
      <trkpt lat="48.03897" lon="6.94588">
        <ele>1154</ele>
        <time>2010-10-29T10:39:14Z</time>
      </trkpt>
      <trkpt lat="48.03891" lon="6.94568">
        <ele>1155</ele>
        <time>2010-10-29T10:39:24Z</time>
      </trkpt>
      <trkpt lat="48.03885" lon="6.94546">
        <ele>1157</ele>
        <time>2010-10-29T10:39:34Z</time>
      </trkpt>
      <trkpt lat="48.03885" lon="6.94527">
        <ele>1157</ele>
        <time>2010-10-29T10:39:43Z</time>
      </trkpt>
      <trkpt lat="48.03885" lon="6.94525">
        <ele>1157</ele>
        <time>2010-10-29T10:39:44Z</time>
      </trkpt>
      <trkpt lat="48.03884" lon="6.945">
        <ele>1157</ele>
        <time>2010-10-29T10:39:54Z</time>
      </trkpt>
      <trkpt lat="48.03885" lon="6.9448">
        <ele>1157</ele>
        <time>2010-10-29T10:40:03Z</time>
      </trkpt>
      <trkpt lat="48.03883" lon="6.94465">
        <ele>1158</ele>
        <time>2010-10-29T10:40:10Z</time>
      </trkpt>
      <trkpt lat="48.03879" lon="6.9445">
        <ele>1159</ele>
        <time>2010-10-29T10:40:18Z</time>
      </trkpt>
      <trkpt lat="48.03869" lon="6.94434">
        <ele>1160</ele>
        <time>2010-10-29T10:40:28Z</time>
      </trkpt>
      <trkpt lat="48.03862" lon="6.94422">
        <ele>1161</ele>
        <time>2010-10-29T10:40:35Z</time>
      </trkpt>
      <trkpt lat="48.03855" lon="6.94413">
        <ele>1161</ele>
        <time>2010-10-29T10:40:42Z</time>
      </trkpt>
      <trkpt lat="48.03846" lon="6.94407">
        <ele>1162</ele>
        <time>2010-10-29T10:40:49Z</time>
      </trkpt>
      <trkpt lat="48.03836" lon="6.94406">
        <ele>1164</ele>
        <time>2010-10-29T10:40:56Z</time>
      </trkpt>
      <trkpt lat="48.03822" lon="6.94403">
        <ele>1165</ele>
        <time>2010-10-29T10:41:06Z</time>
      </trkpt>
      <trkpt lat="48.03808" lon="6.94401">
        <ele>1164</ele>
        <time>2010-10-29T10:41:15Z</time>
      </trkpt>
      <trkpt lat="48.03796" lon="6.94401">
        <ele>1164</ele>
        <time>2010-10-29T10:41:23Z</time>
      </trkpt>
      <trkpt lat="48.03785" lon="6.94402">
        <ele>1164</ele>
        <time>2010-10-29T10:41:31Z</time>
      </trkpt>
      <trkpt lat="48.0377" lon="6.94404">
        <ele>1164</ele>
        <time>2010-10-29T10:41:41Z</time>
      </trkpt>
      <trkpt lat="48.03756" lon="6.9441">
        <ele>1166</ele>
        <time>2010-10-29T10:41:51Z</time>
      </trkpt>
      <trkpt lat="48.03753" lon="6.94411">
        <ele>1166</ele>
        <time>2010-10-29T10:41:53Z</time>
      </trkpt>
      <trkpt lat="48.03746" lon="6.94417">
        <ele>1167</ele>
        <time>2010-10-29T10:42:00Z</time>
      </trkpt>
      <trkpt lat="48.03737" lon="6.94423">
        <ele>1167</ele>
        <time>2010-10-29T10:42:08Z</time>
      </trkpt>
      <trkpt lat="48.03727" lon="6.94431">
        <ele>1167</ele>
        <time>2010-10-29T10:42:16Z</time>
      </trkpt>
      <trkpt lat="48.03716" lon="6.9444">
        <ele>1167</ele>
        <time>2010-10-29T10:42:25Z</time>
      </trkpt>
      <trkpt lat="48.03703" lon="6.94449">
        <ele>1167</ele>
        <time>2010-10-29T10:42:33Z</time>
      </trkpt>
      <trkpt lat="48.03693" lon="6.94457">
        <ele>1167</ele>
        <time>2010-10-29T10:42:41Z</time>
      </trkpt>
      <trkpt lat="48.03678" lon="6.94467">
        <ele>1166</ele>
        <time>2010-10-29T10:42:51Z</time>
      </trkpt>
      <trkpt lat="48.03666" lon="6.94477">
        <ele>1164</ele>
        <time>2010-10-29T10:42:59Z</time>
      </trkpt>
      <trkpt lat="48.03654" lon="6.94488">
        <ele>1164</ele>
        <time>2010-10-29T10:43:07Z</time>
      </trkpt>
      <trkpt lat="48.03643" lon="6.94497">
        <ele>1164</ele>
        <time>2010-10-29T10:43:15Z</time>
      </trkpt>
      <trkpt lat="48.03632" lon="6.94505">
        <ele>1168</ele>
        <time>2010-10-29T10:43:22Z</time>
      </trkpt>
      <trkpt lat="48.03622" lon="6.9451">
        <ele>1167</ele>
        <time>2010-10-29T10:43:28Z</time>
      </trkpt>
      <trkpt lat="48.03605" lon="6.94514">
        <ele>1167</ele>
        <time>2010-10-29T10:43:37Z</time>
      </trkpt>
      <trkpt lat="48.03598" lon="6.94511">
        <ele>1166</ele>
        <time>2010-10-29T10:43:43Z</time>
      </trkpt>
      <trkpt lat="48.03598" lon="6.94514">
        <ele>1166</ele>
        <time>2010-10-29T10:44:34Z</time>
      </trkpt>
      <trkpt lat="48.03598" lon="6.94511">
        <ele>1166</ele>
        <time>2010-10-29T10:44:36Z</time>
      </trkpt>
      <trkpt lat="48.03599" lon="6.94503">
        <ele>1166</ele>
        <time>2010-10-29T10:44:41Z</time>
      </trkpt>
      <trkpt lat="48.036" lon="6.94496">
        <ele>1163</ele>
        <time>2010-10-29T10:44:46Z</time>
      </trkpt>
      <trkpt lat="48.03598" lon="6.9449">
        <ele>1163</ele>
        <time>2010-10-29T10:44:53Z</time>
      </trkpt>
      <trkpt lat="48.03604" lon="6.94495">
        <ele>1163</ele>
        <time>2010-10-29T10:45:30Z</time>
      </trkpt>
      <trkpt lat="48.03603" lon="6.94489">
        <ele>1163</ele>
        <time>2010-10-29T10:45:34Z</time>
      </trkpt>
      <trkpt lat="48.03603" lon="6.94484">
        <ele>1163</ele>
        <time>2010-10-29T10:45:37Z</time>
      </trkpt>
      <trkpt lat="48.03601" lon="6.94476">
        <ele>1163</ele>
        <time>2010-10-29T10:45:42Z</time>
      </trkpt>
      <trkpt lat="48.03601" lon="6.94467">
        <ele>1163</ele>
        <time>2010-10-29T10:45:49Z</time>
      </trkpt>
      <trkpt lat="48.03601" lon="6.94465">
        <ele>1163</ele>
        <time>2010-10-29T10:45:54Z</time>
      </trkpt>
      <trkpt lat="48.036" lon="6.94459">
        <ele>1163</ele>
        <time>2010-10-29T10:45:58Z</time>
      </trkpt>
      <trkpt lat="48.036" lon="6.94454">
        <ele>1163</ele>
        <time>2010-10-29T10:46:03Z</time>
      </trkpt>
      <trkpt lat="48.03597" lon="6.94453">
        <ele>1163</ele>
        <time>2010-10-29T10:46:16Z</time>
      </trkpt>
      <trkpt lat="48.03596" lon="6.94451">
        <ele>1163</ele>
        <time>2010-10-29T10:46:17Z</time>
      </trkpt>
      <trkpt lat="48.03589" lon="6.94451">
        <ele>1163</ele>
        <time>2010-10-29T10:46:24Z</time>
      </trkpt>
      <trkpt lat="48.03587" lon="6.94451">
        <ele>1163</ele>
        <time>2010-10-29T10:46:26Z</time>
      </trkpt>
      <trkpt lat="48.0358" lon="6.94448">
        <ele>1163</ele>
        <time>2010-10-29T10:46:34Z</time>
      </trkpt>
      <trkpt lat="48.03577" lon="6.94447">
        <ele>1163</ele>
        <time>2010-10-29T10:46:41Z</time>
      </trkpt>
      <trkpt lat="48.03577" lon="6.94447">
        <ele>1163</ele>
        <time>2010-10-29T10:46:42Z</time>
      </trkpt>
      <trkpt lat="48.03581" lon="6.94439">
        <ele>1163</ele>
        <time>2010-10-29T11:03:45Z</time>
      </trkpt>
      <trkpt lat="48.03582" lon="6.9444">
        <ele>1163</ele>
        <time>2010-10-29T11:03:48Z</time>
      </trkpt>
      <trkpt lat="48.03587" lon="6.94443">
        <ele>1163</ele>
        <time>2010-10-29T11:03:56Z</time>
      </trkpt>
      <trkpt lat="48.03588" lon="6.94443">
        <ele>1163</ele>
        <time>2010-10-29T11:03:58Z</time>
      </trkpt>
      <trkpt lat="48.03588" lon="6.94444">
        <ele>1163</ele>
        <time>2010-10-29T11:03:59Z</time>
      </trkpt>
      <trkpt lat="48.03593" lon="6.94445">
        <ele>1163</ele>
        <time>2010-10-29T11:04:07Z</time>
      </trkpt>
      <trkpt lat="48.03597" lon="6.94446">
        <ele>1163</ele>
        <time>2010-10-29T11:04:12Z</time>
      </trkpt>
      <trkpt lat="48.03599" lon="6.94448">
        <ele>1163</ele>
        <time>2010-10-29T11:05:14Z</time>
      </trkpt>
      <trkpt lat="48.03597" lon="6.94453">
        <ele>1163</ele>
        <time>2010-10-29T11:05:18Z</time>
      </trkpt>
      <trkpt lat="48.03597" lon="6.94459">
        <ele>1163</ele>
        <time>2010-10-29T11:05:25Z</time>
      </trkpt>
      <trkpt lat="48.03597" lon="6.94464">
        <ele>1163</ele>
        <time>2010-10-29T11:05:28Z</time>
      </trkpt>
      <trkpt lat="48.03598" lon="6.94477">
        <ele>1163</ele>
        <time>2010-10-29T11:05:37Z</time>
      </trkpt>
      <trkpt lat="48.03598" lon="6.94484">
        <ele>1163</ele>
        <time>2010-10-29T11:05:44Z</time>
      </trkpt>
      <trkpt lat="48.03597" lon="6.9449">
        <ele>1163</ele>
        <time>2010-10-29T11:05:50Z</time>
      </trkpt>
      <trkpt lat="48.03593" lon="6.94497">
        <ele>1163</ele>
        <time>2010-10-29T11:05:56Z</time>
      </trkpt>
      <trkpt lat="48.03595" lon="6.94505">
        <ele>1165</ele>
        <time>2010-10-29T11:06:03Z</time>
      </trkpt>
      <trkpt lat="48.03594" lon="6.94514">
        <ele>1166</ele>
        <time>2010-10-29T11:06:10Z</time>
      </trkpt>
      <trkpt lat="48.03593" lon="6.94514">
        <ele>1166</ele>
        <time>2010-10-29T11:06:11Z</time>
      </trkpt>
      <trkpt lat="48.03584" lon="6.94519">
        <ele>1166</ele>
        <time>2010-10-29T11:06:20Z</time>
      </trkpt>
      <trkpt lat="48.03575" lon="6.94527">
        <ele>1166</ele>
        <time>2010-10-29T11:06:31Z</time>
      </trkpt>
      <trkpt lat="48.03566" lon="6.94536">
        <ele>1167</ele>
        <time>2010-10-29T11:06:41Z</time>
      </trkpt>
      <trkpt lat="48.03555" lon="6.94546">
        <ele>1167</ele>
        <time>2010-10-29T11:06:53Z</time>
      </trkpt>
      <trkpt lat="48.03552" lon="6.94548">
        <ele>1167</ele>
        <time>2010-10-29T11:06:56Z</time>
      </trkpt>
      <trkpt lat="48.03545" lon="6.94555">
        <ele>1168</ele>
        <time>2010-10-29T11:07:05Z</time>
      </trkpt>
      <trkpt lat="48.03538" lon="6.94559">
        <ele>1168</ele>
        <time>2010-10-29T11:07:14Z</time>
      </trkpt>
      <trkpt lat="48.03538" lon="6.94559">
        <ele>1168</ele>
        <time>2010-10-29T11:07:15Z</time>
      </trkpt>
      <trkpt lat="48.03537" lon="6.94563">
        <ele>1168</ele>
        <time>2010-10-29T11:08:21Z</time>
      </trkpt>
      <trkpt lat="48.03533" lon="6.94565">
        <ele>1168</ele>
        <time>2010-10-29T11:08:24Z</time>
      </trkpt>
      <trkpt lat="48.03522" lon="6.94573">
        <ele>1169</ele>
        <time>2010-10-29T11:08:36Z</time>
      </trkpt>
      <trkpt lat="48.03513" lon="6.9458">
        <ele>1169</ele>
        <time>2010-10-29T11:08:46Z</time>
      </trkpt>
      <trkpt lat="48.03505" lon="6.94586">
        <ele>1172</ele>
        <time>2010-10-29T11:08:56Z</time>
      </trkpt>
      <trkpt lat="48.03498" lon="6.94591">
        <ele>1172</ele>
        <time>2010-10-29T11:09:05Z</time>
      </trkpt>
      <trkpt lat="48.03494" lon="6.94593">
        <ele>1173</ele>
        <time>2010-10-29T11:09:10Z</time>
      </trkpt>
      <trkpt lat="48.03491" lon="6.94593">
        <ele>1173</ele>
        <time>2010-10-29T11:09:13Z</time>
      </trkpt>
      <trkpt lat="48.03482" lon="6.94597">
        <ele>1173</ele>
        <time>2010-10-29T11:09:23Z</time>
      </trkpt>
      <trkpt lat="48.03474" lon="6.94601">
        <ele>1174</ele>
        <time>2010-10-29T11:09:32Z</time>
      </trkpt>
      <trkpt lat="48.03473" lon="6.94603">
        <ele>1174</ele>
        <time>2010-10-29T11:09:34Z</time>
      </trkpt>
      <trkpt lat="48.03473" lon="6.94604">
        <ele>1174</ele>
        <time>2010-10-29T11:09:35Z</time>
      </trkpt>
      <trkpt lat="48.0347" lon="6.94614">
        <ele>1174</ele>
        <time>2010-10-29T11:09:43Z</time>
      </trkpt>
      <trkpt lat="48.03469" lon="6.94624">
        <ele>1175</ele>
        <time>2010-10-29T11:09:51Z</time>
      </trkpt>
      <trkpt lat="48.03469" lon="6.94633">
        <ele>1175</ele>
        <time>2010-10-29T11:09:58Z</time>
      </trkpt>
      <trkpt lat="48.03469" lon="6.9465">
        <ele>1175</ele>
        <time>2010-10-29T11:10:10Z</time>
      </trkpt>
      <trkpt lat="48.03469" lon="6.94662">
        <ele>1176</ele>
        <time>2010-10-29T11:10:19Z</time>
      </trkpt>
      <trkpt lat="48.03468" lon="6.94669">
        <ele>1176</ele>
        <time>2010-10-29T11:10:24Z</time>
      </trkpt>
      <trkpt lat="48.0347" lon="6.94678">
        <ele>1176</ele>
        <time>2010-10-29T11:10:32Z</time>
      </trkpt>
      <trkpt lat="48.03469" lon="6.94684">
        <ele>1176</ele>
        <time>2010-10-29T11:10:38Z</time>
      </trkpt>
      <trkpt lat="48.03466" lon="6.94686">
        <ele>1176</ele>
        <time>2010-10-29T11:10:44Z</time>
      </trkpt>
      <trkpt lat="48.03466" lon="6.94686">
        <ele>1176</ele>
        <time>2010-10-29T11:10:51Z</time>
      </trkpt>
      <trkpt lat="48.03465" lon="6.94686">
        <ele>1176</ele>
        <time>2010-10-29T11:10:53Z</time>
      </trkpt>
      <trkpt lat="48.03465" lon="6.94686">
        <ele>1176</ele>
        <time>2010-10-29T11:10:56Z</time>
      </trkpt>
      <trkpt lat="48.03452" lon="6.94678">
        <ele>1175</ele>
        <time>2010-10-29T11:11:02Z</time>
      </trkpt>
      <trkpt lat="48.03446" lon="6.94674">
        <ele>1175</ele>
        <time>2010-10-29T11:11:04Z</time>
      </trkpt>
      <trkpt lat="48.03428" lon="6.94668">
        <ele>1175</ele>
        <time>2010-10-29T11:11:10Z</time>
      </trkpt>
      <trkpt lat="48.03425" lon="6.94668">
        <ele>1175</ele>
        <time>2010-10-29T11:11:11Z</time>
      </trkpt>
      <trkpt lat="48.0342" lon="6.94669">
        <ele>1175</ele>
        <time>2010-10-29T11:11:13Z</time>
      </trkpt>
      <trkpt lat="48.03399" lon="6.94673">
        <ele>1171</ele>
        <time>2010-10-29T11:11:22Z</time>
      </trkpt>
      <trkpt lat="48.03382" lon="6.94672">
        <ele>1170</ele>
        <time>2010-10-29T11:11:30Z</time>
      </trkpt>
      <trkpt lat="48.03367" lon="6.94669">
        <ele>1171</ele>
        <time>2010-10-29T11:11:38Z</time>
      </trkpt>
      <trkpt lat="48.03351" lon="6.94672">
        <ele>1172</ele>
        <time>2010-10-29T11:11:46Z</time>
      </trkpt>
      <trkpt lat="48.03333" lon="6.9467">
        <ele>1174</ele>
        <time>2010-10-29T11:11:53Z</time>
      </trkpt>
      <trkpt lat="48.03318" lon="6.94668">
        <ele>1169</ele>
        <time>2010-10-29T11:12:00Z</time>
      </trkpt>
      <trkpt lat="48.03305" lon="6.94671">
        <ele>1166</ele>
        <time>2010-10-29T11:12:07Z</time>
      </trkpt>
      <trkpt lat="48.03296" lon="6.94674">
        <ele>1164</ele>
        <time>2010-10-29T11:12:14Z</time>
      </trkpt>
      <trkpt lat="48.03296" lon="6.94674">
        <ele>1164</ele>
        <time>2010-10-29T11:12:15Z</time>
      </trkpt>
      <trkpt lat="48.03296" lon="6.94673">
        <ele>1164</ele>
        <time>2010-10-29T11:12:45Z</time>
      </trkpt>
      <trkpt lat="48.03292" lon="6.94675">
        <ele>1164</ele>
        <time>2010-10-29T11:12:50Z</time>
      </trkpt>
      <trkpt lat="48.03292" lon="6.94675">
        <ele>1164</ele>
        <time>2010-10-29T11:12:51Z</time>
      </trkpt>
      <trkpt lat="48.03292" lon="6.94675">
        <ele>1164</ele>
        <time>2010-10-29T11:12:59Z</time>
      </trkpt>
      <trkpt lat="48.03291" lon="6.94666">
        <ele>1174</ele>
        <time>2010-10-29T11:13:03Z</time>
      </trkpt>
      <trkpt lat="48.03294" lon="6.94662">
        <ele>1174</ele>
        <time>2010-10-29T11:13:07Z</time>
      </trkpt>
      <trkpt lat="48.03296" lon="6.94661">
        <ele>1174</ele>
        <time>2010-10-29T11:13:11Z</time>
      </trkpt>
      <trkpt lat="48.03295" lon="6.94662">
        <ele>1174</ele>
        <time>2010-10-29T11:13:15Z</time>
      </trkpt>
      <trkpt lat="48.03294" lon="6.9466">
        <ele>1174</ele>
        <time>2010-10-29T11:13:19Z</time>
      </trkpt>
      <trkpt lat="48.03293" lon="6.9466">
        <ele>1174</ele>
        <time>2010-10-29T11:13:21Z</time>
      </trkpt>
      <trkpt lat="48.03293" lon="6.94661">
        <ele>1174</ele>
        <time>2010-10-29T11:20:32Z</time>
      </trkpt>
      <trkpt lat="48.03292" lon="6.94661">
        <ele>1174</ele>
        <time>2010-10-29T11:20:33Z</time>
      </trkpt>
      <trkpt lat="48.03292" lon="6.94661">
        <ele>1174</ele>
        <time>2010-10-29T11:20:37Z</time>
      </trkpt>
      <trkpt lat="48.03285" lon="6.94656">
        <ele>1173</ele>
        <time>2010-10-29T11:20:41Z</time>
      </trkpt>
      <trkpt lat="48.03273" lon="6.94647">
        <ele>1173</ele>
        <time>2010-10-29T11:20:46Z</time>
      </trkpt>
      <trkpt lat="48.03255" lon="6.9463">
        <ele>1173</ele>
        <time>2010-10-29T11:20:52Z</time>
      </trkpt>
      <trkpt lat="48.03238" lon="6.94617">
        <ele>1171</ele>
        <time>2010-10-29T11:20:59Z</time>
      </trkpt>
      <trkpt lat="48.03205" lon="6.94593">
        <ele>1172</ele>
        <time>2010-10-29T11:21:08Z</time>
      </trkpt>
      <trkpt lat="48.03191" lon="6.94579">
        <ele>1174</ele>
        <time>2010-10-29T11:21:12Z</time>
      </trkpt>
      <trkpt lat="48.03165" lon="6.94564">
        <ele>1173</ele>
        <time>2010-10-29T11:21:21Z</time>
      </trkpt>
      <trkpt lat="48.03152" lon="6.94558">
        <ele>1172</ele>
        <time>2010-10-29T11:21:26Z</time>
      </trkpt>
      <trkpt lat="48.03149" lon="6.9455">
        <ele>1172</ele>
        <time>2010-10-29T11:21:31Z</time>
      </trkpt>
      <trkpt lat="48.03149" lon="6.9455">
        <ele>1172</ele>
        <time>2010-10-29T11:21:32Z</time>
      </trkpt>
      <trkpt lat="48.03146" lon="6.94548">
        <ele>1172</ele>
        <time>2010-10-29T11:22:45Z</time>
      </trkpt>
      <trkpt lat="48.03137" lon="6.94547">
        <ele>1171</ele>
        <time>2010-10-29T11:22:49Z</time>
      </trkpt>
      <trkpt lat="48.03127" lon="6.94554">
        <ele>1171</ele>
        <time>2010-10-29T11:22:54Z</time>
      </trkpt>
      <trkpt lat="48.03125" lon="6.94555">
        <ele>1171</ele>
        <time>2010-10-29T11:22:55Z</time>
      </trkpt>
      <trkpt lat="48.03115" lon="6.9456">
        <ele>1171</ele>
        <time>2010-10-29T11:22:59Z</time>
      </trkpt>
      <trkpt lat="48.03111" lon="6.94559">
        <ele>1171</ele>
        <time>2010-10-29T11:23:00Z</time>
      </trkpt>
      <trkpt lat="48.03094" lon="6.94534">
        <ele>1171</ele>
        <time>2010-10-29T11:23:06Z</time>
      </trkpt>
      <trkpt lat="48.03079" lon="6.94516">
        <ele>1168</ele>
        <time>2010-10-29T11:23:12Z</time>
      </trkpt>
      <trkpt lat="48.03064" lon="6.94496">
        <ele>1171</ele>
        <time>2010-10-29T11:23:18Z</time>
      </trkpt>
      <trkpt lat="48.03059" lon="6.9449">
        <ele>1170</ele>
        <time>2010-10-29T11:23:20Z</time>
      </trkpt>
      <trkpt lat="48.03042" lon="6.94471">
        <ele>1169</ele>
        <time>2010-10-29T11:23:26Z</time>
      </trkpt>
      <trkpt lat="48.03033" lon="6.94462">
        <ele>1168</ele>
        <time>2010-10-29T11:23:30Z</time>
      </trkpt>
      <trkpt lat="48.03022" lon="6.94453">
        <ele>1168</ele>
        <time>2010-10-29T11:23:34Z</time>
      </trkpt>
      <trkpt lat="48.02999" lon="6.94431">
        <ele>1159</ele>
        <time>2010-10-29T11:23:41Z</time>
      </trkpt>
      <trkpt lat="48.02984" lon="6.94411">
        <ele>1161</ele>
        <time>2010-10-29T11:23:47Z</time>
      </trkpt>
      <trkpt lat="48.02973" lon="6.944">
        <ele>1159</ele>
        <time>2010-10-29T11:23:51Z</time>
      </trkpt>
      <trkpt lat="48.02956" lon="6.94383">
        <ele>1156</ele>
        <time>2010-10-29T11:23:57Z</time>
      </trkpt>
      <trkpt lat="48.02945" lon="6.94374">
        <ele>1156</ele>
        <time>2010-10-29T11:24:02Z</time>
      </trkpt>
      <trkpt lat="48.0294" lon="6.9437">
        <ele>1155</ele>
        <time>2010-10-29T11:24:04Z</time>
      </trkpt>
      <trkpt lat="48.02929" lon="6.94356">
        <ele>1155</ele>
        <time>2010-10-29T11:24:09Z</time>
      </trkpt>
      <trkpt lat="48.02921" lon="6.94348">
        <ele>1154</ele>
        <time>2010-10-29T11:24:13Z</time>
      </trkpt>
      <trkpt lat="48.02912" lon="6.94339">
        <ele>1146</ele>
        <time>2010-10-29T11:24:17Z</time>
      </trkpt>
      <trkpt lat="48.029" lon="6.94326">
        <ele>1146</ele>
        <time>2010-10-29T11:24:22Z</time>
      </trkpt>
      <trkpt lat="48.02888" lon="6.94314">
        <ele>1143</ele>
        <time>2010-10-29T11:24:27Z</time>
      </trkpt>
      <trkpt lat="48.02876" lon="6.94304">
        <ele>1141</ele>
        <time>2010-10-29T11:24:32Z</time>
      </trkpt>
      <trkpt lat="48.0286" lon="6.9429">
        <ele>1140</ele>
        <time>2010-10-29T11:24:37Z</time>
      </trkpt>
      <trkpt lat="48.02844" lon="6.94272">
        <ele>1139</ele>
        <time>2010-10-29T11:24:43Z</time>
      </trkpt>
      <trkpt lat="48.02829" lon="6.94256">
        <ele>1133</ele>
        <time>2010-10-29T11:24:48Z</time>
      </trkpt>
      <trkpt lat="48.02813" lon="6.9424">
        <ele>1134</ele>
        <time>2010-10-29T11:24:52Z</time>
      </trkpt>
      <trkpt lat="48.02809" lon="6.94236">
        <ele>1134</ele>
        <time>2010-10-29T11:24:53Z</time>
      </trkpt>
      <trkpt lat="48.02794" lon="6.94218">
        <ele>1133</ele>
        <time>2010-10-29T11:24:58Z</time>
      </trkpt>
      <trkpt lat="48.02783" lon="6.94208">
        <ele>1134</ele>
        <time>2010-10-29T11:25:04Z</time>
      </trkpt>
      <trkpt lat="48.02767" lon="6.94195">
        <ele>1134</ele>
        <time>2010-10-29T11:25:13Z</time>
      </trkpt>
      <trkpt lat="48.02764" lon="6.94191">
        <ele>1135</ele>
        <time>2010-10-29T11:25:15Z</time>
      </trkpt>
      <trkpt lat="48.02752" lon="6.94178">
        <ele>1137</ele>
        <time>2010-10-29T11:25:23Z</time>
      </trkpt>
      <trkpt lat="48.02743" lon="6.94169">
        <ele>1136</ele>
        <time>2010-10-29T11:25:30Z</time>
      </trkpt>
      <trkpt lat="48.02738" lon="6.94164">
        <ele>1139</ele>
        <time>2010-10-29T11:25:35Z</time>
      </trkpt>
      <trkpt lat="48.02732" lon="6.94157">
        <ele>1139</ele>
        <time>2010-10-29T11:25:42Z</time>
      </trkpt>
      <trkpt lat="48.02724" lon="6.94148">
        <ele>1140</ele>
        <time>2010-10-29T11:25:48Z</time>
      </trkpt>
      <trkpt lat="48.02716" lon="6.94139">
        <ele>1140</ele>
        <time>2010-10-29T11:25:54Z</time>
      </trkpt>
      <trkpt lat="48.02706" lon="6.94129">
        <ele>1140</ele>
        <time>2010-10-29T11:26:02Z</time>
      </trkpt>
      <trkpt lat="48.02691" lon="6.94114">
        <ele>1141</ele>
        <time>2010-10-29T11:26:13Z</time>
      </trkpt>
      <trkpt lat="48.02682" lon="6.94106">
        <ele>1143</ele>
        <time>2010-10-29T11:26:21Z</time>
      </trkpt>
      <trkpt lat="48.02676" lon="6.94098">
        <ele>1144</ele>
        <time>2010-10-29T11:26:27Z</time>
      </trkpt>
      <trkpt lat="48.02666" lon="6.9409">
        <ele>1148</ele>
        <time>2010-10-29T11:26:35Z</time>
      </trkpt>
      <trkpt lat="48.02665" lon="6.94089">
        <ele>1148</ele>
        <time>2010-10-29T11:26:36Z</time>
      </trkpt>
      <trkpt lat="48.02657" lon="6.94081">
        <ele>1150</ele>
        <time>2010-10-29T11:26:45Z</time>
      </trkpt>
      <trkpt lat="48.02649" lon="6.94071">
        <ele>1151</ele>
        <time>2010-10-29T11:26:53Z</time>
      </trkpt>
      <trkpt lat="48.0264" lon="6.94061">
        <ele>1152</ele>
        <time>2010-10-29T11:27:02Z</time>
      </trkpt>
      <trkpt lat="48.02632" lon="6.94053">
        <ele>1152</ele>
        <time>2010-10-29T11:27:09Z</time>
      </trkpt>
      <trkpt lat="48.02622" lon="6.94044">
        <ele>1153</ele>
        <time>2010-10-29T11:27:17Z</time>
      </trkpt>
      <trkpt lat="48.02614" lon="6.94036">
        <ele>1153</ele>
        <time>2010-10-29T11:27:25Z</time>
      </trkpt>
      <trkpt lat="48.02606" lon="6.94028">
        <ele>1154</ele>
        <time>2010-10-29T11:27:32Z</time>
      </trkpt>
      <trkpt lat="48.02597" lon="6.94019">
        <ele>1154</ele>
        <time>2010-10-29T11:27:39Z</time>
      </trkpt>
      <trkpt lat="48.02588" lon="6.9401">
        <ele>1155</ele>
        <time>2010-10-29T11:27:46Z</time>
      </trkpt>
      <trkpt lat="48.02579" lon="6.94">
        <ele>1157</ele>
        <time>2010-10-29T11:27:52Z</time>
      </trkpt>
      <trkpt lat="48.02566" lon="6.93986">
        <ele>1156</ele>
        <time>2010-10-29T11:27:58Z</time>
      </trkpt>
      <trkpt lat="48.02557" lon="6.93977">
        <ele>1156</ele>
        <time>2010-10-29T11:28:03Z</time>
      </trkpt>
      <trkpt lat="48.02543" lon="6.93963">
        <ele>1156</ele>
        <time>2010-10-29T11:28:08Z</time>
      </trkpt>
      <trkpt lat="48.02528" lon="6.93951">
        <ele>1156</ele>
        <time>2010-10-29T11:28:13Z</time>
      </trkpt>
      <trkpt lat="48.02517" lon="6.93945">
        <ele>1156</ele>
        <time>2010-10-29T11:28:17Z</time>
      </trkpt>
      <trkpt lat="48.02508" lon="6.93937">
        <ele>1156</ele>
        <time>2010-10-29T11:28:19Z</time>
      </trkpt>
      <trkpt lat="48.02482" lon="6.93916">
        <ele>1154</ele>
        <time>2010-10-29T11:28:25Z</time>
      </trkpt>
      <trkpt lat="48.0246" lon="6.93898">
        <ele>1152</ele>
        <time>2010-10-29T11:28:31Z</time>
      </trkpt>
      <trkpt lat="48.02443" lon="6.93886">
        <ele>1151</ele>
        <time>2010-10-29T11:28:36Z</time>
      </trkpt>
      <trkpt lat="48.02425" lon="6.93874">
        <ele>1151</ele>
        <time>2010-10-29T11:28:41Z</time>
      </trkpt>
      <trkpt lat="48.02418" lon="6.93866">
        <ele>1151</ele>
        <time>2010-10-29T11:28:44Z</time>
      </trkpt>
      <trkpt lat="48.02405" lon="6.93844">
        <ele>1148</ele>
        <time>2010-10-29T11:28:49Z</time>
      </trkpt>
      <trkpt lat="48.0239" lon="6.93823">
        <ele>1145</ele>
        <time>2010-10-29T11:28:54Z</time>
      </trkpt>
      <trkpt lat="48.02376" lon="6.93805">
        <ele>1144</ele>
        <time>2010-10-29T11:28:59Z</time>
      </trkpt>
      <trkpt lat="48.02365" lon="6.93789">
        <ele>1143</ele>
        <time>2010-10-29T11:29:04Z</time>
      </trkpt>
      <trkpt lat="48.02356" lon="6.93776">
        <ele>1143</ele>
        <time>2010-10-29T11:29:08Z</time>
      </trkpt>
      <trkpt lat="48.02345" lon="6.93759">
        <ele>1142</ele>
        <time>2010-10-29T11:29:14Z</time>
      </trkpt>
      <trkpt lat="48.02336" lon="6.93746">
        <ele>1140</ele>
        <time>2010-10-29T11:29:18Z</time>
      </trkpt>
      <trkpt lat="48.02326" lon="6.93735">
        <ele>1137</ele>
        <time>2010-10-29T11:29:22Z</time>
      </trkpt>
      <trkpt lat="48.02315" lon="6.93717">
        <ele>1135</ele>
        <time>2010-10-29T11:29:26Z</time>
      </trkpt>
      <trkpt lat="48.023" lon="6.93696">
        <ele>1134</ele>
        <time>2010-10-29T11:29:31Z</time>
      </trkpt>
      <trkpt lat="48.02282" lon="6.93669">
        <ele>1133</ele>
        <time>2010-10-29T11:29:36Z</time>
      </trkpt>
      <trkpt lat="48.02272" lon="6.93654">
        <ele>1131</ele>
        <time>2010-10-29T11:29:39Z</time>
      </trkpt>
      <trkpt lat="48.02262" lon="6.93638">
        <ele>1131</ele>
        <time>2010-10-29T11:29:42Z</time>
      </trkpt>
      <trkpt lat="48.02249" lon="6.93614">
        <ele>1126</ele>
        <time>2010-10-29T11:29:47Z</time>
      </trkpt>
      <trkpt lat="48.02248" lon="6.93611">
        <ele>1126</ele>
        <time>2010-10-29T11:29:48Z</time>
      </trkpt>
      <trkpt lat="48.02239" lon="6.93604">
        <ele>1126</ele>
        <time>2010-10-29T11:29:56Z</time>
      </trkpt>
      <trkpt lat="48.02231" lon="6.93592">
        <ele>1127</ele>
        <time>2010-10-29T11:30:04Z</time>
      </trkpt>
      <trkpt lat="48.0223" lon="6.93591">
        <ele>1126</ele>
        <time>2010-10-29T11:30:05Z</time>
      </trkpt>
      <trkpt lat="48.02221" lon="6.9358">
        <ele>1129</ele>
        <time>2010-10-29T11:30:15Z</time>
      </trkpt>
      <trkpt lat="48.02217" lon="6.93571">
        <ele>1129</ele>
        <time>2010-10-29T11:30:20Z</time>
      </trkpt>
      <trkpt lat="48.02206" lon="6.93556">
        <ele>1129</ele>
        <time>2010-10-29T11:30:28Z</time>
      </trkpt>
      <trkpt lat="48.02201" lon="6.93548">
        <ele>1129</ele>
        <time>2010-10-29T11:30:33Z</time>
      </trkpt>
      <trkpt lat="48.02193" lon="6.93536">
        <ele>1129</ele>
        <time>2010-10-29T11:30:40Z</time>
      </trkpt>
      <trkpt lat="48.02192" lon="6.93533">
        <ele>1129</ele>
        <time>2010-10-29T11:30:42Z</time>
      </trkpt>
      <trkpt lat="48.02188" lon="6.93526">
        <ele>1130</ele>
        <time>2010-10-29T11:31:19Z</time>
      </trkpt>
      <trkpt lat="48.02181" lon="6.93518">
        <ele>1130</ele>
        <time>2010-10-29T11:31:24Z</time>
      </trkpt>
      <trkpt lat="48.02174" lon="6.93505">
        <ele>1131</ele>
        <time>2010-10-29T11:31:31Z</time>
      </trkpt>
      <trkpt lat="48.02168" lon="6.93494">
        <ele>1133</ele>
        <time>2010-10-29T11:31:36Z</time>
      </trkpt>
      <trkpt lat="48.02162" lon="6.93484">
        <ele>1131</ele>
        <time>2010-10-29T11:31:41Z</time>
      </trkpt>
      <trkpt lat="48.02156" lon="6.93473">
        <ele>1131</ele>
        <time>2010-10-29T11:31:46Z</time>
      </trkpt>
      <trkpt lat="48.02154" lon="6.93469">
        <ele>1131</ele>
        <time>2010-10-29T11:31:48Z</time>
      </trkpt>
      <trkpt lat="48.02148" lon="6.93462">
        <ele>1131</ele>
        <time>2010-10-29T11:31:53Z</time>
      </trkpt>
      <trkpt lat="48.02139" lon="6.9344">
        <ele>1132</ele>
        <time>2010-10-29T11:32:01Z</time>
      </trkpt>
      <trkpt lat="48.02131" lon="6.93427">
        <ele>1132</ele>
        <time>2010-10-29T11:32:06Z</time>
      </trkpt>
      <trkpt lat="48.02122" lon="6.9341">
        <ele>1137</ele>
        <time>2010-10-29T11:32:13Z</time>
      </trkpt>
      <trkpt lat="48.02112" lon="6.93398">
        <ele>1137</ele>
        <time>2010-10-29T11:32:19Z</time>
      </trkpt>
      <trkpt lat="48.02096" lon="6.93384">
        <ele>1137</ele>
        <time>2010-10-29T11:32:27Z</time>
      </trkpt>
      <trkpt lat="48.02079" lon="6.93371">
        <ele>1132</ele>
        <time>2010-10-29T11:32:34Z</time>
      </trkpt>
      <trkpt lat="48.02065" lon="6.93361">
        <ele>1132</ele>
        <time>2010-10-29T11:32:40Z</time>
      </trkpt>
      <trkpt lat="48.0205" lon="6.93353">
        <ele>1131</ele>
        <time>2010-10-29T11:32:46Z</time>
      </trkpt>
      <trkpt lat="48.02032" lon="6.93341">
        <ele>1130</ele>
        <time>2010-10-29T11:32:53Z</time>
      </trkpt>
      <trkpt lat="48.02016" lon="6.93329">
        <ele>1130</ele>
        <time>2010-10-29T11:32:58Z</time>
      </trkpt>
      <trkpt lat="48.02013" lon="6.93327">
        <ele>1129</ele>
        <time>2010-10-29T11:32:59Z</time>
      </trkpt>
      <trkpt lat="48.02006" lon="6.93324">
        <ele>1129</ele>
        <time>2010-10-29T11:33:01Z</time>
      </trkpt>
      <trkpt lat="48.01987" lon="6.93308">
        <ele>1122</ele>
        <time>2010-10-29T11:33:06Z</time>
      </trkpt>
      <trkpt lat="48.01969" lon="6.9329">
        <ele>1120</ele>
        <time>2010-10-29T11:33:12Z</time>
      </trkpt>
      <trkpt lat="48.01957" lon="6.93277">
        <ele>1119</ele>
        <time>2010-10-29T11:33:16Z</time>
      </trkpt>
      <trkpt lat="48.01941" lon="6.93271">
        <ele>1118</ele>
        <time>2010-10-29T11:33:20Z</time>
      </trkpt>
      <trkpt lat="48.01916" lon="6.93264">
        <ele>1113</ele>
        <time>2010-10-29T11:33:27Z</time>
      </trkpt>
      <trkpt lat="48.019" lon="6.93259">
        <ele>1112</ele>
        <time>2010-10-29T11:33:32Z</time>
      </trkpt>
      <trkpt lat="48.01884" lon="6.93254">
        <ele>1111</ele>
        <time>2010-10-29T11:33:37Z</time>
      </trkpt>
      <trkpt lat="48.01859" lon="6.93246">
        <ele>1113</ele>
        <time>2010-10-29T11:33:46Z</time>
      </trkpt>
      <trkpt lat="48.01843" lon="6.9324">
        <ele>1113</ele>
        <time>2010-10-29T11:33:50Z</time>
      </trkpt>
      <trkpt lat="48.01819" lon="6.93231">
        <ele>1114</ele>
        <time>2010-10-29T11:33:55Z</time>
      </trkpt>
      <trkpt lat="48.018" lon="6.93225">
        <ele>1114</ele>
        <time>2010-10-29T11:34:01Z</time>
      </trkpt>
      <trkpt lat="48.0178" lon="6.93219">
        <ele>1114</ele>
        <time>2010-10-29T11:34:07Z</time>
      </trkpt>
      <trkpt lat="48.01758" lon="6.93213">
        <ele>1115</ele>
        <time>2010-10-29T11:34:14Z</time>
      </trkpt>
      <trkpt lat="48.01742" lon="6.93207">
        <ele>1113</ele>
        <time>2010-10-29T11:34:19Z</time>
      </trkpt>
      <trkpt lat="48.01728" lon="6.93197">
        <ele>1113</ele>
        <time>2010-10-29T11:34:25Z</time>
      </trkpt>
      <trkpt lat="48.01721" lon="6.93182">
        <ele>1113</ele>
        <time>2010-10-29T11:34:31Z</time>
      </trkpt>
      <trkpt lat="48.01715" lon="6.93159">
        <ele>1111</ele>
        <time>2010-10-29T11:34:36Z</time>
      </trkpt>
      <trkpt lat="48.01714" lon="6.93156">
        <ele>1111</ele>
        <time>2010-10-29T11:34:37Z</time>
      </trkpt>
      <trkpt lat="48.0171" lon="6.93132">
        <ele>1110</ele>
        <time>2010-10-29T11:34:42Z</time>
      </trkpt>
      <trkpt lat="48.01708" lon="6.93126">
        <ele>1110</ele>
        <time>2010-10-29T11:34:43Z</time>
      </trkpt>
      <trkpt lat="48.017" lon="6.93094">
        <ele>1108</ele>
        <time>2010-10-29T11:34:48Z</time>
      </trkpt>
      <trkpt lat="48.01695" lon="6.93068">
        <ele>1103</ele>
        <time>2010-10-29T11:34:53Z</time>
      </trkpt>
      <trkpt lat="48.01691" lon="6.93054">
        <ele>1103</ele>
        <time>2010-10-29T11:34:56Z</time>
      </trkpt>
      <trkpt lat="48.01687" lon="6.93039">
        <ele>1102</ele>
        <time>2010-10-29T11:35:00Z</time>
      </trkpt>
      <trkpt lat="48.01682" lon="6.93023">
        <ele>1102</ele>
        <time>2010-10-29T11:35:06Z</time>
      </trkpt>
      <trkpt lat="48.01681" lon="6.93018">
        <ele>1102</ele>
        <time>2010-10-29T11:35:09Z</time>
      </trkpt>
      <trkpt lat="48.01682" lon="6.93013">
        <ele>1102</ele>
        <time>2010-10-29T11:35:13Z</time>
      </trkpt>
      <trkpt lat="48.01685" lon="6.93016">
        <ele>1102</ele>
        <time>2010-10-29T11:35:34Z</time>
      </trkpt>
      <trkpt lat="48.01685" lon="6.93016">
        <ele>1102</ele>
        <time>2010-10-29T11:35:35Z</time>
      </trkpt>
      <trkpt lat="48.01678" lon="6.92997">
        <ele>1100</ele>
        <time>2010-10-29T11:35:40Z</time>
      </trkpt>
      <trkpt lat="48.01676" lon="6.92983">
        <ele>1099</ele>
        <time>2010-10-29T11:35:46Z</time>
      </trkpt>
      <trkpt lat="48.01676" lon="6.92983">
        <ele>1099</ele>
        <time>2010-10-29T11:35:47Z</time>
      </trkpt>
      <trkpt lat="48.01676" lon="6.9298">
        <ele>1099</ele>
        <time>2010-10-29T11:36:06Z</time>
      </trkpt>
      <trkpt lat="48.01676" lon="6.92981">
        <ele>1099</ele>
        <time>2010-10-29T11:36:07Z</time>
      </trkpt>
      <trkpt lat="48.01677" lon="6.9298">
        <ele>1099</ele>
        <time>2010-10-29T11:37:23Z</time>
      </trkpt>
      <trkpt lat="48.01675" lon="6.92977">
        <ele>1099</ele>
        <time>2010-10-29T11:37:24Z</time>
      </trkpt>
      <trkpt lat="48.01674" lon="6.92964">
        <ele>1098</ele>
        <time>2010-10-29T11:37:28Z</time>
      </trkpt>
      <trkpt lat="48.01669" lon="6.92946">
        <ele>1098</ele>
        <time>2010-10-29T11:37:33Z</time>
      </trkpt>
      <trkpt lat="48.01663" lon="6.92933">
        <ele>1097</ele>
        <time>2010-10-29T11:37:37Z</time>
      </trkpt>
      <trkpt lat="48.01653" lon="6.92906">
        <ele>1099</ele>
        <time>2010-10-29T11:37:44Z</time>
      </trkpt>
      <trkpt lat="48.01639" lon="6.92882">
        <ele>1098</ele>
        <time>2010-10-29T11:37:50Z</time>
      </trkpt>
      <trkpt lat="48.01626" lon="6.92865">
        <ele>1098</ele>
        <time>2010-10-29T11:37:56Z</time>
      </trkpt>
      <trkpt lat="48.01617" lon="6.92851">
        <ele>1098</ele>
        <time>2010-10-29T11:38:01Z</time>
      </trkpt>
      <trkpt lat="48.01606" lon="6.92829">
        <ele>1104</ele>
        <time>2010-10-29T11:38:08Z</time>
      </trkpt>
      <trkpt lat="48.01601" lon="6.92816">
        <ele>1104</ele>
        <time>2010-10-29T11:38:13Z</time>
      </trkpt>
      <trkpt lat="48.01593" lon="6.92796">
        <ele>1106</ele>
        <time>2010-10-29T11:38:19Z</time>
      </trkpt>
      <trkpt lat="48.01588" lon="6.92777">
        <ele>1108</ele>
        <time>2010-10-29T11:38:24Z</time>
      </trkpt>
      <trkpt lat="48.01585" lon="6.92759">
        <ele>1110</ele>
        <time>2010-10-29T11:38:30Z</time>
      </trkpt>
      <trkpt lat="48.01579" lon="6.92747">
        <ele>1112</ele>
        <time>2010-10-29T11:38:34Z</time>
      </trkpt>
      <trkpt lat="48.01563" lon="6.92718">
        <ele>1115</ele>
        <time>2010-10-29T11:38:40Z</time>
      </trkpt>
      <trkpt lat="48.01549" lon="6.92698">
        <ele>1116</ele>
        <time>2010-10-29T11:38:46Z</time>
      </trkpt>
      <trkpt lat="48.01536" lon="6.92681">
        <ele>1116</ele>
        <time>2010-10-29T11:38:53Z</time>
      </trkpt>
      <trkpt lat="48.01525" lon="6.92671">
        <ele>1115</ele>
        <time>2010-10-29T11:38:59Z</time>
      </trkpt>
      <trkpt lat="48.01514" lon="6.92662">
        <ele>1123</ele>
        <time>2010-10-29T11:39:04Z</time>
      </trkpt>
      <trkpt lat="48.01498" lon="6.92653">
        <ele>1115</ele>
        <time>2010-10-29T11:39:10Z</time>
      </trkpt>
      <trkpt lat="48.01482" lon="6.92642">
        <ele>1117</ele>
        <time>2010-10-29T11:39:17Z</time>
      </trkpt>
      <trkpt lat="48.01466" lon="6.92626">
        <ele>1118</ele>
        <time>2010-10-29T11:39:25Z</time>
      </trkpt>
      <trkpt lat="48.01454" lon="6.92612">
        <ele>1119</ele>
        <time>2010-10-29T11:39:32Z</time>
      </trkpt>
      <trkpt lat="48.01437" lon="6.92594">
        <ele>1120</ele>
        <time>2010-10-29T11:39:40Z</time>
      </trkpt>
      <trkpt lat="48.01424" lon="6.92583">
        <ele>1128</ele>
        <time>2010-10-29T11:39:46Z</time>
      </trkpt>
      <trkpt lat="48.01409" lon="6.92574">
        <ele>1125</ele>
        <time>2010-10-29T11:39:52Z</time>
      </trkpt>
      <trkpt lat="48.01387" lon="6.92563">
        <ele>1127</ele>
        <time>2010-10-29T11:40:00Z</time>
      </trkpt>
      <trkpt lat="48.01367" lon="6.92559">
        <ele>1126</ele>
        <time>2010-10-29T11:40:07Z</time>
      </trkpt>
      <trkpt lat="48.01346" lon="6.92558">
        <ele>1124</ele>
        <time>2010-10-29T11:40:14Z</time>
      </trkpt>
      <trkpt lat="48.01332" lon="6.92561">
        <ele>1117</ele>
        <time>2010-10-29T11:40:19Z</time>
      </trkpt>
      <trkpt lat="48.01322" lon="6.92564">
        <ele>1116</ele>
        <time>2010-10-29T11:40:23Z</time>
      </trkpt>
      <trkpt lat="48.01309" lon="6.92562">
        <ele>1117</ele>
        <time>2010-10-29T11:40:28Z</time>
      </trkpt>
      <trkpt lat="48.01287" lon="6.92554">
        <ele>1117</ele>
        <time>2010-10-29T11:40:35Z</time>
      </trkpt>
      <trkpt lat="48.01272" lon="6.92545">
        <ele>1117</ele>
        <time>2010-10-29T11:40:40Z</time>
      </trkpt>
      <trkpt lat="48.01262" lon="6.92541">
        <ele>1117</ele>
        <time>2010-10-29T11:40:44Z</time>
      </trkpt>
      <trkpt lat="48.01246" lon="6.92543">
        <ele>1110</ele>
        <time>2010-10-29T11:40:49Z</time>
      </trkpt>
      <trkpt lat="48.0123" lon="6.92545">
        <ele>1109</ele>
        <time>2010-10-29T11:40:55Z</time>
      </trkpt>
      <trkpt lat="48.01215" lon="6.9254">
        <ele>1109</ele>
        <time>2010-10-29T11:41:01Z</time>
      </trkpt>
      <trkpt lat="48.01201" lon="6.92529">
        <ele>1109</ele>
        <time>2010-10-29T11:41:08Z</time>
      </trkpt>
      <trkpt lat="48.01189" lon="6.92511">
        <ele>1110</ele>
        <time>2010-10-29T11:41:15Z</time>
      </trkpt>
      <trkpt lat="48.01181" lon="6.92499">
        <ele>1116</ele>
        <time>2010-10-29T11:41:19Z</time>
      </trkpt>
      <trkpt lat="48.01172" lon="6.9248">
        <ele>1117</ele>
        <time>2010-10-29T11:41:25Z</time>
      </trkpt>
      <trkpt lat="48.01162" lon="6.9246">
        <ele>1107</ele>
        <time>2010-10-29T11:41:30Z</time>
      </trkpt>
      <trkpt lat="48.01151" lon="6.92441">
        <ele>1108</ele>
        <time>2010-10-29T11:41:35Z</time>
      </trkpt>
      <trkpt lat="48.01135" lon="6.92416">
        <ele>1112</ele>
        <time>2010-10-29T11:41:41Z</time>
      </trkpt>
      <trkpt lat="48.01126" lon="6.92394">
        <ele>1111</ele>
        <time>2010-10-29T11:41:46Z</time>
      </trkpt>
      <trkpt lat="48.01122" lon="6.92378">
        <ele>1111</ele>
        <time>2010-10-29T11:41:51Z</time>
      </trkpt>
      <trkpt lat="48.01109" lon="6.92359">
        <ele>1111</ele>
        <time>2010-10-29T11:41:56Z</time>
      </trkpt>
      <trkpt lat="48.01097" lon="6.92345">
        <ele>1111</ele>
        <time>2010-10-29T11:42:01Z</time>
      </trkpt>
      <trkpt lat="48.01086" lon="6.92329">
        <ele>1110</ele>
        <time>2010-10-29T11:42:05Z</time>
      </trkpt>
      <trkpt lat="48.01072" lon="6.92309">
        <ele>1105</ele>
        <time>2010-10-29T11:42:10Z</time>
      </trkpt>
      <trkpt lat="48.01066" lon="6.923">
        <ele>1104</ele>
        <time>2010-10-29T11:42:12Z</time>
      </trkpt>
      <trkpt lat="48.01057" lon="6.92288">
        <ele>1104</ele>
        <time>2010-10-29T11:42:15Z</time>
      </trkpt>
      <trkpt lat="48.01044" lon="6.92268">
        <ele>1103</ele>
        <time>2010-10-29T11:42:19Z</time>
      </trkpt>
      <trkpt lat="48.01035" lon="6.92257">
        <ele>1103</ele>
        <time>2010-10-29T11:42:23Z</time>
      </trkpt>
      <trkpt lat="48.01027" lon="6.92246">
        <ele>1103</ele>
        <time>2010-10-29T11:42:28Z</time>
      </trkpt>
      <trkpt lat="48.01016" lon="6.9223">
        <ele>1103</ele>
        <time>2010-10-29T11:42:35Z</time>
      </trkpt>
      <trkpt lat="48.01008" lon="6.92213">
        <ele>1102</ele>
        <time>2010-10-29T11:42:39Z</time>
      </trkpt>
      <trkpt lat="48.00997" lon="6.92203">
        <ele>1101</ele>
        <time>2010-10-29T11:42:44Z</time>
      </trkpt>
      <trkpt lat="48.00996" lon="6.92203">
        <ele>1101</ele>
        <time>2010-10-29T11:42:45Z</time>
      </trkpt>
      <trkpt lat="48.00989" lon="6.9219">
        <ele>1101</ele>
        <time>2010-10-29T11:42:52Z</time>
      </trkpt>
      <trkpt lat="48.00987" lon="6.92185">
        <ele>1101</ele>
        <time>2010-10-29T11:42:54Z</time>
      </trkpt>
      <trkpt lat="48.00983" lon="6.92174">
        <ele>1101</ele>
        <time>2010-10-29T11:43:00Z</time>
      </trkpt>
      <trkpt lat="48.00974" lon="6.9217">
        <ele>1101</ele>
        <time>2010-10-29T11:43:05Z</time>
      </trkpt>
      <trkpt lat="48.0097" lon="6.92161">
        <ele>1103</ele>
        <time>2010-10-29T11:43:10Z</time>
      </trkpt>
      <trkpt lat="48.0097" lon="6.9216">
        <ele>1103</ele>
        <time>2010-10-29T11:43:11Z</time>
      </trkpt>
      <trkpt lat="48.00962" lon="6.92151">
        <ele>1104</ele>
        <time>2010-10-29T11:43:18Z</time>
      </trkpt>
      <trkpt lat="48.00956" lon="6.92142">
        <ele>1104</ele>
        <time>2010-10-29T11:43:24Z</time>
      </trkpt>
      <trkpt lat="48.0095" lon="6.92134">
        <ele>1104</ele>
        <time>2010-10-29T11:43:29Z</time>
      </trkpt>
      <trkpt lat="48.00948" lon="6.92132">
        <ele>1104</ele>
        <time>2010-10-29T11:43:30Z</time>
      </trkpt>
      <trkpt lat="48.00937" lon="6.92119">
        <ele>1105</ele>
        <time>2010-10-29T11:43:39Z</time>
      </trkpt>
      <trkpt lat="48.0093" lon="6.9211">
        <ele>1106</ele>
        <time>2010-10-29T11:43:45Z</time>
      </trkpt>
      <trkpt lat="48.00927" lon="6.92103">
        <ele>1107</ele>
        <time>2010-10-29T11:43:51Z</time>
      </trkpt>
      <trkpt lat="48.00919" lon="6.92093">
        <ele>1109</ele>
        <time>2010-10-29T11:43:57Z</time>
      </trkpt>
      <trkpt lat="48.00914" lon="6.92087">
        <ele>1110</ele>
        <time>2010-10-29T11:44:01Z</time>
      </trkpt>
      <trkpt lat="48.00907" lon="6.92077">
        <ele>1111</ele>
        <time>2010-10-29T11:44:07Z</time>
      </trkpt>
      <trkpt lat="48.009" lon="6.92065">
        <ele>1110</ele>
        <time>2010-10-29T11:44:13Z</time>
      </trkpt>
      <trkpt lat="48.00894" lon="6.92054">
        <ele>1109</ele>
        <time>2010-10-29T11:44:21Z</time>
      </trkpt>
      <trkpt lat="48.00885" lon="6.92046">
        <ele>1109</ele>
        <time>2010-10-29T11:44:26Z</time>
      </trkpt>
      <trkpt lat="48.00874" lon="6.92033">
        <ele>1109</ele>
        <time>2010-10-29T11:44:33Z</time>
      </trkpt>
      <trkpt lat="48.00872" lon="6.92029">
        <ele>1110</ele>
        <time>2010-10-29T11:44:35Z</time>
      </trkpt>
      <trkpt lat="48.00867" lon="6.92018">
        <ele>1110</ele>
        <time>2010-10-29T11:44:41Z</time>
      </trkpt>
      <trkpt lat="48.00861" lon="6.92005">
        <ele>1111</ele>
        <time>2010-10-29T11:44:48Z</time>
      </trkpt>
      <trkpt lat="48.00852" lon="6.91992">
        <ele>1114</ele>
        <time>2010-10-29T11:44:55Z</time>
      </trkpt>
      <trkpt lat="48.00852" lon="6.91991">
        <ele>1114</ele>
        <time>2010-10-29T11:44:56Z</time>
      </trkpt>
      <trkpt lat="48.00849" lon="6.91982">
        <ele>1114</ele>
        <time>2010-10-29T11:45:00Z</time>
      </trkpt>
      <trkpt lat="48.00842" lon="6.9197">
        <ele>1114</ele>
        <time>2010-10-29T11:45:04Z</time>
      </trkpt>
      <trkpt lat="48.00835" lon="6.9196">
        <ele>1115</ele>
        <time>2010-10-29T11:45:11Z</time>
      </trkpt>
      <trkpt lat="48.00833" lon="6.91957">
        <ele>1111</ele>
        <time>2010-10-29T11:45:16Z</time>
      </trkpt>
      <trkpt lat="48.0085" lon="6.91966">
        <ele>1114</ele>
        <time>2010-10-29T11:45:56Z</time>
      </trkpt>
      <trkpt lat="48.0085" lon="6.91962">
        <ele>1115</ele>
        <time>2010-10-29T11:46:00Z</time>
      </trkpt>
      <trkpt lat="48.00847" lon="6.91958">
        <ele>1115</ele>
        <time>2010-10-29T11:46:04Z</time>
      </trkpt>
      <trkpt lat="48.00846" lon="6.91956">
        <ele>1115</ele>
        <time>2010-10-29T11:46:08Z</time>
      </trkpt>
      <trkpt lat="48.00844" lon="6.91954">
        <ele>1115</ele>
        <time>2010-10-29T11:46:09Z</time>
      </trkpt>
      <trkpt lat="48.0084" lon="6.91945">
        <ele>1115</ele>
        <time>2010-10-29T11:46:12Z</time>
      </trkpt>
      <trkpt lat="48.00836" lon="6.91937">
        <ele>1116</ele>
        <time>2010-10-29T11:46:17Z</time>
      </trkpt>
      <trkpt lat="48.00813" lon="6.91918">
        <ele>1113</ele>
        <time>2010-10-29T11:48:06Z</time>
      </trkpt>
      <trkpt lat="48.00814" lon="6.91917">
        <ele>1113</ele>
        <time>2010-10-29T11:48:07Z</time>
      </trkpt>
      <trkpt lat="48.0082" lon="6.919">
        <ele>1114</ele>
        <time>2010-10-29T11:48:14Z</time>
      </trkpt>
      <trkpt lat="48.00822" lon="6.91891">
        <ele>1114</ele>
        <time>2010-10-29T11:48:17Z</time>
      </trkpt>
      <trkpt lat="48.00824" lon="6.91878">
        <ele>1113</ele>
        <time>2010-10-29T11:48:22Z</time>
      </trkpt>
      <trkpt lat="48.00827" lon="6.9186">
        <ele>1114</ele>
        <time>2010-10-29T11:48:28Z</time>
      </trkpt>
      <trkpt lat="48.0083" lon="6.91834">
        <ele>1118</ele>
        <time>2010-10-29T11:48:33Z</time>
      </trkpt>
      <trkpt lat="48.00832" lon="6.91805">
        <ele>1111</ele>
        <time>2010-10-29T11:48:38Z</time>
      </trkpt>
      <trkpt lat="48.00834" lon="6.91776">
        <ele>1111</ele>
        <time>2010-10-29T11:48:43Z</time>
      </trkpt>
      <trkpt lat="48.00835" lon="6.91768">
        <ele>1111</ele>
        <time>2010-10-29T11:48:44Z</time>
      </trkpt>
      <trkpt lat="48.00836" lon="6.91747">
        <ele>1110</ele>
        <time>2010-10-29T11:48:47Z</time>
      </trkpt>
      <trkpt lat="48.00839" lon="6.91734">
        <ele>1108</ele>
        <time>2010-10-29T11:48:51Z</time>
      </trkpt>
      <trkpt lat="48.00841" lon="6.91716">
        <ele>1106</ele>
        <time>2010-10-29T11:48:57Z</time>
      </trkpt>
      <trkpt lat="48.00842" lon="6.91692">
        <ele>1105</ele>
        <time>2010-10-29T11:49:01Z</time>
      </trkpt>
      <trkpt lat="48.00842" lon="6.91659">
        <ele>1104</ele>
        <time>2010-10-29T11:49:07Z</time>
      </trkpt>
      <trkpt lat="48.00841" lon="6.9164">
        <ele>1101</ele>
        <time>2010-10-29T11:49:11Z</time>
      </trkpt>
      <trkpt lat="48.00843" lon="6.91623">
        <ele>1100</ele>
        <time>2010-10-29T11:49:16Z</time>
      </trkpt>
      <trkpt lat="48.00844" lon="6.91604">
        <ele>1099</ele>
        <time>2010-10-29T11:49:21Z</time>
      </trkpt>
      <trkpt lat="48.00847" lon="6.91579">
        <ele>1097</ele>
        <time>2010-10-29T11:49:26Z</time>
      </trkpt>
      <trkpt lat="48.0085" lon="6.91553">
        <ele>1095</ele>
        <time>2010-10-29T11:49:31Z</time>
      </trkpt>
      <trkpt lat="48.0085" lon="6.91526">
        <ele>1094</ele>
        <time>2010-10-29T11:49:37Z</time>
      </trkpt>
      <trkpt lat="48.00852" lon="6.91511">
        <ele>1094</ele>
        <time>2010-10-29T11:49:40Z</time>
      </trkpt>
      <trkpt lat="48.00856" lon="6.915">
        <ele>1093</ele>
        <time>2010-10-29T11:49:42Z</time>
      </trkpt>
      <trkpt lat="48.00859" lon="6.91466">
        <ele>1087</ele>
        <time>2010-10-29T11:49:47Z</time>
      </trkpt>
      <trkpt lat="48.0086" lon="6.91455">
        <ele>1086</ele>
        <time>2010-10-29T11:49:49Z</time>
      </trkpt>
      <trkpt lat="48.00861" lon="6.91443">
        <ele>1085</ele>
        <time>2010-10-29T11:49:51Z</time>
      </trkpt>
      <trkpt lat="48.00862" lon="6.91436">
        <ele>1085</ele>
        <time>2010-10-29T11:49:52Z</time>
      </trkpt>
      <trkpt lat="48.00863" lon="6.91419">
        <ele>1084</ele>
        <time>2010-10-29T11:49:56Z</time>
      </trkpt>
      <trkpt lat="48.00864" lon="6.91407">
        <ele>1078</ele>
        <time>2010-10-29T11:50:02Z</time>
      </trkpt>
      <trkpt lat="48.0086" lon="6.91396">
        <ele>1077</ele>
        <time>2010-10-29T11:51:37Z</time>
      </trkpt>
      <trkpt lat="48.00866" lon="6.91384">
        <ele>1076</ele>
        <time>2010-10-29T11:51:40Z</time>
      </trkpt>
      <trkpt lat="48.00869" lon="6.91362">
        <ele>1075</ele>
        <time>2010-10-29T11:51:44Z</time>
      </trkpt>
      <trkpt lat="48.00871" lon="6.91351">
        <ele>1074</ele>
        <time>2010-10-29T11:51:46Z</time>
      </trkpt>
      <trkpt lat="48.00873" lon="6.91338">
        <ele>1074</ele>
        <time>2010-10-29T11:51:48Z</time>
      </trkpt>
      <trkpt lat="48.00878" lon="6.91312">
        <ele>1065</ele>
        <time>2010-10-29T11:51:53Z</time>
      </trkpt>
      <trkpt lat="48.00883" lon="6.91293">
        <ele>1064</ele>
        <time>2010-10-29T11:51:58Z</time>
      </trkpt>
      <trkpt lat="48.00885" lon="6.91291">
        <ele>1064</ele>
        <time>2010-10-29T11:52:01Z</time>
      </trkpt>
      <trkpt lat="48.00883" lon="6.91293">
        <ele>1064</ele>
        <time>2010-10-29T11:52:52Z</time>
      </trkpt>
      <trkpt lat="48.00884" lon="6.91288">
        <ele>1064</ele>
        <time>2010-10-29T11:52:56Z</time>
      </trkpt>
      <trkpt lat="48.00885" lon="6.91287">
        <ele>1063</ele>
        <time>2010-10-29T11:52:59Z</time>
      </trkpt>
      <trkpt lat="48.00887" lon="6.91282">
        <ele>1063</ele>
        <time>2010-10-29T11:53:06Z</time>
      </trkpt>
      <trkpt lat="48.00888" lon="6.9128">
        <ele>1063</ele>
        <time>2010-10-29T11:54:12Z</time>
      </trkpt>
      <trkpt lat="48.00893" lon="6.91266">
        <ele>1061</ele>
        <time>2010-10-29T11:54:15Z</time>
      </trkpt>
      <trkpt lat="48.00898" lon="6.91251">
        <ele>1060</ele>
        <time>2010-10-29T11:54:17Z</time>
      </trkpt>
      <trkpt lat="48.00904" lon="6.91233">
        <ele>1053</ele>
        <time>2010-10-29T11:54:19Z</time>
      </trkpt>
      <trkpt lat="48.00908" lon="6.91225">
        <ele>1052</ele>
        <time>2010-10-29T11:54:20Z</time>
      </trkpt>
      <trkpt lat="48.00921" lon="6.91199">
        <ele>1047</ele>
        <time>2010-10-29T11:54:23Z</time>
      </trkpt>
      <trkpt lat="48.0094" lon="6.91169">
        <ele>1045</ele>
        <time>2010-10-29T11:54:27Z</time>
      </trkpt>
      <trkpt lat="48.00951" lon="6.91155">
        <ele>1041</ele>
        <time>2010-10-29T11:54:29Z</time>
      </trkpt>
      <trkpt lat="48.00966" lon="6.91132">
        <ele>1040</ele>
        <time>2010-10-29T11:54:33Z</time>
      </trkpt>
      <trkpt lat="48.00969" lon="6.91127">
        <ele>1039</ele>
        <time>2010-10-29T11:54:34Z</time>
      </trkpt>
      <trkpt lat="48.00976" lon="6.91117">
        <ele>1039</ele>
        <time>2010-10-29T11:54:36Z</time>
      </trkpt>
      <trkpt lat="48.00997" lon="6.91085">
        <ele>1036</ele>
        <time>2010-10-29T11:54:41Z</time>
      </trkpt>
      <trkpt lat="48.01012" lon="6.91063">
        <ele>1031</ele>
        <time>2010-10-29T11:54:44Z</time>
      </trkpt>
      <trkpt lat="48.01017" lon="6.91056">
        <ele>1030</ele>
        <time>2010-10-29T11:54:45Z</time>
      </trkpt>
      <trkpt lat="48.01038" lon="6.91042">
        <ele>1029</ele>
        <time>2010-10-29T11:54:49Z</time>
      </trkpt>
      <trkpt lat="48.01049" lon="6.91038">
        <ele>1029</ele>
        <time>2010-10-29T11:54:52Z</time>
      </trkpt>
      <trkpt lat="48.01055" lon="6.91033">
        <ele>1029</ele>
        <time>2010-10-29T11:54:55Z</time>
      </trkpt>
      <trkpt lat="48.01055" lon="6.91032">
        <ele>1029</ele>
        <time>2010-10-29T11:54:57Z</time>
      </trkpt>
      <trkpt lat="48.01051" lon="6.9103">
        <ele>1029</ele>
        <time>2010-10-29T11:55:34Z</time>
      </trkpt>
      <trkpt lat="48.01051" lon="6.91029">
        <ele>1029</ele>
        <time>2010-10-29T11:55:35Z</time>
      </trkpt>
      <trkpt lat="48.01049" lon="6.91025">
        <ele>1029</ele>
        <time>2010-10-29T11:55:39Z</time>
      </trkpt>
      <trkpt lat="48.01049" lon="6.91025">
        <ele>1029</ele>
        <time>2010-10-29T11:55:42Z</time>
      </trkpt>
      <trkpt lat="48.01048" lon="6.91024">
        <ele>1029</ele>
        <time>2010-10-29T11:55:43Z</time>
      </trkpt>
      <trkpt lat="48.01048" lon="6.91024">
        <ele>1029</ele>
        <time>2010-10-29T11:55:48Z</time>
      </trkpt>
      <trkpt lat="48.01049" lon="6.91024">
        <ele>1029</ele>
        <time>2010-10-29T11:55:49Z</time>
      </trkpt>
      <trkpt lat="48.01051" lon="6.91021">
        <ele>1029</ele>
        <time>2010-10-29T12:01:50Z</time>
      </trkpt>
      <trkpt lat="48.01052" lon="6.91021">
        <ele>1029</ele>
        <time>2010-10-29T12:01:51Z</time>
      </trkpt>
      <trkpt lat="48.01049" lon="6.91023">
        <ele>1029</ele>
        <time>2010-10-29T12:04:17Z</time>
      </trkpt>
      <trkpt lat="48.01049" lon="6.91023">
        <ele>1029</ele>
        <time>2010-10-29T12:04:18Z</time>
      </trkpt>
      <trkpt lat="48.01049" lon="6.91022">
        <ele>1029</ele>
        <time>2010-10-29T12:04:21Z</time>
      </trkpt>
      <trkpt lat="48.01049" lon="6.91019">
        <ele>1028</ele>
        <time>2010-10-29T12:04:22Z</time>
      </trkpt>
      <trkpt lat="48.01044" lon="6.91">
        <ele>1024</ele>
        <time>2010-10-29T12:04:27Z</time>
      </trkpt>
      <trkpt lat="48.01037" lon="6.90967">
        <ele>1023</ele>
        <time>2010-10-29T12:04:32Z</time>
      </trkpt>
      <trkpt lat="48.01032" lon="6.90949">
        <ele>1022</ele>
        <time>2010-10-29T12:04:35Z</time>
      </trkpt>
      <trkpt lat="48.01028" lon="6.90926">
        <ele>1021</ele>
        <time>2010-10-29T12:04:38Z</time>
      </trkpt>
      <trkpt lat="48.01027" lon="6.90919">
        <ele>1020</ele>
        <time>2010-10-29T12:04:39Z</time>
      </trkpt>
      <trkpt lat="48.01021" lon="6.90902">
        <ele>1016</ele>
        <time>2010-10-29T12:04:42Z</time>
      </trkpt>
      <trkpt lat="48.0102" lon="6.9088">
        <ele>1015</ele>
        <time>2010-10-29T12:04:46Z</time>
      </trkpt>
      <trkpt lat="48.01019" lon="6.9087">
        <ele>1014</ele>
        <time>2010-10-29T12:04:48Z</time>
      </trkpt>
      <trkpt lat="48.01018" lon="6.90857">
        <ele>1013</ele>
        <time>2010-10-29T12:04:51Z</time>
      </trkpt>
      <trkpt lat="48.01016" lon="6.90834">
        <ele>1011</ele>
        <time>2010-10-29T12:04:56Z</time>
      </trkpt>
      <trkpt lat="48.01012" lon="6.90811">
        <ele>1007</ele>
        <time>2010-10-29T12:05:00Z</time>
      </trkpt>
      <trkpt lat="48.0101" lon="6.90804">
        <ele>1007</ele>
        <time>2010-10-29T12:05:01Z</time>
      </trkpt>
      <trkpt lat="48.01005" lon="6.90783">
        <ele>1006</ele>
        <time>2010-10-29T12:05:04Z</time>
      </trkpt>
      <trkpt lat="48.01003" lon="6.90776">
        <ele>1005</ele>
        <time>2010-10-29T12:05:05Z</time>
      </trkpt>
      <trkpt lat="48.00999" lon="6.90753">
        <ele>995</ele>
        <time>2010-10-29T12:05:09Z</time>
      </trkpt>
      <trkpt lat="48.00995" lon="6.90733">
        <ele>986</ele>
        <time>2010-10-29T12:05:13Z</time>
      </trkpt>
      <trkpt lat="48.00993" lon="6.90717">
        <ele>981</ele>
        <time>2010-10-29T12:05:16Z</time>
      </trkpt>
      <trkpt lat="48.00988" lon="6.90687">
        <ele>980</ele>
        <time>2010-10-29T12:05:22Z</time>
      </trkpt>
      <trkpt lat="48.00983" lon="6.90666">
        <ele>979</ele>
        <time>2010-10-29T12:05:28Z</time>
      </trkpt>
      <trkpt lat="48.0098" lon="6.90654">
        <ele>976</ele>
        <time>2010-10-29T12:05:31Z</time>
      </trkpt>
      <trkpt lat="48.00976" lon="6.9063">
        <ele>973</ele>
        <time>2010-10-29T12:05:35Z</time>
      </trkpt>
      <trkpt lat="48.00974" lon="6.90614">
        <ele>972</ele>
        <time>2010-10-29T12:05:38Z</time>
      </trkpt>
      <trkpt lat="48.0097" lon="6.90602">
        <ele>971</ele>
        <time>2010-10-29T12:05:40Z</time>
      </trkpt>
      <trkpt lat="48.00965" lon="6.90575">
        <ele>968</ele>
        <time>2010-10-29T12:05:44Z</time>
      </trkpt>
      <trkpt lat="48.00959" lon="6.90549">
        <ele>966</ele>
        <time>2010-10-29T12:05:49Z</time>
      </trkpt>
      <trkpt lat="48.00949" lon="6.90535">
        <ele>964</ele>
        <time>2010-10-29T12:05:53Z</time>
      </trkpt>
      <trkpt lat="48.00936" lon="6.90516">
        <ele>961</ele>
        <time>2010-10-29T12:05:58Z</time>
      </trkpt>
      <trkpt lat="48.00933" lon="6.90506">
        <ele>960</ele>
        <time>2010-10-29T12:06:00Z</time>
      </trkpt>
      <trkpt lat="48.00928" lon="6.90483">
        <ele>957</ele>
        <time>2010-10-29T12:06:04Z</time>
      </trkpt>
      <trkpt lat="48.00918" lon="6.90459">
        <ele>957</ele>
        <time>2010-10-29T12:06:08Z</time>
      </trkpt>
      <trkpt lat="48.00909" lon="6.90431">
        <ele>945</ele>
        <time>2010-10-29T12:06:13Z</time>
      </trkpt>
      <trkpt lat="48.00907" lon="6.90402">
        <ele>944</ele>
        <time>2010-10-29T12:06:18Z</time>
      </trkpt>
      <trkpt lat="48.00906" lon="6.904">
        <ele>943</ele>
        <time>2010-10-29T12:06:19Z</time>
      </trkpt>
      <trkpt lat="48.00904" lon="6.90395">
        <ele>942</ele>
        <time>2010-10-29T12:06:22Z</time>
      </trkpt>
      <trkpt lat="48.00902" lon="6.90394">
        <ele>941</ele>
        <time>2010-10-29T12:06:23Z</time>
      </trkpt>
      <trkpt lat="48.009" lon="6.90392">
        <ele>941</ele>
        <time>2010-10-29T12:06:24Z</time>
      </trkpt>
      <trkpt lat="48.00897" lon="6.90386">
        <ele>939</ele>
        <time>2010-10-29T12:06:26Z</time>
      </trkpt>
      <trkpt lat="48.00884" lon="6.90362">
        <ele>936</ele>
        <time>2010-10-29T12:06:33Z</time>
      </trkpt>
      <trkpt lat="48.0088" lon="6.90354">
        <ele>936</ele>
        <time>2010-10-29T12:06:36Z</time>
      </trkpt>
      <trkpt lat="48.00879" lon="6.90349">
        <ele>935</ele>
        <time>2010-10-29T12:06:38Z</time>
      </trkpt>
      <trkpt lat="48.00878" lon="6.90346">
        <ele>935</ele>
        <time>2010-10-29T12:06:41Z</time>
      </trkpt>
      <trkpt lat="48.00872" lon="6.90343">
        <ele>934</ele>
        <time>2010-10-29T12:08:22Z</time>
      </trkpt>
      <trkpt lat="48.0087" lon="6.90338">
        <ele>933</ele>
        <time>2010-10-29T12:08:23Z</time>
      </trkpt>
      <trkpt lat="48.00869" lon="6.90334">
        <ele>933</ele>
        <time>2010-10-29T12:08:24Z</time>
      </trkpt>
      <trkpt lat="48.00865" lon="6.90315">
        <ele>931</ele>
        <time>2010-10-29T12:08:28Z</time>
      </trkpt>
      <trkpt lat="48.00863" lon="6.90287">
        <ele>932</ele>
        <time>2010-10-29T12:08:33Z</time>
      </trkpt>
      <trkpt lat="48.00863" lon="6.90271">
        <ele>931</ele>
        <time>2010-10-29T12:08:36Z</time>
      </trkpt>
      <trkpt lat="48.00862" lon="6.90255">
        <ele>931</ele>
        <time>2010-10-29T12:08:39Z</time>
      </trkpt>
      <trkpt lat="48.00863" lon="6.90237">
        <ele>930</ele>
        <time>2010-10-29T12:08:42Z</time>
      </trkpt>
      <trkpt lat="48.00862" lon="6.9021">
        <ele>929</ele>
        <time>2010-10-29T12:08:47Z</time>
      </trkpt>
      <trkpt lat="48.00859" lon="6.90184">
        <ele>927</ele>
        <time>2010-10-29T12:08:52Z</time>
      </trkpt>
      <trkpt lat="48.00857" lon="6.90161">
        <ele>924</ele>
        <time>2010-10-29T12:08:57Z</time>
      </trkpt>
      <trkpt lat="48.00854" lon="6.90137">
        <ele>925</ele>
        <time>2010-10-29T12:09:01Z</time>
      </trkpt>
      <trkpt lat="48.00854" lon="6.90128">
        <ele>926</ele>
        <time>2010-10-29T12:09:03Z</time>
      </trkpt>
      <trkpt lat="48.00853" lon="6.90111">
        <ele>926</ele>
        <time>2010-10-29T12:09:07Z</time>
      </trkpt>
      <trkpt lat="48.0085" lon="6.90094">
        <ele>924</ele>
        <time>2010-10-29T12:09:11Z</time>
      </trkpt>
      <trkpt lat="48.00844" lon="6.90066">
        <ele>926</ele>
        <time>2010-10-29T12:09:17Z</time>
      </trkpt>
      <trkpt lat="48.00845" lon="6.90057">
        <ele>927</ele>
        <time>2010-10-29T12:09:20Z</time>
      </trkpt>
      <trkpt lat="48.00844" lon="6.90047">
        <ele>928</ele>
        <time>2010-10-29T12:09:23Z</time>
      </trkpt>
      <trkpt lat="48.00842" lon="6.90032">
        <ele>928</ele>
        <time>2010-10-29T12:09:26Z</time>
      </trkpt>
      <trkpt lat="48.00841" lon="6.9001">
        <ele>925</ele>
        <time>2010-10-29T12:09:30Z</time>
      </trkpt>
      <trkpt lat="48.0084" lon="6.90005">
        <ele>924</ele>
        <time>2010-10-29T12:09:31Z</time>
      </trkpt>
      <trkpt lat="48.00839" lon="6.89983">
        <ele>927</ele>
        <time>2010-10-29T12:09:35Z</time>
      </trkpt>
      <trkpt lat="48.00835" lon="6.8997">
        <ele>928</ele>
        <time>2010-10-29T12:09:37Z</time>
      </trkpt>
      <trkpt lat="48.00831" lon="6.89946">
        <ele>901</ele>
        <time>2010-10-29T12:09:40Z</time>
      </trkpt>
      <trkpt lat="48.0083" lon="6.89938">
        <ele>902</ele>
        <time>2010-10-29T12:09:41Z</time>
      </trkpt>
      <trkpt lat="48.00828" lon="6.89931">
        <ele>904</ele>
        <time>2010-10-29T12:09:42Z</time>
      </trkpt>
      <trkpt lat="48.00825" lon="6.89916">
        <ele>906</ele>
        <time>2010-10-29T12:09:45Z</time>
      </trkpt>
      <trkpt lat="48.00819" lon="6.89892">
        <ele>896</ele>
        <time>2010-10-29T12:09:51Z</time>
      </trkpt>
      <trkpt lat="48.00818" lon="6.89887">
        <ele>895</ele>
        <time>2010-10-29T12:09:52Z</time>
      </trkpt>
      <trkpt lat="48.00816" lon="6.89873">
        <ele>893</ele>
        <time>2010-10-29T12:09:55Z</time>
      </trkpt>
      <trkpt lat="48.00815" lon="6.89861">
        <ele>894</ele>
        <time>2010-10-29T12:09:58Z</time>
      </trkpt>
      <trkpt lat="48.00812" lon="6.8984">
        <ele>896</ele>
        <time>2010-10-29T12:10:02Z</time>
      </trkpt>
      <trkpt lat="48.00809" lon="6.89814">
        <ele>890</ele>
        <time>2010-10-29T12:10:07Z</time>
      </trkpt>
      <trkpt lat="48.00808" lon="6.89796">
        <ele>887</ele>
        <time>2010-10-29T12:10:11Z</time>
      </trkpt>
      <trkpt lat="48.00807" lon="6.89784">
        <ele>887</ele>
        <time>2010-10-29T12:10:13Z</time>
      </trkpt>
      <trkpt lat="48.00804" lon="6.89765">
        <ele>887</ele>
        <time>2010-10-29T12:10:17Z</time>
      </trkpt>
      <trkpt lat="48.00797" lon="6.89742">
        <ele>880</ele>
        <time>2010-10-29T12:10:21Z</time>
      </trkpt>
      <trkpt lat="48.00793" lon="6.89725">
        <ele>877</ele>
        <time>2010-10-29T12:10:25Z</time>
      </trkpt>
      <trkpt lat="48.00791" lon="6.89715">
        <ele>876</ele>
        <time>2010-10-29T12:10:27Z</time>
      </trkpt>
      <trkpt lat="48.0079" lon="6.89711">
        <ele>875</ele>
        <time>2010-10-29T12:10:28Z</time>
      </trkpt>
      <trkpt lat="48.0079" lon="6.89703">
        <ele>875</ele>
        <time>2010-10-29T12:10:30Z</time>
      </trkpt>
      <trkpt lat="48.00789" lon="6.89685">
        <ele>874</ele>
        <time>2010-10-29T12:10:35Z</time>
      </trkpt>
      <trkpt lat="48.00785" lon="6.89667">
        <ele>868</ele>
        <time>2010-10-29T12:10:40Z</time>
      </trkpt>
      <trkpt lat="48.00785" lon="6.89665">
        <ele>868</ele>
        <time>2010-10-29T12:10:41Z</time>
      </trkpt>
      <trkpt lat="48.00776" lon="6.89654">
        <ele>864</ele>
        <time>2010-10-29T12:10:54Z</time>
      </trkpt>
      <trkpt lat="48.00775" lon="6.89657">
        <ele>864</ele>
        <time>2010-10-29T12:10:57Z</time>
      </trkpt>
      <trkpt lat="48.00773" lon="6.89658">
        <ele>863</ele>
        <time>2010-10-29T12:11:22Z</time>
      </trkpt>
      <trkpt lat="48.00772" lon="6.89655">
        <ele>862</ele>
        <time>2010-10-29T12:11:25Z</time>
      </trkpt>
      <trkpt lat="48.00771" lon="6.89654">
        <ele>862</ele>
        <time>2010-10-29T12:11:28Z</time>
      </trkpt>
      <trkpt lat="48.00771" lon="6.89644">
        <ele>864</ele>
        <time>2010-10-29T12:11:31Z</time>
      </trkpt>
      <trkpt lat="48.00771" lon="6.89627">
        <ele>865</ele>
        <time>2010-10-29T12:11:35Z</time>
      </trkpt>
      <trkpt lat="48.00774" lon="6.89606">
        <ele>865</ele>
        <time>2010-10-29T12:11:40Z</time>
      </trkpt>
      <trkpt lat="48.00779" lon="6.89585">
        <ele>865</ele>
        <time>2010-10-29T12:11:45Z</time>
      </trkpt>
      <trkpt lat="48.00784" lon="6.8956">
        <ele>863</ele>
        <time>2010-10-29T12:11:51Z</time>
      </trkpt>
      <trkpt lat="48.00787" lon="6.89537">
        <ele>863</ele>
        <time>2010-10-29T12:11:56Z</time>
      </trkpt>
      <trkpt lat="48.00799" lon="6.895">
        <ele>857</ele>
        <time>2010-10-29T12:12:03Z</time>
      </trkpt>
      <trkpt lat="48.00802" lon="6.89474">
        <ele>856</ele>
        <time>2010-10-29T12:12:08Z</time>
      </trkpt>
      <trkpt lat="48.0081" lon="6.89446">
        <ele>854</ele>
        <time>2010-10-29T12:12:14Z</time>
      </trkpt>
      <trkpt lat="48.00815" lon="6.89434">
        <ele>855</ele>
        <time>2010-10-29T12:12:17Z</time>
      </trkpt>
      <trkpt lat="48.00817" lon="6.89421">
        <ele>856</ele>
        <time>2010-10-29T12:12:21Z</time>
      </trkpt>
      <trkpt lat="48.00825" lon="6.894">
        <ele>851</ele>
        <time>2010-10-29T12:12:28Z</time>
      </trkpt>
      <trkpt lat="48.00827" lon="6.89392">
        <ele>850</ele>
        <time>2010-10-29T12:12:30Z</time>
      </trkpt>
      <trkpt lat="48.00826" lon="6.89366">
        <ele>848</ele>
        <time>2010-10-29T12:12:37Z</time>
      </trkpt>
      <trkpt lat="48.00823" lon="6.89338">
        <ele>852</ele>
        <time>2010-10-29T12:12:44Z</time>
      </trkpt>
      <trkpt lat="48.00823" lon="6.89307">
        <ele>846</ele>
        <time>2010-10-29T12:12:52Z</time>
      </trkpt>
      <trkpt lat="48.00825" lon="6.89279">
        <ele>846</ele>
        <time>2010-10-29T12:13:00Z</time>
      </trkpt>
      <trkpt lat="48.0083" lon="6.89257">
        <ele>853</ele>
        <time>2010-10-29T12:13:07Z</time>
      </trkpt>
      <trkpt lat="48.00837" lon="6.89248">
        <ele>858</ele>
        <time>2010-10-29T12:13:13Z</time>
      </trkpt>
      <trkpt lat="48.0084" lon="6.89245">
        <ele>858</ele>
        <time>2010-10-29T12:13:18Z</time>
      </trkpt>
      <trkpt lat="48.00832" lon="6.89238">
        <ele>848</ele>
        <time>2010-10-29T12:14:04Z</time>
      </trkpt>
      <trkpt lat="48.00832" lon="6.89238">
        <ele>848</ele>
        <time>2010-10-29T12:14:05Z</time>
      </trkpt>
      <trkpt lat="48.00827" lon="6.89234">
        <ele>844</ele>
        <time>2010-10-29T12:15:02Z</time>
      </trkpt>
      <trkpt lat="48.00827" lon="6.89233">
        <ele>844</ele>
        <time>2010-10-29T12:15:04Z</time>
      </trkpt>
      <trkpt lat="48.00829" lon="6.89232">
        <ele>844</ele>
        <time>2010-10-29T12:15:18Z</time>
      </trkpt>
      <trkpt lat="48.00839" lon="6.89223">
        <ele>856</ele>
        <time>2010-10-29T12:15:23Z</time>
      </trkpt>
      <trkpt lat="48.00843" lon="6.8922">
        <ele>856</ele>
        <time>2010-10-29T12:15:25Z</time>
      </trkpt>
      <trkpt lat="48.00859" lon="6.89202">
        <ele>855</ele>
        <time>2010-10-29T12:15:33Z</time>
      </trkpt>
      <trkpt lat="48.00873" lon="6.89186">
        <ele>855</ele>
        <time>2010-10-29T12:15:40Z</time>
      </trkpt>
      <trkpt lat="48.00888" lon="6.89176">
        <ele>856</ele>
        <time>2010-10-29T12:15:48Z</time>
      </trkpt>
      <trkpt lat="48.00904" lon="6.8917">
        <ele>858</ele>
        <time>2010-10-29T12:15:55Z</time>
      </trkpt>
      <trkpt lat="48.00918" lon="6.89166">
        <ele>858</ele>
        <time>2010-10-29T12:16:01Z</time>
      </trkpt>
      <trkpt lat="48.00932" lon="6.89169">
        <ele>859</ele>
        <time>2010-10-29T12:16:07Z</time>
      </trkpt>
      <trkpt lat="48.0094" lon="6.89176">
        <ele>858</ele>
        <time>2010-10-29T12:16:12Z</time>
      </trkpt>
      <trkpt lat="48.0095" lon="6.89188">
        <ele>858</ele>
        <time>2010-10-29T12:16:18Z</time>
      </trkpt>
      <trkpt lat="48.0096" lon="6.89206">
        <ele>858</ele>
        <time>2010-10-29T12:16:24Z</time>
      </trkpt>
      <trkpt lat="48.0097" lon="6.89222">
        <ele>859</ele>
        <time>2010-10-29T12:16:29Z</time>
      </trkpt>
      <trkpt lat="48.00982" lon="6.89241">
        <ele>858</ele>
        <time>2010-10-29T12:16:35Z</time>
      </trkpt>
      <trkpt lat="48.00993" lon="6.89257">
        <ele>861</ele>
        <time>2010-10-29T12:16:40Z</time>
      </trkpt>
      <trkpt lat="48.01008" lon="6.89275">
        <ele>851</ele>
        <time>2010-10-29T12:16:46Z</time>
      </trkpt>
      <trkpt lat="48.0102" lon="6.8929">
        <ele>849</ele>
        <time>2010-10-29T12:16:52Z</time>
      </trkpt>
      <trkpt lat="48.01025" lon="6.8931">
        <ele>850</ele>
        <time>2010-10-29T12:16:59Z</time>
      </trkpt>
      <trkpt lat="48.01032" lon="6.89332">
        <ele>850</ele>
        <time>2010-10-29T12:17:06Z</time>
      </trkpt>
      <trkpt lat="48.01039" lon="6.89357">
        <ele>857</ele>
        <time>2010-10-29T12:17:15Z</time>
      </trkpt>
      <trkpt lat="48.01045" lon="6.8938">
        <ele>858</ele>
        <time>2010-10-29T12:17:23Z</time>
      </trkpt>
      <trkpt lat="48.01054" lon="6.89411">
        <ele>858</ele>
        <time>2010-10-29T12:17:33Z</time>
      </trkpt>
      <trkpt lat="48.01059" lon="6.89437">
        <ele>865</ele>
        <time>2010-10-29T12:17:41Z</time>
      </trkpt>
      <trkpt lat="48.01065" lon="6.8947">
        <ele>867</ele>
        <time>2010-10-29T12:17:51Z</time>
      </trkpt>
      <trkpt lat="48.01072" lon="6.89497">
        <ele>866</ele>
        <time>2010-10-29T12:18:00Z</time>
      </trkpt>
      <trkpt lat="48.01074" lon="6.89501">
        <ele>868</ele>
        <time>2010-10-29T12:18:01Z</time>
      </trkpt>
      <trkpt lat="48.01081" lon="6.89511">
        <ele>869</ele>
        <time>2010-10-29T12:18:03Z</time>
      </trkpt>
      <trkpt lat="48.01105" lon="6.89542">
        <ele>854</ele>
        <time>2010-10-29T12:18:08Z</time>
      </trkpt>
      <trkpt lat="48.01119" lon="6.89562">
        <ele>853</ele>
        <time>2010-10-29T12:18:11Z</time>
      </trkpt>
      <trkpt lat="48.01135" lon="6.89575">
        <ele>850</ele>
        <time>2010-10-29T12:18:14Z</time>
      </trkpt>
      <trkpt lat="48.01141" lon="6.89579">
        <ele>849</ele>
        <time>2010-10-29T12:18:15Z</time>
      </trkpt>
      <trkpt lat="48.01151" lon="6.89589">
        <ele>849</ele>
        <time>2010-10-29T12:18:17Z</time>
      </trkpt>
      <trkpt lat="48.01159" lon="6.89604">
        <ele>850</ele>
        <time>2010-10-29T12:18:19Z</time>
      </trkpt>
      <trkpt lat="48.01164" lon="6.89624">
        <ele>852</ele>
        <time>2010-10-29T12:18:21Z</time>
      </trkpt>
      <trkpt lat="48.01165" lon="6.89633">
        <ele>852</ele>
        <time>2010-10-29T12:18:22Z</time>
      </trkpt>
      <trkpt lat="48.01168" lon="6.89653">
        <ele>833</ele>
        <time>2010-10-29T12:18:24Z</time>
      </trkpt>
      <trkpt lat="48.01171" lon="6.89673">
        <ele>837</ele>
        <time>2010-10-29T12:18:26Z</time>
      </trkpt>
      <trkpt lat="48.01177" lon="6.89719">
        <ele>829</ele>
        <time>2010-10-29T12:18:30Z</time>
      </trkpt>
      <trkpt lat="48.0119" lon="6.89802">
        <ele>831</ele>
        <time>2010-10-29T12:18:37Z</time>
      </trkpt>
      <trkpt lat="48.01193" lon="6.89821">
        <ele>832</ele>
        <time>2010-10-29T12:18:39Z</time>
      </trkpt>
      <trkpt lat="48.01203" lon="6.89858">
        <ele>832</ele>
        <time>2010-10-29T12:18:44Z</time>
      </trkpt>
      <trkpt lat="48.0121" lon="6.89877">
        <ele>831</ele>
        <time>2010-10-29T12:18:47Z</time>
      </trkpt>
      <trkpt lat="48.01216" lon="6.8989">
        <ele>830</ele>
        <time>2010-10-29T12:18:49Z</time>
      </trkpt>
      <trkpt lat="48.01225" lon="6.89914">
        <ele>828</ele>
        <time>2010-10-29T12:18:53Z</time>
      </trkpt>
      <trkpt lat="48.01227" lon="6.89925">
        <ele>832</ele>
        <time>2010-10-29T12:18:55Z</time>
      </trkpt>
      <trkpt lat="48.01233" lon="6.89936">
        <ele>833</ele>
        <time>2010-10-29T12:18:59Z</time>
      </trkpt>
      <trkpt lat="48.01239" lon="6.89939">
        <ele>832</ele>
        <time>2010-10-29T12:19:01Z</time>
      </trkpt>
      <trkpt lat="48.01241" lon="6.8994">
        <ele>832</ele>
        <time>2010-10-29T12:19:02Z</time>
      </trkpt>
      <trkpt lat="48.01259" lon="6.8995">
        <ele>822</ele>
        <time>2010-10-29T12:19:08Z</time>
      </trkpt>
      <trkpt lat="48.01295" lon="6.89963">
        <ele>821</ele>
        <time>2010-10-29T12:19:15Z</time>
      </trkpt>
      <trkpt lat="48.01311" lon="6.89974">
        <ele>822</ele>
        <time>2010-10-29T12:19:21Z</time>
      </trkpt>
      <trkpt lat="48.01318" lon="6.89981">
        <ele>822</ele>
        <time>2010-10-29T12:19:26Z</time>
      </trkpt>
      <trkpt lat="48.01329" lon="6.89988">
        <ele>823</ele>
        <time>2010-10-29T12:19:32Z</time>
      </trkpt>
      <trkpt lat="48.01332" lon="6.89989">
        <ele>823</ele>
        <time>2010-10-29T12:19:34Z</time>
      </trkpt>
      <trkpt lat="48.01333" lon="6.89991">
        <ele>824</ele>
        <time>2010-10-29T12:19:38Z</time>
      </trkpt>
      <trkpt lat="48.01334" lon="6.89993">
        <ele>821</ele>
        <time>2010-10-29T12:19:39Z</time>
      </trkpt>
      <trkpt lat="48.01347" lon="6.89998">
        <ele>819</ele>
        <time>2010-10-29T12:19:46Z</time>
      </trkpt>
      <trkpt lat="48.01369" lon="6.90002">
        <ele>827</ele>
        <time>2010-10-29T12:19:53Z</time>
      </trkpt>
      <trkpt lat="48.0139" lon="6.90007">
        <ele>824</ele>
        <time>2010-10-29T12:20:01Z</time>
      </trkpt>
      <trkpt lat="48.01398" lon="6.90004">
        <ele>822</ele>
        <time>2010-10-29T12:20:04Z</time>
      </trkpt>
      <trkpt lat="48.01404" lon="6.89994">
        <ele>812</ele>
        <time>2010-10-29T12:20:06Z</time>
      </trkpt>
      <trkpt lat="48.01408" lon="6.89985">
        <ele>811</ele>
        <time>2010-10-29T12:20:08Z</time>
      </trkpt>
      <trkpt lat="48.01416" lon="6.89976">
        <ele>811</ele>
        <time>2010-10-29T12:20:11Z</time>
      </trkpt>
      <trkpt lat="48.01423" lon="6.89973">
        <ele>804</ele>
        <time>2010-10-29T12:20:13Z</time>
      </trkpt>
      <trkpt lat="48.01446" lon="6.8998">
        <ele>802</ele>
        <time>2010-10-29T12:20:17Z</time>
      </trkpt>
      <trkpt lat="48.01453" lon="6.89985">
        <ele>802</ele>
        <time>2010-10-29T12:20:18Z</time>
      </trkpt>
      <trkpt lat="48.01482" lon="6.90004">
        <ele>808</ele>
        <time>2010-10-29T12:20:23Z</time>
      </trkpt>
      <trkpt lat="48.01503" lon="6.90017">
        <ele>799</ele>
        <time>2010-10-29T12:20:29Z</time>
      </trkpt>
      <trkpt lat="48.01515" lon="6.90024">
        <ele>799</ele>
        <time>2010-10-29T12:20:35Z</time>
      </trkpt>
      <trkpt lat="48.01517" lon="6.90026">
        <ele>799</ele>
        <time>2010-10-29T12:20:36Z</time>
      </trkpt>
      <trkpt lat="48.01517" lon="6.90019">
        <ele>798</ele>
        <time>2010-10-29T12:20:40Z</time>
      </trkpt>
      <trkpt lat="48.01508" lon="6.90007">
        <ele>799</ele>
        <time>2010-10-29T12:20:45Z</time>
      </trkpt>
      <trkpt lat="48.01501" lon="6.89997">
        <ele>797</ele>
        <time>2010-10-29T12:20:48Z</time>
      </trkpt>
      <trkpt lat="48.01485" lon="6.8997">
        <ele>798</ele>
        <time>2010-10-29T12:20:53Z</time>
      </trkpt>
      <trkpt lat="48.01472" lon="6.89948">
        <ele>797</ele>
        <time>2010-10-29T12:20:56Z</time>
      </trkpt>
      <trkpt lat="48.01463" lon="6.89933">
        <ele>797</ele>
        <time>2010-10-29T12:20:58Z</time>
      </trkpt>
      <trkpt lat="48.01456" lon="6.89919">
        <ele>797</ele>
        <time>2010-10-29T12:21:00Z</time>
      </trkpt>
      <trkpt lat="48.01451" lon="6.89901">
        <ele>787</ele>
        <time>2010-10-29T12:21:03Z</time>
      </trkpt>
      <trkpt lat="48.01445" lon="6.89882">
        <ele>786</ele>
        <time>2010-10-29T12:21:06Z</time>
      </trkpt>
      <trkpt lat="48.01442" lon="6.89875">
        <ele>785</ele>
        <time>2010-10-29T12:21:07Z</time>
      </trkpt>
      <trkpt lat="48.01433" lon="6.89858">
        <ele>783</ele>
        <time>2010-10-29T12:21:09Z</time>
      </trkpt>
      <trkpt lat="48.01418" lon="6.8984">
        <ele>780</ele>
        <time>2010-10-29T12:21:11Z</time>
      </trkpt>
      <trkpt lat="48.01404" lon="6.89823">
        <ele>777</ele>
        <time>2010-10-29T12:21:13Z</time>
      </trkpt>
      <trkpt lat="48.01373" lon="6.89781">
        <ele>774</ele>
        <time>2010-10-29T12:21:18Z</time>
      </trkpt>
      <trkpt lat="48.01364" lon="6.8977">
        <ele>773</ele>
        <time>2010-10-29T12:21:20Z</time>
      </trkpt>
      <trkpt lat="48.01353" lon="6.89759">
        <ele>773</ele>
        <time>2010-10-29T12:21:23Z</time>
      </trkpt>
      <trkpt lat="48.01356" lon="6.89739">
        <ele>766</ele>
        <time>2010-10-29T12:21:26Z</time>
      </trkpt>
      <trkpt lat="48.0136" lon="6.8973">
        <ele>765</ele>
        <time>2010-10-29T12:21:27Z</time>
      </trkpt>
      <trkpt lat="48.01367" lon="6.89708">
        <ele>763</ele>
        <time>2010-10-29T12:21:29Z</time>
      </trkpt>
      <trkpt lat="48.01374" lon="6.89684">
        <ele>761</ele>
        <time>2010-10-29T12:21:31Z</time>
      </trkpt>
      <trkpt lat="48.01381" lon="6.89647">
        <ele>751</ele>
        <time>2010-10-29T12:21:34Z</time>
      </trkpt>
      <trkpt lat="48.01382" lon="6.89634">
        <ele>750</ele>
        <time>2010-10-29T12:21:35Z</time>
      </trkpt>
      <trkpt lat="48.01384" lon="6.89622">
        <ele>749</ele>
        <time>2010-10-29T12:21:36Z</time>
      </trkpt>
      <trkpt lat="48.01385" lon="6.89584">
        <ele>746</ele>
        <time>2010-10-29T12:21:39Z</time>
      </trkpt>
      <trkpt lat="48.01383" lon="6.89559">
        <ele>740</ele>
        <time>2010-10-29T12:21:41Z</time>
      </trkpt>
      <trkpt lat="48.0138" lon="6.89535">
        <ele>739</ele>
        <time>2010-10-29T12:21:43Z</time>
      </trkpt>
      <trkpt lat="48.01377" lon="6.89484">
        <ele>734</ele>
        <time>2010-10-29T12:21:47Z</time>
      </trkpt>
      <trkpt lat="48.01377" lon="6.89457">
        <ele>733</ele>
        <time>2010-10-29T12:21:49Z</time>
      </trkpt>
      <trkpt lat="48.01381" lon="6.894">
        <ele>727</ele>
        <time>2010-10-29T12:21:53Z</time>
      </trkpt>
      <trkpt lat="48.01391" lon="6.89355">
        <ele>723</ele>
        <time>2010-10-29T12:21:56Z</time>
      </trkpt>
      <trkpt lat="48.01394" lon="6.89341">
        <ele>720</ele>
        <time>2010-10-29T12:21:57Z</time>
      </trkpt>
      <trkpt lat="48.01397" lon="6.89327">
        <ele>716</ele>
        <time>2010-10-29T12:21:58Z</time>
      </trkpt>
      <trkpt lat="48.01402" lon="6.89275">
        <ele>714</ele>
        <time>2010-10-29T12:22:02Z</time>
      </trkpt>
      <trkpt lat="48.01402" lon="6.89263">
        <ele>712</ele>
        <time>2010-10-29T12:22:03Z</time>
      </trkpt>
      <trkpt lat="48.01404" lon="6.8923">
        <ele>708</ele>
        <time>2010-10-29T12:22:06Z</time>
      </trkpt>
      <trkpt lat="48.01404" lon="6.89219">
        <ele>708</ele>
        <time>2010-10-29T12:22:07Z</time>
      </trkpt>
      <trkpt lat="48.01408" lon="6.8918">
        <ele>703</ele>
        <time>2010-10-29T12:22:11Z</time>
      </trkpt>
      <trkpt lat="48.01408" lon="6.89147">
        <ele>699</ele>
        <time>2010-10-29T12:22:16Z</time>
      </trkpt>
      <trkpt lat="48.01408" lon="6.89141">
        <ele>699</ele>
        <time>2010-10-29T12:22:17Z</time>
      </trkpt>
      <trkpt lat="48.01406" lon="6.89119">
        <ele>699</ele>
        <time>2010-10-29T12:22:21Z</time>
      </trkpt>
      <trkpt lat="48.01398" lon="6.89101">
        <ele>698</ele>
        <time>2010-10-29T12:22:26Z</time>
      </trkpt>
      <trkpt lat="48.0139" lon="6.89087">
        <ele>698</ele>
        <time>2010-10-29T12:22:31Z</time>
      </trkpt>
      <trkpt lat="48.01379" lon="6.89074">
        <ele>695</ele>
        <time>2010-10-29T12:22:38Z</time>
      </trkpt>
      <trkpt lat="48.01366" lon="6.89057">
        <ele>695</ele>
        <time>2010-10-29T12:22:45Z</time>
      </trkpt>
      <trkpt lat="48.0135" lon="6.89041">
        <ele>695</ele>
        <time>2010-10-29T12:22:52Z</time>
      </trkpt>
      <trkpt lat="48.01345" lon="6.89036">
        <ele>695</ele>
        <time>2010-10-29T12:22:54Z</time>
      </trkpt>
      <trkpt lat="48.01317" lon="6.89019">
        <ele>701</ele>
        <time>2010-10-29T12:23:03Z</time>
      </trkpt>
      <trkpt lat="48.01289" lon="6.89002">
        <ele>703</ele>
        <time>2010-10-29T12:23:10Z</time>
      </trkpt>
      <trkpt lat="48.0126" lon="6.8898">
        <ele>697</ele>
        <time>2010-10-29T12:23:17Z</time>
      </trkpt>
      <trkpt lat="48.01235" lon="6.88954">
        <ele>703</ele>
        <time>2010-10-29T12:23:24Z</time>
      </trkpt>
      <trkpt lat="48.01214" lon="6.88922">
        <ele>702</ele>
        <time>2010-10-29T12:23:31Z</time>
      </trkpt>
      <trkpt lat="48.01195" lon="6.88889">
        <ele>695</ele>
        <time>2010-10-29T12:23:38Z</time>
      </trkpt>
      <trkpt lat="48.01175" lon="6.88848">
        <ele>694</ele>
        <time>2010-10-29T12:23:46Z</time>
      </trkpt>
      <trkpt lat="48.01173" lon="6.88842">
        <ele>693</ele>
        <time>2010-10-29T12:23:47Z</time>
      </trkpt>
      <trkpt lat="48.01162" lon="6.88804">
        <ele>695</ele>
        <time>2010-10-29T12:23:53Z</time>
      </trkpt>
      <trkpt lat="48.01152" lon="6.88776">
        <ele>693</ele>
        <time>2010-10-29T12:23:57Z</time>
      </trkpt>
      <trkpt lat="48.01129" lon="6.88733">
        <ele>688</ele>
        <time>2010-10-29T12:24:03Z</time>
      </trkpt>
      <trkpt lat="48.01119" lon="6.88718">
        <ele>688</ele>
        <time>2010-10-29T12:24:05Z</time>
      </trkpt>
      <trkpt lat="48.01101" lon="6.88673">
        <ele>688</ele>
        <time>2010-10-29T12:24:10Z</time>
      </trkpt>
      <trkpt lat="48.01094" lon="6.88655">
        <ele>686</ele>
        <time>2010-10-29T12:24:12Z</time>
      </trkpt>
      <trkpt lat="48.01078" lon="6.88622">
        <ele>686</ele>
        <time>2010-10-29T12:24:16Z</time>
      </trkpt>
      <trkpt lat="48.01059" lon="6.88597">
        <ele>684</ele>
        <time>2010-10-29T12:24:19Z</time>
      </trkpt>
      <trkpt lat="48.01047" lon="6.88579">
        <ele>679</ele>
        <time>2010-10-29T12:24:21Z</time>
      </trkpt>
      <trkpt lat="48.01037" lon="6.88561">
        <ele>679</ele>
        <time>2010-10-29T12:24:23Z</time>
      </trkpt>
      <trkpt lat="48.01023" lon="6.88535">
        <ele>677</ele>
        <time>2010-10-29T12:24:26Z</time>
      </trkpt>
      <trkpt lat="48.01003" lon="6.88498">
        <ele>672</ele>
        <time>2010-10-29T12:24:30Z</time>
      </trkpt>
      <trkpt lat="48.00989" lon="6.88473">
        <ele>668</ele>
        <time>2010-10-29T12:24:33Z</time>
      </trkpt>
      <trkpt lat="48.00962" lon="6.88454">
        <ele>666</ele>
        <time>2010-10-29T12:24:37Z</time>
      </trkpt>
      <trkpt lat="48.00928" lon="6.88448">
        <ele>665</ele>
        <time>2010-10-29T12:24:41Z</time>
      </trkpt>
      <trkpt lat="48.0091" lon="6.88445">
        <ele>661</ele>
        <time>2010-10-29T12:24:43Z</time>
      </trkpt>
      <trkpt lat="48.00901" lon="6.88444">
        <ele>661</ele>
        <time>2010-10-29T12:24:44Z</time>
      </trkpt>
      <trkpt lat="48.00882" lon="6.88442">
        <ele>660</ele>
        <time>2010-10-29T12:24:46Z</time>
      </trkpt>
      <trkpt lat="48.00862" lon="6.88445">
        <ele>659</ele>
        <time>2010-10-29T12:24:48Z</time>
      </trkpt>
      <trkpt lat="48.00826" lon="6.8846">
        <ele>655</ele>
        <time>2010-10-29T12:24:52Z</time>
      </trkpt>
      <trkpt lat="48.00795" lon="6.88458">
        <ele>655</ele>
        <time>2010-10-29T12:24:56Z</time>
      </trkpt>
      <trkpt lat="48.00763" lon="6.88443">
        <ele>653</ele>
        <time>2010-10-29T12:25:00Z</time>
      </trkpt>
      <trkpt lat="48.00728" lon="6.88428">
        <ele>651</ele>
        <time>2010-10-29T12:25:05Z</time>
      </trkpt>
      <trkpt lat="48.00722" lon="6.88423">
        <ele>651</ele>
        <time>2010-10-29T12:25:07Z</time>
      </trkpt>
      <trkpt lat="48.00721" lon="6.88421">
        <ele>651</ele>
        <time>2010-10-29T12:25:08Z</time>
      </trkpt>
      <trkpt lat="48.00719" lon="6.88416">
        <ele>650</ele>
        <time>2010-10-29T12:25:12Z</time>
      </trkpt>
      <trkpt lat="48.00723" lon="6.88419">
        <ele>651</ele>
        <time>2010-10-29T12:28:37Z</time>
      </trkpt>
      <trkpt lat="48.00723" lon="6.88419">
        <ele>651</ele>
        <time>2010-10-29T12:28:38Z</time>
      </trkpt>
      <trkpt lat="48.00722" lon="6.88417">
        <ele>651</ele>
        <time>2010-10-29T12:28:42Z</time>
      </trkpt>
      <trkpt lat="48.00722" lon="6.88415">
        <ele>650</ele>
        <time>2010-10-29T12:28:43Z</time>
      </trkpt>
      <trkpt lat="48.00723" lon="6.88407">
        <ele>650</ele>
        <time>2010-10-29T12:28:44Z</time>
      </trkpt>
      <trkpt lat="48.0073" lon="6.88378">
        <ele>650</ele>
        <time>2010-10-29T12:28:49Z</time>
      </trkpt>
      <trkpt lat="48.00734" lon="6.88357">
        <ele>650</ele>
        <time>2010-10-29T12:28:52Z</time>
      </trkpt>
      <trkpt lat="48.00742" lon="6.88304">
        <ele>648</ele>
        <time>2010-10-29T12:28:59Z</time>
      </trkpt>
      <trkpt lat="48.00745" lon="6.8828">
        <ele>648</ele>
        <time>2010-10-29T12:29:02Z</time>
      </trkpt>
      <trkpt lat="48.00747" lon="6.88239">
        <ele>647</ele>
        <time>2010-10-29T12:29:08Z</time>
      </trkpt>
      <trkpt lat="48.00748" lon="6.88226">
        <ele>647</ele>
        <time>2010-10-29T12:29:10Z</time>
      </trkpt>
      <trkpt lat="48.0075" lon="6.88207">
        <ele>646</ele>
        <time>2010-10-29T12:29:13Z</time>
      </trkpt>
      <trkpt lat="48.00747" lon="6.8815">
        <ele>645</ele>
        <time>2010-10-29T12:29:21Z</time>
      </trkpt>
      <trkpt lat="48.00735" lon="6.88099">
        <ele>645</ele>
        <time>2010-10-29T12:29:28Z</time>
      </trkpt>
      <trkpt lat="48.00711" lon="6.88039">
        <ele>644</ele>
        <time>2010-10-29T12:29:37Z</time>
      </trkpt>
      <trkpt lat="48.00687" lon="6.87981">
        <ele>644</ele>
        <time>2010-10-29T12:29:46Z</time>
      </trkpt>
      <trkpt lat="48.00672" lon="6.87947">
        <ele>644</ele>
        <time>2010-10-29T12:29:51Z</time>
      </trkpt>
      <trkpt lat="48.00645" lon="6.87882">
        <ele>644</ele>
        <time>2010-10-29T12:30:00Z</time>
      </trkpt>
      <trkpt lat="48.00626" lon="6.87829">
        <ele>644</ele>
        <time>2010-10-29T12:30:08Z</time>
      </trkpt>
      <trkpt lat="48.00602" lon="6.87765">
        <ele>643</ele>
        <time>2010-10-29T12:30:19Z</time>
      </trkpt>
      <trkpt lat="48.00586" lon="6.87724">
        <ele>643</ele>
        <time>2010-10-29T12:30:27Z</time>
      </trkpt>
      <trkpt lat="48.00575" lon="6.87703">
        <ele>640</ele>
        <time>2010-10-29T12:30:33Z</time>
      </trkpt>
      <trkpt lat="48.00573" lon="6.87699">
        <ele>640</ele>
        <time>2010-10-29T12:30:34Z</time>
      </trkpt>
      <trkpt lat="48.00557" lon="6.87697">
        <ele>639</ele>
        <time>2010-10-29T12:30:38Z</time>
      </trkpt>
      <trkpt lat="48.00553" lon="6.87714">
        <ele>639</ele>
        <time>2010-10-29T12:30:41Z</time>
      </trkpt>
      <trkpt lat="48.00559" lon="6.87734">
        <ele>639</ele>
        <time>2010-10-29T12:30:45Z</time>
      </trkpt>
      <trkpt lat="48.00562" lon="6.87749">
        <ele>639</ele>
        <time>2010-10-29T12:30:49Z</time>
      </trkpt>
      <trkpt lat="48.00562" lon="6.87758">
        <ele>640</ele>
        <time>2010-10-29T12:30:52Z</time>
      </trkpt>
      <trkpt lat="48.00563" lon="6.87783">
        <ele>640</ele>
        <time>2010-10-29T12:31:00Z</time>
      </trkpt>
      <trkpt lat="48.00564" lon="6.87807">
        <ele>641</ele>
        <time>2010-10-29T12:31:07Z</time>
      </trkpt>
      <trkpt lat="48.00565" lon="6.87832">
        <ele>641</ele>
        <time>2010-10-29T12:31:14Z</time>
      </trkpt>
      <trkpt lat="48.00565" lon="6.87867">
        <ele>645</ele>
        <time>2010-10-29T12:31:24Z</time>
      </trkpt>
      <trkpt lat="48.00565" lon="6.87888">
        <ele>646</ele>
        <time>2010-10-29T12:31:31Z</time>
      </trkpt>
      <trkpt lat="48.00563" lon="6.87892">
        <ele>646</ele>
        <time>2010-10-29T12:31:34Z</time>
      </trkpt>
      <trkpt lat="48.00557" lon="6.87888">
        <ele>646</ele>
        <time>2010-10-29T12:31:42Z</time>
      </trkpt>
      <trkpt lat="48.00557" lon="6.87888">
        <ele>646</ele>
        <time>2010-10-29T12:31:43Z</time>
      </trkpt>
      <trkpt lat="48.00558" lon="6.87889">
        <ele>646</ele>
        <time>2010-10-29T12:33:11Z</time>
      </trkpt>
      <trkpt lat="48.0055" lon="6.87883">
        <ele>646</ele>
        <time>2010-10-29T12:33:15Z</time>
      </trkpt>
      <trkpt lat="48.00539" lon="6.87874">
        <ele>646</ele>
        <time>2010-10-29T12:33:21Z</time>
      </trkpt>
      <trkpt lat="48.00519" lon="6.87859">
        <ele>645</ele>
        <time>2010-10-29T12:33:28Z</time>
      </trkpt>
      <trkpt lat="48.00495" lon="6.87841">
        <ele>644</ele>
        <time>2010-10-29T12:33:35Z</time>
      </trkpt>
      <trkpt lat="48.00473" lon="6.87824">
        <ele>641</ele>
        <time>2010-10-29T12:33:42Z</time>
      </trkpt>
      <trkpt lat="48.0046" lon="6.87816">
        <ele>641</ele>
        <time>2010-10-29T12:33:46Z</time>
      </trkpt>
      <trkpt lat="48.00449" lon="6.87805">
        <ele>641</ele>
        <time>2010-10-29T12:33:51Z</time>
      </trkpt>
      <trkpt lat="48.00447" lon="6.87803">
        <ele>641</ele>
        <time>2010-10-29T12:33:52Z</time>
      </trkpt>
      <trkpt lat="48.00436" lon="6.87793">
        <ele>640</ele>
        <time>2010-10-29T12:33:57Z</time>
      </trkpt>
      <trkpt lat="48.00434" lon="6.8779">
        <ele>640</ele>
        <time>2010-10-29T12:33:58Z</time>
      </trkpt>
      <trkpt lat="48.00419" lon="6.87768">
        <ele>639</ele>
        <time>2010-10-29T12:34:05Z</time>
      </trkpt>
      <trkpt lat="48.00401" lon="6.87739">
        <ele>638</ele>
        <time>2010-10-29T12:34:14Z</time>
      </trkpt>
      <trkpt lat="48.00385" lon="6.87712">
        <ele>638</ele>
        <time>2010-10-29T12:34:22Z</time>
      </trkpt>
      <trkpt lat="48.00373" lon="6.87689">
        <ele>638</ele>
        <time>2010-10-29T12:34:28Z</time>
      </trkpt>
      <trkpt lat="48.00359" lon="6.87668">
        <ele>637</ele>
        <time>2010-10-29T12:34:34Z</time>
      </trkpt>
      <trkpt lat="48.00349" lon="6.87647">
        <ele>636</ele>
        <time>2010-10-29T12:34:39Z</time>
      </trkpt>
      <trkpt lat="48.00341" lon="6.87634">
        <ele>635</ele>
        <time>2010-10-29T12:34:44Z</time>
      </trkpt>
      <trkpt lat="48.00338" lon="6.87638">
        <ele>635</ele>
        <time>2010-10-29T12:34:48Z</time>
      </trkpt>
      <trkpt lat="48.00347" lon="6.87637">
        <ele>635</ele>
        <time>2010-10-29T12:34:53Z</time>
      </trkpt>
      <trkpt lat="48.00343" lon="6.87629">
        <ele>635</ele>
        <time>2010-10-29T12:34:56Z</time>
      </trkpt>
      <trkpt lat="48.00339" lon="6.87614">
        <ele>635</ele>
        <time>2010-10-29T12:35:01Z</time>
      </trkpt>
      <trkpt lat="48.00329" lon="6.8759">
        <ele>637</ele>
        <time>2010-10-29T12:35:08Z</time>
      </trkpt>
      <trkpt lat="48.00315" lon="6.87555">
        <ele>636</ele>
        <time>2010-10-29T12:35:15Z</time>
      </trkpt>
      <trkpt lat="48.00309" lon="6.87536">
        <ele>636</ele>
        <time>2010-10-29T12:35:20Z</time>
      </trkpt>
      <trkpt lat="48.00296" lon="6.87522">
        <ele>636</ele>
        <time>2010-10-29T12:35:25Z</time>
      </trkpt>
      <trkpt lat="48.00281" lon="6.87507">
        <ele>636</ele>
        <time>2010-10-29T12:35:31Z</time>
      </trkpt>
      <trkpt lat="48.0027" lon="6.87481">
        <ele>635</ele>
        <time>2010-10-29T12:35:39Z</time>
      </trkpt>
      <trkpt lat="48.00266" lon="6.87453">
        <ele>635</ele>
        <time>2010-10-29T12:35:47Z</time>
      </trkpt>
      <trkpt lat="48.00259" lon="6.87449">
        <ele>635</ele>
        <time>2010-10-29T12:35:51Z</time>
      </trkpt>
      <trkpt lat="48.00252" lon="6.87441">
        <ele>635</ele>
        <time>2010-10-29T12:35:56Z</time>
      </trkpt>
      <trkpt lat="48.00244" lon="6.87436">
        <ele>637</ele>
        <time>2010-10-29T12:36:00Z</time>
      </trkpt>
      <trkpt lat="48.00223" lon="6.8743">
        <ele>637</ele>
        <time>2010-10-29T12:36:09Z</time>
      </trkpt>
      <trkpt lat="48.00214" lon="6.87431">
        <ele>637</ele>
        <time>2010-10-29T12:36:15Z</time>
      </trkpt>
      <trkpt lat="48.00213" lon="6.87431">
        <ele>637</ele>
        <time>2010-10-29T12:36:16Z</time>
      </trkpt>
      <trkpt lat="48.00201" lon="6.87424">
        <ele>638</ele>
        <time>2010-10-29T12:36:23Z</time>
      </trkpt>
      <trkpt lat="48.00187" lon="6.87419">
        <ele>638</ele>
        <time>2010-10-29T12:36:30Z</time>
      </trkpt>
      <trkpt lat="48.00169" lon="6.87414">
        <ele>637</ele>
        <time>2010-10-29T12:36:38Z</time>
      </trkpt>
      <trkpt lat="48.00154" lon="6.87409">
        <ele>637</ele>
        <time>2010-10-29T12:36:43Z</time>
      </trkpt>
      <trkpt lat="48.00129" lon="6.87398">
        <ele>636</ele>
        <time>2010-10-29T12:36:51Z</time>
      </trkpt>
      <trkpt lat="48.00107" lon="6.87382">
        <ele>635</ele>
        <time>2010-10-29T12:36:58Z</time>
      </trkpt>
      <trkpt lat="48.00101" lon="6.87376">
        <ele>635</ele>
        <time>2010-10-29T12:37:00Z</time>
      </trkpt>
      <trkpt lat="48.00077" lon="6.87352">
        <ele>635</ele>
        <time>2010-10-29T12:37:07Z</time>
      </trkpt>
      <trkpt lat="48.00064" lon="6.87336">
        <ele>635</ele>
        <time>2010-10-29T12:37:11Z</time>
      </trkpt>
      <trkpt lat="48.00055" lon="6.87324">
        <ele>631</ele>
        <time>2010-10-29T12:37:14Z</time>
      </trkpt>
      <trkpt lat="48.00031" lon="6.87284">
        <ele>631</ele>
        <time>2010-10-29T12:37:21Z</time>
      </trkpt>
      <trkpt lat="48.00013" lon="6.87254">
        <ele>629</ele>
        <time>2010-10-29T12:37:27Z</time>
      </trkpt>
      <trkpt lat="48.00002" lon="6.87235">
        <ele>627</ele>
        <time>2010-10-29T12:37:33Z</time>
      </trkpt>
      <trkpt lat="47.99988" lon="6.87225">
        <ele>630</ele>
        <time>2010-10-29T12:37:38Z</time>
      </trkpt>
      <trkpt lat="47.99977" lon="6.87228">
        <ele>631</ele>
        <time>2010-10-29T12:37:43Z</time>
      </trkpt>
      <trkpt lat="47.99966" lon="6.87231">
        <ele>632</ele>
        <time>2010-10-29T12:37:48Z</time>
      </trkpt>
      <trkpt lat="47.99953" lon="6.87224">
        <ele>633</ele>
        <time>2010-10-29T12:37:55Z</time>
      </trkpt>
      <trkpt lat="47.99952" lon="6.87222">
        <ele>633</ele>
        <time>2010-10-29T12:37:56Z</time>
      </trkpt>
      <trkpt lat="47.9994" lon="6.8721">
        <ele>633</ele>
        <time>2010-10-29T12:38:04Z</time>
      </trkpt>
      <trkpt lat="47.99925" lon="6.87197">
        <ele>633</ele>
        <time>2010-10-29T12:38:14Z</time>
      </trkpt>
      <trkpt lat="47.99913" lon="6.87185">
        <ele>643</ele>
        <time>2010-10-29T12:38:22Z</time>
      </trkpt>
      <trkpt lat="47.99899" lon="6.87172">
        <ele>643</ele>
        <time>2010-10-29T12:38:31Z</time>
      </trkpt>
      <trkpt lat="47.99885" lon="6.87153">
        <ele>641</ele>
        <time>2010-10-29T12:38:42Z</time>
      </trkpt>
      <trkpt lat="47.99875" lon="6.87136">
        <ele>642</ele>
        <time>2010-10-29T12:38:51Z</time>
      </trkpt>
      <trkpt lat="47.99865" lon="6.87116">
        <ele>642</ele>
        <time>2010-10-29T12:39:01Z</time>
      </trkpt>
      <trkpt lat="47.99862" lon="6.8711">
        <ele>643</ele>
        <time>2010-10-29T12:39:04Z</time>
      </trkpt>
      <trkpt lat="47.99855" lon="6.87101">
        <ele>644</ele>
        <time>2010-10-29T12:39:10Z</time>
      </trkpt>
      <trkpt lat="47.99844" lon="6.87087">
        <ele>646</ele>
        <time>2010-10-29T12:39:19Z</time>
      </trkpt>
      <trkpt lat="47.99831" lon="6.8707">
        <ele>652</ele>
        <time>2010-10-29T12:39:30Z</time>
      </trkpt>
      <trkpt lat="47.9982" lon="6.87056">
        <ele>654</ele>
        <time>2010-10-29T12:39:39Z</time>
      </trkpt>
      <trkpt lat="47.99818" lon="6.87053">
        <ele>655</ele>
        <time>2010-10-29T12:39:41Z</time>
      </trkpt>
      <trkpt lat="47.99809" lon="6.87039">
        <ele>655</ele>
        <time>2010-10-29T12:39:49Z</time>
      </trkpt>
      <trkpt lat="47.99798" lon="6.87025">
        <ele>656</ele>
        <time>2010-10-29T12:39:58Z</time>
      </trkpt>
      <trkpt lat="47.99789" lon="6.87009">
        <ele>658</ele>
        <time>2010-10-29T12:40:07Z</time>
      </trkpt>
      <trkpt lat="47.99782" lon="6.86999">
        <ele>653</ele>
        <time>2010-10-29T12:40:14Z</time>
      </trkpt>
      <trkpt lat="47.99778" lon="6.8699">
        <ele>654</ele>
        <time>2010-10-29T12:40:19Z</time>
      </trkpt>
      <trkpt lat="47.99771" lon="6.86975">
        <ele>653</ele>
        <time>2010-10-29T12:40:27Z</time>
      </trkpt>
      <trkpt lat="47.99767" lon="6.8697">
        <ele>654</ele>
        <time>2010-10-29T12:40:31Z</time>
      </trkpt>
      <trkpt lat="47.99762" lon="6.86963">
        <ele>653</ele>
        <time>2010-10-29T12:40:36Z</time>
      </trkpt>
      <trkpt lat="47.99755" lon="6.86952">
        <ele>653</ele>
        <time>2010-10-29T12:40:43Z</time>
      </trkpt>
      <trkpt lat="47.99747" lon="6.8694">
        <ele>672</ele>
        <time>2010-10-29T12:40:51Z</time>
      </trkpt>
      <trkpt lat="47.99741" lon="6.86922">
        <ele>666</ele>
        <time>2010-10-29T12:41:00Z</time>
      </trkpt>
      <trkpt lat="47.99738" lon="6.86913">
        <ele>663</ele>
        <time>2010-10-29T12:41:04Z</time>
      </trkpt>
      <trkpt lat="47.99733" lon="6.86904">
        <ele>665</ele>
        <time>2010-10-29T12:41:08Z</time>
      </trkpt>
      <trkpt lat="47.99721" lon="6.86881">
        <ele>668</ele>
        <time>2010-10-29T12:41:19Z</time>
      </trkpt>
      <trkpt lat="47.99716" lon="6.8687">
        <ele>668</ele>
        <time>2010-10-29T12:41:25Z</time>
      </trkpt>
      <trkpt lat="47.99709" lon="6.86857">
        <ele>669</ele>
        <time>2010-10-29T12:41:32Z</time>
      </trkpt>
      <trkpt lat="47.99706" lon="6.86852">
        <ele>670</ele>
        <time>2010-10-29T12:41:35Z</time>
      </trkpt>
      <trkpt lat="47.997" lon="6.86841">
        <ele>671</ele>
        <time>2010-10-29T12:41:42Z</time>
      </trkpt>
      <trkpt lat="47.99688" lon="6.86829">
        <ele>668</ele>
        <time>2010-10-29T12:41:51Z</time>
      </trkpt>
      <trkpt lat="47.99683" lon="6.86824">
        <ele>670</ele>
        <time>2010-10-29T12:41:55Z</time>
      </trkpt>
      <trkpt lat="47.99673" lon="6.86811">
        <ele>669</ele>
        <time>2010-10-29T12:42:04Z</time>
      </trkpt>
      <trkpt lat="47.99666" lon="6.86799">
        <ele>688</ele>
        <time>2010-10-29T12:42:12Z</time>
      </trkpt>
      <trkpt lat="47.99662" lon="6.8679">
        <ele>687</ele>
        <time>2010-10-29T12:42:18Z</time>
      </trkpt>
      <trkpt lat="47.99655" lon="6.86774">
        <ele>685</ele>
        <time>2010-10-29T12:42:26Z</time>
      </trkpt>
      <trkpt lat="47.99648" lon="6.86756">
        <ele>683</ele>
        <time>2010-10-29T12:42:35Z</time>
      </trkpt>
      <trkpt lat="47.99638" lon="6.86732">
        <ele>678</ele>
        <time>2010-10-29T12:42:46Z</time>
      </trkpt>
      <trkpt lat="47.99631" lon="6.86712">
        <ele>679</ele>
        <time>2010-10-29T12:42:55Z</time>
      </trkpt>
      <trkpt lat="47.9962" lon="6.86693">
        <ele>680</ele>
        <time>2010-10-29T12:43:05Z</time>
      </trkpt>
      <trkpt lat="47.99611" lon="6.8668">
        <ele>681</ele>
        <time>2010-10-29T12:43:13Z</time>
      </trkpt>
      <trkpt lat="47.99599" lon="6.86662">
        <ele>678</ele>
        <time>2010-10-29T12:43:24Z</time>
      </trkpt>
      <trkpt lat="47.9959" lon="6.86647">
        <ele>678</ele>
        <time>2010-10-29T12:43:32Z</time>
      </trkpt>
      <trkpt lat="47.99582" lon="6.86633">
        <ele>692</ele>
        <time>2010-10-29T12:43:40Z</time>
      </trkpt>
      <trkpt lat="47.99573" lon="6.86619">
        <ele>692</ele>
        <time>2010-10-29T12:43:48Z</time>
      </trkpt>
      <trkpt lat="47.99561" lon="6.86602">
        <ele>691</ele>
        <time>2010-10-29T12:43:58Z</time>
      </trkpt>
      <trkpt lat="47.99549" lon="6.86583">
        <ele>693</ele>
        <time>2010-10-29T12:44:08Z</time>
      </trkpt>
      <trkpt lat="47.99538" lon="6.86566">
        <ele>687</ele>
        <time>2010-10-29T12:44:18Z</time>
      </trkpt>
      <trkpt lat="47.99528" lon="6.86549">
        <ele>687</ele>
        <time>2010-10-29T12:44:27Z</time>
      </trkpt>
      <trkpt lat="47.99517" lon="6.86532">
        <ele>688</ele>
        <time>2010-10-29T12:44:37Z</time>
      </trkpt>
      <trkpt lat="47.99508" lon="6.86521">
        <ele>689</ele>
        <time>2010-10-29T12:44:45Z</time>
      </trkpt>
      <trkpt lat="47.99491" lon="6.86514">
        <ele>700</ele>
        <time>2010-10-29T12:44:56Z</time>
      </trkpt>
      <trkpt lat="47.9948" lon="6.86511">
        <ele>703</ele>
        <time>2010-10-29T12:45:03Z</time>
      </trkpt>
      <trkpt lat="47.99467" lon="6.86511">
        <ele>706</ele>
        <time>2010-10-29T12:45:11Z</time>
      </trkpt>
      <trkpt lat="47.99457" lon="6.8651">
        <ele>708</ele>
        <time>2010-10-29T12:45:19Z</time>
      </trkpt>
      <trkpt lat="47.99446" lon="6.86509">
        <ele>710</ele>
        <time>2010-10-29T12:45:27Z</time>
      </trkpt>
      <trkpt lat="47.99438" lon="6.86508">
        <ele>712</ele>
        <time>2010-10-29T12:45:33Z</time>
      </trkpt>
      <trkpt lat="47.99427" lon="6.86506">
        <ele>714</ele>
        <time>2010-10-29T12:45:40Z</time>
      </trkpt>
      <trkpt lat="47.99417" lon="6.86497">
        <ele>714</ele>
        <time>2010-10-29T12:45:47Z</time>
      </trkpt>
      <trkpt lat="47.99414" lon="6.86483">
        <ele>722</ele>
        <time>2010-10-29T12:45:54Z</time>
      </trkpt>
      <trkpt lat="47.99418" lon="6.8647">
        <ele>709</ele>
        <time>2010-10-29T12:46:01Z</time>
      </trkpt>
      <trkpt lat="47.99428" lon="6.86451">
        <ele>708</ele>
        <time>2010-10-29T12:46:11Z</time>
      </trkpt>
      <trkpt lat="47.99435" lon="6.86436">
        <ele>708</ele>
        <time>2010-10-29T12:46:19Z</time>
      </trkpt>
      <trkpt lat="47.99437" lon="6.86427">
        <ele>709</ele>
        <time>2010-10-29T12:46:23Z</time>
      </trkpt>
      <trkpt lat="47.99441" lon="6.86409">
        <ele>709</ele>
        <time>2010-10-29T12:46:31Z</time>
      </trkpt>
      <trkpt lat="47.99445" lon="6.86388">
        <ele>708</ele>
        <time>2010-10-29T12:46:40Z</time>
      </trkpt>
      <trkpt lat="47.99448" lon="6.86368">
        <ele>709</ele>
        <time>2010-10-29T12:46:49Z</time>
      </trkpt>
      <trkpt lat="47.9945" lon="6.86355">
        <ele>709</ele>
        <time>2010-10-29T12:46:55Z</time>
      </trkpt>
      <trkpt lat="47.99452" lon="6.86338">
        <ele>709</ele>
        <time>2010-10-29T12:47:02Z</time>
      </trkpt>
      <trkpt lat="47.99456" lon="6.8632">
        <ele>712</ele>
        <time>2010-10-29T12:47:10Z</time>
      </trkpt>
      <trkpt lat="47.99457" lon="6.86296">
        <ele>713</ele>
        <time>2010-10-29T12:47:20Z</time>
      </trkpt>
      <trkpt lat="47.99457" lon="6.86287">
        <ele>713</ele>
        <time>2010-10-29T12:47:24Z</time>
      </trkpt>
      <trkpt lat="47.99458" lon="6.86268">
        <ele>713</ele>
        <time>2010-10-29T12:47:33Z</time>
      </trkpt>
      <trkpt lat="47.99459" lon="6.86251">
        <ele>713</ele>
        <time>2010-10-29T12:47:40Z</time>
      </trkpt>
      <trkpt lat="47.99461" lon="6.86238">
        <ele>715</ele>
        <time>2010-10-29T12:47:46Z</time>
      </trkpt>
      <trkpt lat="47.99463" lon="6.86221">
        <ele>715</ele>
        <time>2010-10-29T12:47:53Z</time>
      </trkpt>
      <trkpt lat="47.99463" lon="6.86206">
        <ele>715</ele>
        <time>2010-10-29T12:47:59Z</time>
      </trkpt>
      <trkpt lat="47.99462" lon="6.86192">
        <ele>715</ele>
        <time>2010-10-29T12:48:07Z</time>
      </trkpt>
      <trkpt lat="47.99463" lon="6.86193">
        <ele>715</ele>
        <time>2010-10-29T12:48:19Z</time>
      </trkpt>
      <trkpt lat="47.99467" lon="6.86195">
        <ele>715</ele>
        <time>2010-10-29T12:48:22Z</time>
      </trkpt>
      <trkpt lat="47.99471" lon="6.86196">
        <ele>714</ele>
        <time>2010-10-29T12:48:48Z</time>
      </trkpt>
      <trkpt lat="47.99471" lon="6.86195">
        <ele>714</ele>
        <time>2010-10-29T12:48:49Z</time>
      </trkpt>
      <trkpt lat="47.99471" lon="6.86195">
        <ele>714</ele>
        <time>2010-10-29T12:48:50Z</time>
      </trkpt>
      <trkpt lat="47.9947" lon="6.86195">
        <ele>714</ele>
        <time>2010-10-29T12:48:53Z</time>
      </trkpt>
      <trkpt lat="47.99464" lon="6.86185">
        <ele>715</ele>
        <time>2010-10-29T12:48:57Z</time>
      </trkpt>
      <trkpt lat="47.99461" lon="6.8618">
        <ele>715</ele>
        <time>2010-10-29T12:48:59Z</time>
      </trkpt>
      <trkpt lat="47.99454" lon="6.86157">
        <ele>715</ele>
        <time>2010-10-29T12:49:07Z</time>
      </trkpt>
      <trkpt lat="47.99445" lon="6.86144">
        <ele>715</ele>
        <time>2010-10-29T12:49:13Z</time>
      </trkpt>
      <trkpt lat="47.99435" lon="6.86138">
        <ele>716</ele>
        <time>2010-10-29T12:49:18Z</time>
      </trkpt>
      <trkpt lat="47.99422" lon="6.86135">
        <ele>717</ele>
        <time>2010-10-29T12:49:24Z</time>
      </trkpt>
      <trkpt lat="47.99408" lon="6.86135">
        <ele>728</ele>
        <time>2010-10-29T12:49:31Z</time>
      </trkpt>
      <trkpt lat="47.9939" lon="6.86134">
        <ele>729</ele>
        <time>2010-10-29T12:49:40Z</time>
      </trkpt>
      <trkpt lat="47.99376" lon="6.86123">
        <ele>730</ele>
        <time>2010-10-29T12:49:48Z</time>
      </trkpt>
      <trkpt lat="47.99361" lon="6.86103">
        <ele>731</ele>
        <time>2010-10-29T12:49:58Z</time>
      </trkpt>
      <trkpt lat="47.99345" lon="6.86084">
        <ele>732</ele>
        <time>2010-10-29T12:50:08Z</time>
      </trkpt>
      <trkpt lat="47.99332" lon="6.86076">
        <ele>735</ele>
        <time>2010-10-29T12:50:15Z</time>
      </trkpt>
      <trkpt lat="47.99326" lon="6.86075">
        <ele>735</ele>
        <time>2010-10-29T12:50:18Z</time>
      </trkpt>
      <trkpt lat="47.9931" lon="6.86071">
        <ele>737</ele>
        <time>2010-10-29T12:50:26Z</time>
      </trkpt>
      <trkpt lat="47.9929" lon="6.86065">
        <ele>739</ele>
        <time>2010-10-29T12:50:36Z</time>
      </trkpt>
      <trkpt lat="47.99274" lon="6.86061">
        <ele>741</ele>
        <time>2010-10-29T12:50:44Z</time>
      </trkpt>
      <trkpt lat="47.99258" lon="6.86048">
        <ele>741</ele>
        <time>2010-10-29T12:50:53Z</time>
      </trkpt>
      <trkpt lat="47.99243" lon="6.8603">
        <ele>755</ele>
        <time>2010-10-29T12:51:03Z</time>
      </trkpt>
      <trkpt lat="47.99229" lon="6.8601">
        <ele>754</ele>
        <time>2010-10-29T12:51:13Z</time>
      </trkpt>
      <trkpt lat="47.99214" lon="6.85988">
        <ele>749</ele>
        <time>2010-10-29T12:51:24Z</time>
      </trkpt>
      <trkpt lat="47.992" lon="6.85968">
        <ele>751</ele>
        <time>2010-10-29T12:51:34Z</time>
      </trkpt>
      <trkpt lat="47.99191" lon="6.85954">
        <ele>751</ele>
        <time>2010-10-29T12:51:42Z</time>
      </trkpt>
      <trkpt lat="47.99184" lon="6.85939">
        <ele>752</ele>
        <time>2010-10-29T12:51:50Z</time>
      </trkpt>
      <trkpt lat="47.99176" lon="6.8592">
        <ele>755</ele>
        <time>2010-10-29T12:52:00Z</time>
      </trkpt>
      <trkpt lat="47.99168" lon="6.85902">
        <ele>749</ele>
        <time>2010-10-29T12:52:10Z</time>
      </trkpt>
      <trkpt lat="47.99163" lon="6.85896">
        <ele>767</ele>
        <time>2010-10-29T12:52:14Z</time>
      </trkpt>
      <trkpt lat="47.99155" lon="6.85885">
        <ele>769</ele>
        <time>2010-10-29T12:52:22Z</time>
      </trkpt>
      <trkpt lat="47.99154" lon="6.85885">
        <ele>769</ele>
        <time>2010-10-29T12:52:24Z</time>
      </trkpt>
      <trkpt lat="47.99149" lon="6.85895">
        <ele>770</ele>
        <time>2010-10-29T12:52:32Z</time>
      </trkpt>
      <trkpt lat="47.99147" lon="6.85901">
        <ele>770</ele>
        <time>2010-10-29T12:52:36Z</time>
      </trkpt>
      <trkpt lat="47.99147" lon="6.85903">
        <ele>770</ele>
        <time>2010-10-29T12:52:37Z</time>
      </trkpt>
      <trkpt lat="47.99152" lon="6.8592">
        <ele>772</ele>
        <time>2010-10-29T12:52:45Z</time>
      </trkpt>
      <trkpt lat="47.9916" lon="6.85938">
        <ele>775</ele>
        <time>2010-10-29T12:52:55Z</time>
      </trkpt>
      <trkpt lat="47.99165" lon="6.85954">
        <ele>778</ele>
        <time>2010-10-29T12:53:04Z</time>
      </trkpt>
      <trkpt lat="47.9917" lon="6.85973">
        <ele>758</ele>
        <time>2010-10-29T12:53:14Z</time>
      </trkpt>
      <trkpt lat="47.99175" lon="6.85996">
        <ele>765</ele>
        <time>2010-10-29T12:53:25Z</time>
      </trkpt>
      <trkpt lat="47.99181" lon="6.86016">
        <ele>766</ele>
        <time>2010-10-29T12:53:33Z</time>
      </trkpt>
      <trkpt lat="47.99187" lon="6.8603">
        <ele>765</ele>
        <time>2010-10-29T12:53:40Z</time>
      </trkpt>
      <trkpt lat="47.99188" lon="6.86047">
        <ele>766</ele>
        <time>2010-10-29T12:53:46Z</time>
      </trkpt>
      <trkpt lat="47.99194" lon="6.86069">
        <ele>767</ele>
        <time>2010-10-29T12:53:55Z</time>
      </trkpt>
      <trkpt lat="47.992" lon="6.86091">
        <ele>772</ele>
        <time>2010-10-29T12:54:04Z</time>
      </trkpt>
      <trkpt lat="47.99202" lon="6.86103">
        <ele>772</ele>
        <time>2010-10-29T12:54:09Z</time>
      </trkpt>
      <trkpt lat="47.99208" lon="6.86111">
        <ele>770</ele>
        <time>2010-10-29T12:54:16Z</time>
      </trkpt>
      <trkpt lat="47.99208" lon="6.86111">
        <ele>770</ele>
        <time>2010-10-29T12:54:18Z</time>
      </trkpt>
      <trkpt lat="47.99208" lon="6.86111">
        <ele>770</ele>
        <time>2010-10-29T12:54:23Z</time>
      </trkpt>
      <trkpt lat="47.99208" lon="6.86111">
        <ele>770</ele>
        <time>2010-10-29T12:54:24Z</time>
      </trkpt>
      <trkpt lat="47.99206" lon="6.86109">
        <ele>771</ele>
        <time>2010-10-29T12:59:38Z</time>
      </trkpt>
      <trkpt lat="47.99206" lon="6.86108">
        <ele>771</ele>
        <time>2010-10-29T12:59:39Z</time>
      </trkpt>
      <trkpt lat="47.99202" lon="6.86113">
        <ele>772</ele>
        <time>2010-10-29T12:59:45Z</time>
      </trkpt>
      <trkpt lat="47.99202" lon="6.86114">
        <ele>772</ele>
        <time>2010-10-29T12:59:46Z</time>
      </trkpt>
      <trkpt lat="47.99202" lon="6.86114">
        <ele>772</ele>
        <time>2010-10-29T12:59:52Z</time>
      </trkpt>
      <trkpt lat="47.99199" lon="6.86129">
        <ele>773</ele>
        <time>2010-10-29T12:59:57Z</time>
      </trkpt>
      <trkpt lat="47.99199" lon="6.86132">
        <ele>773</ele>
        <time>2010-10-29T12:59:58Z</time>
      </trkpt>
      <trkpt lat="47.99199" lon="6.8616">
        <ele>775</ele>
        <time>2010-10-29T13:00:08Z</time>
      </trkpt>
      <trkpt lat="47.99197" lon="6.86186">
        <ele>780</ele>
        <time>2010-10-29T13:00:19Z</time>
      </trkpt>
      <trkpt lat="47.99198" lon="6.862">
        <ele>780</ele>
        <time>2010-10-29T13:00:26Z</time>
      </trkpt>
      <trkpt lat="47.99197" lon="6.86207">
        <ele>780</ele>
        <time>2010-10-29T13:00:30Z</time>
      </trkpt>
      <trkpt lat="47.99197" lon="6.86221">
        <ele>781</ele>
        <time>2010-10-29T13:00:37Z</time>
      </trkpt>
      <trkpt lat="47.99195" lon="6.86231">
        <ele>782</ele>
        <time>2010-10-29T13:00:42Z</time>
      </trkpt>
      <trkpt lat="47.99193" lon="6.86247">
        <ele>784</ele>
        <time>2010-10-29T13:00:49Z</time>
      </trkpt>
      <trkpt lat="47.99192" lon="6.86259">
        <ele>787</ele>
        <time>2010-10-29T13:00:54Z</time>
      </trkpt>
      <trkpt lat="47.99191" lon="6.86277">
        <ele>786</ele>
        <time>2010-10-29T13:01:01Z</time>
      </trkpt>
      <trkpt lat="47.99187" lon="6.86297">
        <ele>787</ele>
        <time>2010-10-29T13:01:09Z</time>
      </trkpt>
      <trkpt lat="47.99184" lon="6.86322">
        <ele>790</ele>
        <time>2010-10-29T13:01:19Z</time>
      </trkpt>
      <trkpt lat="47.99179" lon="6.86341">
        <ele>792</ele>
        <time>2010-10-29T13:01:27Z</time>
      </trkpt>
      <trkpt lat="47.99174" lon="6.86366">
        <ele>788</ele>
        <time>2010-10-29T13:01:38Z</time>
      </trkpt>
      <trkpt lat="47.99171" lon="6.86383">
        <ele>787</ele>
        <time>2010-10-29T13:01:46Z</time>
      </trkpt>
      <trkpt lat="47.99171" lon="6.8639">
        <ele>788</ele>
        <time>2010-10-29T13:01:49Z</time>
      </trkpt>
      <trkpt lat="47.99166" lon="6.86407">
        <ele>802</ele>
        <time>2010-10-29T13:01:57Z</time>
      </trkpt>
      <trkpt lat="47.99158" lon="6.86427">
        <ele>801</ele>
        <time>2010-10-29T13:02:07Z</time>
      </trkpt>
      <trkpt lat="47.99151" lon="6.86445">
        <ele>805</ele>
        <time>2010-10-29T13:02:16Z</time>
      </trkpt>
      <trkpt lat="47.99142" lon="6.86466">
        <ele>806</ele>
        <time>2010-10-29T13:02:27Z</time>
      </trkpt>
      <trkpt lat="47.99134" lon="6.86478">
        <ele>807</ele>
        <time>2010-10-29T13:02:35Z</time>
      </trkpt>
      <trkpt lat="47.99125" lon="6.86496">
        <ele>809</ele>
        <time>2010-10-29T13:02:44Z</time>
      </trkpt>
      <trkpt lat="47.99114" lon="6.86516">
        <ele>808</ele>
        <time>2010-10-29T13:02:54Z</time>
      </trkpt>
      <trkpt lat="47.99107" lon="6.86531">
        <ele>808</ele>
        <time>2010-10-29T13:03:02Z</time>
      </trkpt>
      <trkpt lat="47.99103" lon="6.86544">
        <ele>808</ele>
        <time>2010-10-29T13:03:09Z</time>
      </trkpt>
      <trkpt lat="47.99102" lon="6.86548">
        <ele>808</ele>
        <time>2010-10-29T13:03:11Z</time>
      </trkpt>
      <trkpt lat="47.99094" lon="6.86568">
        <ele>810</ele>
        <time>2010-10-29T13:03:21Z</time>
      </trkpt>
      <trkpt lat="47.99088" lon="6.86586">
        <ele>813</ele>
        <time>2010-10-29T13:03:30Z</time>
      </trkpt>
      <trkpt lat="47.9908" lon="6.86605">
        <ele>821</ele>
        <time>2010-10-29T13:03:40Z</time>
      </trkpt>
      <trkpt lat="47.99073" lon="6.86619">
        <ele>822</ele>
        <time>2010-10-29T13:03:48Z</time>
      </trkpt>
      <trkpt lat="47.99062" lon="6.86635">
        <ele>822</ele>
        <time>2010-10-29T13:03:58Z</time>
      </trkpt>
      <trkpt lat="47.99059" lon="6.8664">
        <ele>822</ele>
        <time>2010-10-29T13:04:01Z</time>
      </trkpt>
      <trkpt lat="47.99049" lon="6.86657">
        <ele>822</ele>
        <time>2010-10-29T13:04:11Z</time>
      </trkpt>
      <trkpt lat="47.99041" lon="6.86667">
        <ele>818</ele>
        <time>2010-10-29T13:04:18Z</time>
      </trkpt>
      <trkpt lat="47.99032" lon="6.86681">
        <ele>819</ele>
        <time>2010-10-29T13:04:26Z</time>
      </trkpt>
      <trkpt lat="47.99022" lon="6.86695">
        <ele>820</ele>
        <time>2010-10-29T13:04:35Z</time>
      </trkpt>
      <trkpt lat="47.9901" lon="6.8671">
        <ele>819</ele>
        <time>2010-10-29T13:04:45Z</time>
      </trkpt>
      <trkpt lat="47.98999" lon="6.86726">
        <ele>830</ele>
        <time>2010-10-29T13:04:55Z</time>
      </trkpt>
      <trkpt lat="47.98993" lon="6.86737">
        <ele>828</ele>
        <time>2010-10-29T13:05:02Z</time>
      </trkpt>
      <trkpt lat="47.98985" lon="6.86744">
        <ele>828</ele>
        <time>2010-10-29T13:05:08Z</time>
      </trkpt>
      <trkpt lat="47.98982" lon="6.86745">
        <ele>829</ele>
        <time>2010-10-29T13:05:10Z</time>
      </trkpt>
      <trkpt lat="47.98966" lon="6.86757">
        <ele>829</ele>
        <time>2010-10-29T13:05:19Z</time>
      </trkpt>
      <trkpt lat="47.98961" lon="6.8676">
        <ele>830</ele>
        <time>2010-10-29T13:05:24Z</time>
      </trkpt>
      <trkpt lat="47.98964" lon="6.86756">
        <ele>829</ele>
        <time>2010-10-29T13:06:00Z</time>
      </trkpt>
      <trkpt lat="47.98964" lon="6.86757">
        <ele>829</ele>
        <time>2010-10-29T13:06:01Z</time>
      </trkpt>
      <trkpt lat="47.98966" lon="6.8676">
        <ele>829</ele>
        <time>2010-10-29T13:06:05Z</time>
      </trkpt>
      <trkpt lat="47.98963" lon="6.86761">
        <ele>830</ele>
        <time>2010-10-29T13:06:24Z</time>
      </trkpt>
      <trkpt lat="47.98962" lon="6.86759">
        <ele>830</ele>
        <time>2010-10-29T13:06:27Z</time>
      </trkpt>
      <trkpt lat="47.98961" lon="6.86759">
        <ele>830</ele>
        <time>2010-10-29T13:06:30Z</time>
      </trkpt>
      <trkpt lat="47.9896" lon="6.8676">
        <ele>830</ele>
        <time>2010-10-29T13:06:31Z</time>
      </trkpt>
      <trkpt lat="47.9895" lon="6.86767">
        <ele>832</ele>
        <time>2010-10-29T13:06:36Z</time>
      </trkpt>
      <trkpt lat="47.98936" lon="6.86781">
        <ele>833</ele>
        <time>2010-10-29T13:06:45Z</time>
      </trkpt>
      <trkpt lat="47.9893" lon="6.8679">
        <ele>833</ele>
        <time>2010-10-29T13:06:49Z</time>
      </trkpt>
      <trkpt lat="47.98928" lon="6.86815">
        <ele>835</ele>
        <time>2010-10-29T13:06:58Z</time>
      </trkpt>
      <trkpt lat="47.9893" lon="6.86838">
        <ele>837</ele>
        <time>2010-10-29T13:07:06Z</time>
      </trkpt>
      <trkpt lat="47.9893" lon="6.86869">
        <ele>837</ele>
        <time>2010-10-29T13:07:17Z</time>
      </trkpt>
      <trkpt lat="47.98927" lon="6.86887">
        <ele>838</ele>
        <time>2010-10-29T13:07:24Z</time>
      </trkpt>
      <trkpt lat="47.98921" lon="6.869">
        <ele>840</ele>
        <time>2010-10-29T13:07:30Z</time>
      </trkpt>
      <trkpt lat="47.98909" lon="6.86905">
        <ele>849</ele>
        <time>2010-10-29T13:07:37Z</time>
      </trkpt>
      <trkpt lat="47.98896" lon="6.86898">
        <ele>851</ele>
        <time>2010-10-29T13:07:45Z</time>
      </trkpt>
      <trkpt lat="47.98885" lon="6.86887">
        <ele>852</ele>
        <time>2010-10-29T13:07:53Z</time>
      </trkpt>
      <trkpt lat="47.98877" lon="6.86876">
        <ele>853</ele>
        <time>2010-10-29T13:08:00Z</time>
      </trkpt>
      <trkpt lat="47.98875" lon="6.86872">
        <ele>853</ele>
        <time>2010-10-29T13:08:02Z</time>
      </trkpt>
      <trkpt lat="47.9887" lon="6.86859">
        <ele>853</ele>
        <time>2010-10-29T13:08:09Z</time>
      </trkpt>
      <trkpt lat="47.98867" lon="6.86842">
        <ele>853</ele>
        <time>2010-10-29T13:08:16Z</time>
      </trkpt>
      <trkpt lat="47.98867" lon="6.86815">
        <ele>851</ele>
        <time>2010-10-29T13:08:26Z</time>
      </trkpt>
      <trkpt lat="47.98866" lon="6.86792">
        <ele>851</ele>
        <time>2010-10-29T13:08:34Z</time>
      </trkpt>
      <trkpt lat="47.98866" lon="6.86768">
        <ele>852</ele>
        <time>2010-10-29T13:08:43Z</time>
      </trkpt>
      <trkpt lat="47.98864" lon="6.86739">
        <ele>856</ele>
        <time>2010-10-29T13:08:54Z</time>
      </trkpt>
      <trkpt lat="47.9886" lon="6.86727">
        <ele>857</ele>
        <time>2010-10-29T13:08:59Z</time>
      </trkpt>
      <trkpt lat="47.9885" lon="6.8673">
        <ele>858</ele>
        <time>2010-10-29T13:09:05Z</time>
      </trkpt>
      <trkpt lat="47.98838" lon="6.86745">
        <ele>860</ele>
        <time>2010-10-29T13:09:13Z</time>
      </trkpt>
      <trkpt lat="47.98829" lon="6.86764">
        <ele>865</ele>
        <time>2010-10-29T13:09:20Z</time>
      </trkpt>
      <trkpt lat="47.98821" lon="6.86783">
        <ele>867</ele>
        <time>2010-10-29T13:09:28Z</time>
      </trkpt>
      <trkpt lat="47.98815" lon="6.86801">
        <ele>868</ele>
        <time>2010-10-29T13:09:35Z</time>
      </trkpt>
      <trkpt lat="47.98802" lon="6.86826">
        <ele>868</ele>
        <time>2010-10-29T13:09:43Z</time>
      </trkpt>
      <trkpt lat="47.98793" lon="6.86859">
        <ele>870</ele>
        <time>2010-10-29T13:09:51Z</time>
      </trkpt>
      <trkpt lat="47.98787" lon="6.86894">
        <ele>871</ele>
        <time>2010-10-29T13:09:59Z</time>
      </trkpt>
      <trkpt lat="47.98779" lon="6.86928">
        <ele>875</ele>
        <time>2010-10-29T13:10:07Z</time>
      </trkpt>
      <trkpt lat="47.98765" lon="6.86966">
        <ele>876</ele>
        <time>2010-10-29T13:10:17Z</time>
      </trkpt>
      <trkpt lat="47.98757" lon="6.86982">
        <ele>877</ele>
        <time>2010-10-29T13:10:24Z</time>
      </trkpt>
      <trkpt lat="47.98751" lon="6.87001">
        <ele>880</ele>
        <time>2010-10-29T13:10:32Z</time>
      </trkpt>
      <trkpt lat="47.9875" lon="6.87018">
        <ele>881</ele>
        <time>2010-10-29T13:10:38Z</time>
      </trkpt>
      <trkpt lat="47.98744" lon="6.87021">
        <ele>876</ele>
        <time>2010-10-29T13:10:42Z</time>
      </trkpt>
      <trkpt lat="47.98744" lon="6.87012">
        <ele>877</ele>
        <time>2010-10-29T13:10:45Z</time>
      </trkpt>
      <trkpt lat="47.98746" lon="6.87007">
        <ele>878</ele>
        <time>2010-10-29T13:10:48Z</time>
      </trkpt>
      <trkpt lat="47.98747" lon="6.87004">
        <ele>879</ele>
        <time>2010-10-29T13:10:50Z</time>
      </trkpt>
      <trkpt lat="47.98743" lon="6.86996">
        <ele>879</ele>
        <time>2010-10-29T13:10:54Z</time>
      </trkpt>
      <trkpt lat="47.98742" lon="6.86989">
        <ele>878</ele>
        <time>2010-10-29T13:10:56Z</time>
      </trkpt>
      <trkpt lat="47.98743" lon="6.8698">
        <ele>878</ele>
        <time>2010-10-29T13:10:59Z</time>
      </trkpt>
      <trkpt lat="47.98751" lon="6.86966">
        <ele>876</ele>
        <time>2010-10-29T13:11:06Z</time>
      </trkpt>
      <trkpt lat="47.98753" lon="6.86964">
        <ele>876</ele>
        <time>2010-10-29T13:11:07Z</time>
      </trkpt>
      <trkpt lat="47.9876" lon="6.86974">
        <ele>877</ele>
        <time>2010-10-29T13:11:10Z</time>
      </trkpt>
      <trkpt lat="47.98756" lon="6.86987">
        <ele>878</ele>
        <time>2010-10-29T13:11:13Z</time>
      </trkpt>
      <trkpt lat="47.98753" lon="6.87002">
        <ele>880</ele>
        <time>2010-10-29T13:11:18Z</time>
      </trkpt>
      <trkpt lat="47.98757" lon="6.8701">
        <ele>880</ele>
        <time>2010-10-29T13:11:23Z</time>
      </trkpt>
      <trkpt lat="47.98762" lon="6.87011">
        <ele>880</ele>
        <time>2010-10-29T13:11:29Z</time>
      </trkpt>
      <trkpt lat="47.98761" lon="6.8701">
        <ele>880</ele>
        <time>2010-10-29T13:14:20Z</time>
      </trkpt>
      <trkpt lat="47.98763" lon="6.87011">
        <ele>880</ele>
        <time>2010-10-29T13:14:21Z</time>
      </trkpt>
      <trkpt lat="47.98775" lon="6.87016">
        <ele>880</ele>
        <time>2010-10-29T13:14:26Z</time>
      </trkpt>
      <trkpt lat="47.98801" lon="6.87028">
        <ele>881</ele>
        <time>2010-10-29T13:14:35Z</time>
      </trkpt>
      <trkpt lat="47.98817" lon="6.87046">
        <ele>882</ele>
        <time>2010-10-29T13:14:43Z</time>
      </trkpt>
      <trkpt lat="47.98829" lon="6.87059">
        <ele>883</ele>
        <time>2010-10-29T13:14:50Z</time>
      </trkpt>
      <trkpt lat="47.98842" lon="6.87072">
        <ele>883</ele>
        <time>2010-10-29T13:14:58Z</time>
      </trkpt>
      <trkpt lat="47.98856" lon="6.87085">
        <ele>890</ele>
        <time>2010-10-29T13:15:06Z</time>
      </trkpt>
      <trkpt lat="47.98879" lon="6.87104">
        <ele>891</ele>
        <time>2010-10-29T13:15:18Z</time>
      </trkpt>
      <trkpt lat="47.98894" lon="6.87119">
        <ele>891</ele>
        <time>2010-10-29T13:15:27Z</time>
      </trkpt>
      <trkpt lat="47.989" lon="6.87125">
        <ele>892</ele>
        <time>2010-10-29T13:15:33Z</time>
      </trkpt>
      <trkpt lat="47.98901" lon="6.87125">
        <ele>892</ele>
        <time>2010-10-29T13:15:50Z</time>
      </trkpt>
      <trkpt lat="47.98909" lon="6.87136">
        <ele>893</ele>
        <time>2010-10-29T13:15:55Z</time>
      </trkpt>
      <trkpt lat="47.98919" lon="6.87147">
        <ele>891</ele>
        <time>2010-10-29T13:16:01Z</time>
      </trkpt>
      <trkpt lat="47.98934" lon="6.8716">
        <ele>892</ele>
        <time>2010-10-29T13:16:09Z</time>
      </trkpt>
      <trkpt lat="47.98952" lon="6.87166">
        <ele>890</ele>
        <time>2010-10-29T13:16:17Z</time>
      </trkpt>
      <trkpt lat="47.98973" lon="6.87173">
        <ele>900</ele>
        <time>2010-10-29T13:16:27Z</time>
      </trkpt>
      <trkpt lat="47.98987" lon="6.87182">
        <ele>899</ele>
        <time>2010-10-29T13:16:34Z</time>
      </trkpt>
      <trkpt lat="47.98991" lon="6.87182">
        <ele>898</ele>
        <time>2010-10-29T13:16:36Z</time>
      </trkpt>
      <trkpt lat="47.98999" lon="6.87188">
        <ele>899</ele>
        <time>2010-10-29T13:16:40Z</time>
      </trkpt>
      <trkpt lat="47.9902" lon="6.87202">
        <ele>896</ele>
        <time>2010-10-29T13:16:50Z</time>
      </trkpt>
      <trkpt lat="47.99036" lon="6.87213">
        <ele>897</ele>
        <time>2010-10-29T13:16:57Z</time>
      </trkpt>
      <trkpt lat="47.99052" lon="6.87228">
        <ele>898</ele>
        <time>2010-10-29T13:17:05Z</time>
      </trkpt>
      <trkpt lat="47.99062" lon="6.8724">
        <ele>898</ele>
        <time>2010-10-29T13:17:10Z</time>
      </trkpt>
      <trkpt lat="47.99086" lon="6.8726">
        <ele>903</ele>
        <time>2010-10-29T13:17:20Z</time>
      </trkpt>
      <trkpt lat="47.99106" lon="6.87278">
        <ele>905</ele>
        <time>2010-10-29T13:17:29Z</time>
      </trkpt>
      <trkpt lat="47.99122" lon="6.87287">
        <ele>906</ele>
        <time>2010-10-29T13:17:36Z</time>
      </trkpt>
      <trkpt lat="47.99145" lon="6.87295">
        <ele>906</ele>
        <time>2010-10-29T13:17:45Z</time>
      </trkpt>
      <trkpt lat="47.99168" lon="6.87298">
        <ele>903</ele>
        <time>2010-10-29T13:17:54Z</time>
      </trkpt>
      <trkpt lat="47.99179" lon="6.87303">
        <ele>904</ele>
        <time>2010-10-29T13:18:00Z</time>
      </trkpt>
      <trkpt lat="47.99187" lon="6.87306">
        <ele>904</ele>
        <time>2010-10-29T13:18:07Z</time>
      </trkpt>
      <trkpt lat="47.99197" lon="6.8731">
        <ele>904</ele>
        <time>2010-10-29T13:18:13Z</time>
      </trkpt>
      <trkpt lat="47.9921" lon="6.87318">
        <ele>904</ele>
        <time>2010-10-29T13:18:20Z</time>
      </trkpt>
      <trkpt lat="47.99231" lon="6.87325">
        <ele>904</ele>
        <time>2010-10-29T13:18:29Z</time>
      </trkpt>
      <trkpt lat="47.99258" lon="6.87331">
        <ele>904</ele>
        <time>2010-10-29T13:18:39Z</time>
      </trkpt>
      <trkpt lat="47.99273" lon="6.87335">
        <ele>908</ele>
        <time>2010-10-29T13:18:46Z</time>
      </trkpt>
      <trkpt lat="47.99288" lon="6.87343">
        <ele>907</ele>
        <time>2010-10-29T13:18:54Z</time>
      </trkpt>
      <trkpt lat="47.99303" lon="6.87349">
        <ele>906</ele>
        <time>2010-10-29T13:19:01Z</time>
      </trkpt>
      <trkpt lat="47.99312" lon="6.8736">
        <ele>906</ele>
        <time>2010-10-29T13:19:07Z</time>
      </trkpt>
      <trkpt lat="47.99324" lon="6.87382">
        <ele>908</ele>
        <time>2010-10-29T13:19:16Z</time>
      </trkpt>
      <trkpt lat="47.99332" lon="6.87405">
        <ele>908</ele>
        <time>2010-10-29T13:19:23Z</time>
      </trkpt>
      <trkpt lat="47.99335" lon="6.87428">
        <ele>903</ele>
        <time>2010-10-29T13:19:29Z</time>
      </trkpt>
      <trkpt lat="47.99339" lon="6.87452">
        <ele>900</ele>
        <time>2010-10-29T13:19:35Z</time>
      </trkpt>
      <trkpt lat="47.99346" lon="6.87483">
        <ele>903</ele>
        <time>2010-10-29T13:19:43Z</time>
      </trkpt>
      <trkpt lat="47.99351" lon="6.87524">
        <ele>905</ele>
        <time>2010-10-29T13:19:53Z</time>
      </trkpt>
      <trkpt lat="47.99353" lon="6.87557">
        <ele>907</ele>
        <time>2010-10-29T13:20:01Z</time>
      </trkpt>
      <trkpt lat="47.99355" lon="6.87592">
        <ele>915</ele>
        <time>2010-10-29T13:20:08Z</time>
      </trkpt>
      <trkpt lat="47.99362" lon="6.87633">
        <ele>914</ele>
        <time>2010-10-29T13:20:17Z</time>
      </trkpt>
      <trkpt lat="47.99372" lon="6.87668">
        <ele>922</ele>
        <time>2010-10-29T13:20:25Z</time>
      </trkpt>
      <trkpt lat="47.99386" lon="6.87689">
        <ele>920</ele>
        <time>2010-10-29T13:20:32Z</time>
      </trkpt>
      <trkpt lat="47.994" lon="6.87707">
        <ele>920</ele>
        <time>2010-10-29T13:20:39Z</time>
      </trkpt>
      <trkpt lat="47.9942" lon="6.87736">
        <ele>911</ele>
        <time>2010-10-29T13:20:51Z</time>
      </trkpt>
      <trkpt lat="47.99425" lon="6.87742">
        <ele>912</ele>
        <time>2010-10-29T13:20:57Z</time>
      </trkpt>
      <trkpt lat="47.99424" lon="6.87742">
        <ele>913</ele>
        <time>2010-10-29T13:21:40Z</time>
      </trkpt>
      <trkpt lat="47.99429" lon="6.87755">
        <ele>917</ele>
        <time>2010-10-29T13:21:45Z</time>
      </trkpt>
      <trkpt lat="47.99438" lon="6.87782">
        <ele>916</ele>
        <time>2010-10-29T13:21:53Z</time>
      </trkpt>
      <trkpt lat="47.99447" lon="6.87813">
        <ele>917</ele>
        <time>2010-10-29T13:22:01Z</time>
      </trkpt>
      <trkpt lat="47.99463" lon="6.87857">
        <ele>922</ele>
        <time>2010-10-29T13:22:12Z</time>
      </trkpt>
      <trkpt lat="47.99479" lon="6.87902">
        <ele>920</ele>
        <time>2010-10-29T13:22:23Z</time>
      </trkpt>
      <trkpt lat="47.99485" lon="6.8794">
        <ele>923</ele>
        <time>2010-10-29T13:22:30Z</time>
      </trkpt>
      <trkpt lat="47.99484" lon="6.87984">
        <ele>923</ele>
        <time>2010-10-29T13:22:38Z</time>
      </trkpt>
      <trkpt lat="47.99485" lon="6.88044">
        <ele>928</ele>
        <time>2010-10-29T13:22:49Z</time>
      </trkpt>
      <trkpt lat="47.99489" lon="6.88087">
        <ele>927</ele>
        <time>2010-10-29T13:22:57Z</time>
      </trkpt>
      <trkpt lat="47.99499" lon="6.88121">
        <ele>933</ele>
        <time>2010-10-29T13:23:04Z</time>
      </trkpt>
      <trkpt lat="47.99519" lon="6.88169">
        <ele>925</ele>
        <time>2010-10-29T13:23:13Z</time>
      </trkpt>
      <trkpt lat="47.99537" lon="6.88203">
        <ele>923</ele>
        <time>2010-10-29T13:23:21Z</time>
      </trkpt>
      <trkpt lat="47.99545" lon="6.88218">
        <ele>923</ele>
        <time>2010-10-29T13:23:26Z</time>
      </trkpt>
      <trkpt lat="47.99561" lon="6.88242">
        <ele>921</ele>
        <time>2010-10-29T13:23:34Z</time>
      </trkpt>
      <trkpt lat="47.99574" lon="6.88268">
        <ele>925</ele>
        <time>2010-10-29T13:23:40Z</time>
      </trkpt>
      <trkpt lat="47.9958" lon="6.88277">
        <ele>927</ele>
        <time>2010-10-29T13:23:42Z</time>
      </trkpt>
      <trkpt lat="47.99603" lon="6.8831">
        <ele>917</ele>
        <time>2010-10-29T13:23:50Z</time>
      </trkpt>
      <trkpt lat="47.99618" lon="6.88347">
        <ele>923</ele>
        <time>2010-10-29T13:23:57Z</time>
      </trkpt>
      <trkpt lat="47.99629" lon="6.88372">
        <ele>923</ele>
        <time>2010-10-29T13:24:02Z</time>
      </trkpt>
      <trkpt lat="47.9964" lon="6.88394">
        <ele>923</ele>
        <time>2010-10-29T13:24:06Z</time>
      </trkpt>
      <trkpt lat="47.99658" lon="6.88417">
        <ele>923</ele>
        <time>2010-10-29T13:24:12Z</time>
      </trkpt>
      <trkpt lat="47.99676" lon="6.88447">
        <ele>913</ele>
        <time>2010-10-29T13:24:18Z</time>
      </trkpt>
      <trkpt lat="47.99695" lon="6.8849">
        <ele>913</ele>
        <time>2010-10-29T13:24:25Z</time>
      </trkpt>
      <trkpt lat="47.997" lon="6.88519">
        <ele>914</ele>
        <time>2010-10-29T13:24:30Z</time>
      </trkpt>
      <trkpt lat="47.99689" lon="6.8856">
        <ele>916</ele>
        <time>2010-10-29T13:24:38Z</time>
      </trkpt>
      <trkpt lat="47.99679" lon="6.88596">
        <ele>920</ele>
        <time>2010-10-29T13:24:46Z</time>
      </trkpt>
      <trkpt lat="47.99675" lon="6.88625">
        <ele>919</ele>
        <time>2010-10-29T13:24:52Z</time>
      </trkpt>
      <trkpt lat="47.99683" lon="6.88654">
        <ele>920</ele>
        <time>2010-10-29T13:24:58Z</time>
      </trkpt>
      <trkpt lat="47.99695" lon="6.88704">
        <ele>921</ele>
        <time>2010-10-29T13:25:08Z</time>
      </trkpt>
      <trkpt lat="47.99706" lon="6.88748">
        <ele>921</ele>
        <time>2010-10-29T13:25:17Z</time>
      </trkpt>
      <trkpt lat="47.99715" lon="6.88782">
        <ele>923</ele>
        <time>2010-10-29T13:25:24Z</time>
      </trkpt>
      <trkpt lat="47.99722" lon="6.88833">
        <ele>922</ele>
        <time>2010-10-29T13:25:33Z</time>
      </trkpt>
      <trkpt lat="47.99717" lon="6.8888">
        <ele>926</ele>
        <time>2010-10-29T13:25:41Z</time>
      </trkpt>
      <trkpt lat="47.99717" lon="6.88925">
        <ele>929</ele>
        <time>2010-10-29T13:25:48Z</time>
      </trkpt>
      <trkpt lat="47.9972" lon="6.88938">
        <ele>929</ele>
        <time>2010-10-29T13:25:50Z</time>
      </trkpt>
      <trkpt lat="47.99736" lon="6.88973">
        <ele>928</ele>
        <time>2010-10-29T13:25:57Z</time>
      </trkpt>
      <trkpt lat="47.9975" lon="6.89012">
        <ele>916</ele>
        <time>2010-10-29T13:26:04Z</time>
      </trkpt>
      <trkpt lat="47.99751" lon="6.89051">
        <ele>911</ele>
        <time>2010-10-29T13:26:10Z</time>
      </trkpt>
      <trkpt lat="47.99751" lon="6.89057">
        <ele>912</ele>
        <time>2010-10-29T13:26:11Z</time>
      </trkpt>
      <trkpt lat="47.99749" lon="6.8909">
        <ele>921</ele>
        <time>2010-10-29T13:26:16Z</time>
      </trkpt>
      <trkpt lat="47.99734" lon="6.89125">
        <ele>920</ele>
        <time>2010-10-29T13:26:22Z</time>
      </trkpt>
      <trkpt lat="47.99712" lon="6.89174">
        <ele>911</ele>
        <time>2010-10-29T13:26:29Z</time>
      </trkpt>
      <trkpt lat="47.99695" lon="6.8922">
        <ele>911</ele>
        <time>2010-10-29T13:26:34Z</time>
      </trkpt>
      <trkpt lat="47.99682" lon="6.89251">
        <ele>908</ele>
        <time>2010-10-29T13:26:37Z</time>
      </trkpt>
      <trkpt lat="47.99654" lon="6.893">
        <ele>921</ele>
        <time>2010-10-29T13:26:42Z</time>
      </trkpt>
      <trkpt lat="47.99648" lon="6.89311">
        <ele>920</ele>
        <time>2010-10-29T13:26:43Z</time>
      </trkpt>
      <trkpt lat="47.99631" lon="6.89346">
        <ele>913</ele>
        <time>2010-10-29T13:26:46Z</time>
      </trkpt>
      <trkpt lat="47.99615" lon="6.89415">
        <ele>912</ele>
        <time>2010-10-29T13:26:51Z</time>
      </trkpt>
      <trkpt lat="47.99611" lon="6.8946">
        <ele>905</ele>
        <time>2010-10-29T13:26:54Z</time>
      </trkpt>
      <trkpt lat="47.99598" lon="6.89532">
        <ele>903</ele>
        <time>2010-10-29T13:26:59Z</time>
      </trkpt>
      <trkpt lat="47.99591" lon="6.89577">
        <ele>905</ele>
        <time>2010-10-29T13:27:02Z</time>
      </trkpt>
      <trkpt lat="47.99601" lon="6.89629">
        <ele>905</ele>
        <time>2010-10-29T13:27:06Z</time>
      </trkpt>
      <trkpt lat="47.99609" lon="6.89638">
        <ele>904</ele>
        <time>2010-10-29T13:27:07Z</time>
      </trkpt>
      <trkpt lat="47.99651" lon="6.8968">
        <ele>907</ele>
        <time>2010-10-29T13:27:12Z</time>
      </trkpt>
      <trkpt lat="47.99668" lon="6.89698">
        <ele>896</ele>
        <time>2010-10-29T13:27:14Z</time>
      </trkpt>
      <trkpt lat="47.99743" lon="6.89774">
        <ele>902</ele>
        <time>2010-10-29T13:27:23Z</time>
      </trkpt>
      <trkpt lat="47.99766" lon="6.89818">
        <ele>893</ele>
        <time>2010-10-29T13:27:27Z</time>
      </trkpt>
      <trkpt lat="47.99773" lon="6.89867">
        <ele>891</ele>
        <time>2010-10-29T13:27:31Z</time>
      </trkpt>
      <trkpt lat="47.99768" lon="6.899">
        <ele>892</ele>
        <time>2010-10-29T13:27:34Z</time>
      </trkpt>
      <trkpt lat="47.9976" lon="6.89929">
        <ele>891</ele>
        <time>2010-10-29T13:27:37Z</time>
      </trkpt>
      <trkpt lat="47.99743" lon="6.8997">
        <ele>902</ele>
        <time>2010-10-29T13:27:42Z</time>
      </trkpt>
      <trkpt lat="47.99717" lon="6.90015">
        <ele>896</ele>
        <time>2010-10-29T13:27:49Z</time>
      </trkpt>
      <trkpt lat="47.99714" lon="6.9002">
        <ele>897</ele>
        <time>2010-10-29T13:27:50Z</time>
      </trkpt>
      <trkpt lat="47.99693" lon="6.90049">
        <ele>897</ele>
        <time>2010-10-29T13:27:56Z</time>
      </trkpt>
      <trkpt lat="47.99681" lon="6.90063">
        <ele>897</ele>
        <time>2010-10-29T13:28:00Z</time>
      </trkpt>
      <trkpt lat="47.99682" lon="6.90065">
        <ele>897</ele>
        <time>2010-10-29T13:28:04Z</time>
      </trkpt>
      <trkpt lat="47.99676" lon="6.90073">
        <ele>897</ele>
        <time>2010-10-29T13:28:09Z</time>
      </trkpt>
      <trkpt lat="47.99661" lon="6.90097">
        <ele>899</ele>
        <time>2010-10-29T13:28:15Z</time>
      </trkpt>
      <trkpt lat="47.99652" lon="6.9011">
        <ele>900</ele>
        <time>2010-10-29T13:28:18Z</time>
      </trkpt>
      <trkpt lat="47.99628" lon="6.90139">
        <ele>900</ele>
        <time>2010-10-29T13:28:25Z</time>
      </trkpt>
      <trkpt lat="47.9962" lon="6.90147">
        <ele>900</ele>
        <time>2010-10-29T13:28:27Z</time>
      </trkpt>
      <trkpt lat="47.99592" lon="6.9018">
        <ele>898</ele>
        <time>2010-10-29T13:28:35Z</time>
      </trkpt>
      <trkpt lat="47.99583" lon="6.90198">
        <ele>908</ele>
        <time>2010-10-29T13:28:38Z</time>
      </trkpt>
      <trkpt lat="47.99575" lon="6.90224">
        <ele>908</ele>
        <time>2010-10-29T13:28:42Z</time>
      </trkpt>
      <trkpt lat="47.99569" lon="6.90252">
        <ele>903</ele>
        <time>2010-10-29T13:28:46Z</time>
      </trkpt>
      <trkpt lat="47.99573" lon="6.9029">
        <ele>904</ele>
        <time>2010-10-29T13:28:51Z</time>
      </trkpt>
      <trkpt lat="47.99576" lon="6.90319">
        <ele>902</ele>
        <time>2010-10-29T13:28:55Z</time>
      </trkpt>
      <trkpt lat="47.99578" lon="6.90332">
        <ele>900</ele>
        <time>2010-10-29T13:28:57Z</time>
      </trkpt>
      <trkpt lat="47.99579" lon="6.9037">
        <ele>896</ele>
        <time>2010-10-29T13:29:03Z</time>
      </trkpt>
      <trkpt lat="47.9957" lon="6.90392">
        <ele>894</ele>
        <time>2010-10-29T13:29:07Z</time>
      </trkpt>
      <trkpt lat="47.99553" lon="6.90398">
        <ele>894</ele>
        <time>2010-10-29T13:29:11Z</time>
      </trkpt>
      <trkpt lat="47.99548" lon="6.90397">
        <ele>895</ele>
        <time>2010-10-29T13:29:12Z</time>
      </trkpt>
      <trkpt lat="47.99528" lon="6.90393">
        <ele>895</ele>
        <time>2010-10-29T13:29:17Z</time>
      </trkpt>
      <trkpt lat="47.99497" lon="6.90392">
        <ele>902</ele>
        <time>2010-10-29T13:29:25Z</time>
      </trkpt>
      <trkpt lat="47.99482" lon="6.90398">
        <ele>903</ele>
        <time>2010-10-29T13:29:29Z</time>
      </trkpt>
      <trkpt lat="47.99463" lon="6.90414">
        <ele>906</ele>
        <time>2010-10-29T13:29:34Z</time>
      </trkpt>
      <trkpt lat="47.99444" lon="6.90438">
        <ele>896</ele>
        <time>2010-10-29T13:29:39Z</time>
      </trkpt>
      <trkpt lat="47.99423" lon="6.90455">
        <ele>896</ele>
        <time>2010-10-29T13:29:44Z</time>
      </trkpt>
      <trkpt lat="47.99401" lon="6.9049">
        <ele>900</ele>
        <time>2010-10-29T13:29:52Z</time>
      </trkpt>
      <trkpt lat="47.99384" lon="6.90523">
        <ele>893</ele>
        <time>2010-10-29T13:29:59Z</time>
      </trkpt>
      <trkpt lat="47.9938" lon="6.90539">
        <ele>892</ele>
        <time>2010-10-29T13:30:03Z</time>
      </trkpt>
      <trkpt lat="47.99375" lon="6.90556">
        <ele>892</ele>
        <time>2010-10-29T13:30:08Z</time>
      </trkpt>
      <trkpt lat="47.99372" lon="6.90583">
        <ele>891</ele>
        <time>2010-10-29T13:30:15Z</time>
      </trkpt>
      <trkpt lat="47.99366" lon="6.90599">
        <ele>890</ele>
        <time>2010-10-29T13:30:20Z</time>
      </trkpt>
      <trkpt lat="47.99355" lon="6.90605">
        <ele>891</ele>
        <time>2010-10-29T13:30:24Z</time>
      </trkpt>
      <trkpt lat="47.99342" lon="6.90615">
        <ele>892</ele>
        <time>2010-10-29T13:30:30Z</time>
      </trkpt>
      <trkpt lat="47.99337" lon="6.90618">
        <ele>892</ele>
        <time>2010-10-29T13:30:35Z</time>
      </trkpt>
      <trkpt lat="47.99339" lon="6.9062">
        <ele>892</ele>
        <time>2010-10-29T13:30:57Z</time>
      </trkpt>
      <trkpt lat="47.99337" lon="6.90617">
        <ele>892</ele>
        <time>2010-10-29T13:31:02Z</time>
      </trkpt>
      <trkpt lat="47.99332" lon="6.90613">
        <ele>898</ele>
        <time>2010-10-29T13:31:09Z</time>
      </trkpt>
      <trkpt lat="47.99327" lon="6.90614">
        <ele>898</ele>
        <time>2010-10-29T13:31:14Z</time>
      </trkpt>
      <trkpt lat="47.9932" lon="6.90612">
        <ele>898</ele>
        <time>2010-10-29T13:31:24Z</time>
      </trkpt>
      <trkpt lat="47.99319" lon="6.90612">
        <ele>898</ele>
        <time>2010-10-29T13:31:27Z</time>
      </trkpt>
      <trkpt lat="47.99313" lon="6.90611">
        <ele>898</ele>
        <time>2010-10-29T13:31:33Z</time>
      </trkpt>
      <trkpt lat="47.99313" lon="6.9061">
        <ele>898</ele>
        <time>2010-10-29T13:31:34Z</time>
      </trkpt>
      <trkpt lat="47.99308" lon="6.90613">
        <ele>899</ele>
        <time>2010-10-29T13:39:47Z</time>
      </trkpt>
      <trkpt lat="47.99308" lon="6.90613">
        <ele>899</ele>
        <time>2010-10-29T13:39:48Z</time>
      </trkpt>
      <trkpt lat="47.99309" lon="6.90614">
        <ele>899</ele>
        <time>2010-10-29T13:39:49Z</time>
      </trkpt>
      <trkpt lat="47.99309" lon="6.90614">
        <ele>899</ele>
        <time>2010-10-29T13:40:02Z</time>
      </trkpt>
      <trkpt lat="47.99324" lon="6.90616">
        <ele>898</ele>
        <time>2010-10-29T13:40:08Z</time>
      </trkpt>
      <trkpt lat="47.99332" lon="6.90616">
        <ele>898</ele>
        <time>2010-10-29T13:40:12Z</time>
      </trkpt>
      <trkpt lat="47.9934" lon="6.90633">
        <ele>892</ele>
        <time>2010-10-29T13:40:19Z</time>
      </trkpt>
      <trkpt lat="47.99339" lon="6.90645">
        <ele>893</ele>
        <time>2010-10-29T13:40:23Z</time>
      </trkpt>
      <trkpt lat="47.99339" lon="6.90653">
        <ele>894</ele>
        <time>2010-10-29T13:40:26Z</time>
      </trkpt>
      <trkpt lat="47.99342" lon="6.90676">
        <ele>896</ele>
        <time>2010-10-29T13:40:34Z</time>
      </trkpt>
      <trkpt lat="47.99347" lon="6.90703">
        <ele>896</ele>
        <time>2010-10-29T13:40:42Z</time>
      </trkpt>
      <trkpt lat="47.99353" lon="6.9072">
        <ele>896</ele>
        <time>2010-10-29T13:40:48Z</time>
      </trkpt>
      <trkpt lat="47.99359" lon="6.90739">
        <ele>897</ele>
        <time>2010-10-29T13:40:55Z</time>
      </trkpt>
      <trkpt lat="47.99362" lon="6.90748">
        <ele>896</ele>
        <time>2010-10-29T13:41:00Z</time>
      </trkpt>
      <trkpt lat="47.99372" lon="6.90763">
        <ele>900</ele>
        <time>2010-10-29T13:41:07Z</time>
      </trkpt>
      <trkpt lat="47.99382" lon="6.90777">
        <ele>899</ele>
        <time>2010-10-29T13:41:12Z</time>
      </trkpt>
      <trkpt lat="47.99387" lon="6.90793">
        <ele>900</ele>
        <time>2010-10-29T13:41:17Z</time>
      </trkpt>
      <trkpt lat="47.99392" lon="6.90818">
        <ele>901</ele>
        <time>2010-10-29T13:41:23Z</time>
      </trkpt>
      <trkpt lat="47.99399" lon="6.90838">
        <ele>906</ele>
        <time>2010-10-29T13:41:28Z</time>
      </trkpt>
      <trkpt lat="47.99407" lon="6.90852">
        <ele>906</ele>
        <time>2010-10-29T13:41:32Z</time>
      </trkpt>
      <trkpt lat="47.99417" lon="6.90866">
        <ele>899</ele>
        <time>2010-10-29T13:41:36Z</time>
      </trkpt>
      <trkpt lat="47.99427" lon="6.90885">
        <ele>901</ele>
        <time>2010-10-29T13:41:41Z</time>
      </trkpt>
      <trkpt lat="47.99442" lon="6.90909">
        <ele>902</ele>
        <time>2010-10-29T13:41:47Z</time>
      </trkpt>
      <trkpt lat="47.99453" lon="6.90925">
        <ele>912</ele>
        <time>2010-10-29T13:41:52Z</time>
      </trkpt>
      <trkpt lat="47.99469" lon="6.90938">
        <ele>911</ele>
        <time>2010-10-29T13:41:57Z</time>
      </trkpt>
      <trkpt lat="47.99473" lon="6.90941">
        <ele>911</ele>
        <time>2010-10-29T13:41:58Z</time>
      </trkpt>
      <trkpt lat="47.99499" lon="6.90952">
        <ele>911</ele>
        <time>2010-10-29T13:42:05Z</time>
      </trkpt>
      <trkpt lat="47.99513" lon="6.90957">
        <ele>908</ele>
        <time>2010-10-29T13:42:10Z</time>
      </trkpt>
      <trkpt lat="47.99534" lon="6.9096">
        <ele>908</ele>
        <time>2010-10-29T13:42:17Z</time>
      </trkpt>
      <trkpt lat="47.99542" lon="6.90962">
        <ele>908</ele>
        <time>2010-10-29T13:42:20Z</time>
      </trkpt>
      <trkpt lat="47.99552" lon="6.90964">
        <ele>908</ele>
        <time>2010-10-29T13:42:24Z</time>
      </trkpt>
      <trkpt lat="47.99568" lon="6.90967">
        <ele>908</ele>
        <time>2010-10-29T13:42:31Z</time>
      </trkpt>
      <trkpt lat="47.99586" lon="6.90969">
        <ele>906</ele>
        <time>2010-10-29T13:42:39Z</time>
      </trkpt>
      <trkpt lat="47.99601" lon="6.90972">
        <ele>906</ele>
        <time>2010-10-29T13:42:46Z</time>
      </trkpt>
      <trkpt lat="47.99617" lon="6.90972">
        <ele>906</ele>
        <time>2010-10-29T13:42:54Z</time>
      </trkpt>
      <trkpt lat="47.99633" lon="6.90978">
        <ele>906</ele>
        <time>2010-10-29T13:43:01Z</time>
      </trkpt>
      <trkpt lat="47.99648" lon="6.90981">
        <ele>908</ele>
        <time>2010-10-29T13:43:08Z</time>
      </trkpt>
      <trkpt lat="47.99661" lon="6.90983">
        <ele>909</ele>
        <time>2010-10-29T13:43:14Z</time>
      </trkpt>
      <trkpt lat="47.99673" lon="6.90985">
        <ele>905</ele>
        <time>2010-10-29T13:43:19Z</time>
      </trkpt>
      <trkpt lat="47.99686" lon="6.90987">
        <ele>902</ele>
        <time>2010-10-29T13:43:25Z</time>
      </trkpt>
      <trkpt lat="47.99691" lon="6.90988">
        <ele>901</ele>
        <time>2010-10-29T13:43:27Z</time>
      </trkpt>
      <trkpt lat="47.99706" lon="6.90994">
        <ele>898</ele>
        <time>2010-10-29T13:43:34Z</time>
      </trkpt>
      <trkpt lat="47.99715" lon="6.91">
        <ele>898</ele>
        <time>2010-10-29T13:43:39Z</time>
      </trkpt>
      <trkpt lat="47.99725" lon="6.91012">
        <ele>910</ele>
        <time>2010-10-29T13:43:45Z</time>
      </trkpt>
      <trkpt lat="47.99731" lon="6.91026">
        <ele>911</ele>
        <time>2010-10-29T13:43:51Z</time>
      </trkpt>
      <trkpt lat="47.99737" lon="6.91049">
        <ele>914</ele>
        <time>2010-10-29T13:43:59Z</time>
      </trkpt>
      <trkpt lat="47.99744" lon="6.91068">
        <ele>914</ele>
        <time>2010-10-29T13:44:06Z</time>
      </trkpt>
      <trkpt lat="47.99755" lon="6.91091">
        <ele>907</ele>
        <time>2010-10-29T13:44:15Z</time>
      </trkpt>
      <trkpt lat="47.99759" lon="6.91105">
        <ele>901</ele>
        <time>2010-10-29T13:44:21Z</time>
      </trkpt>
      <trkpt lat="47.99755" lon="6.91117">
        <ele>900</ele>
        <time>2010-10-29T13:44:28Z</time>
      </trkpt>
      <trkpt lat="47.99747" lon="6.91124">
        <ele>920</ele>
        <time>2010-10-29T13:44:35Z</time>
      </trkpt>
      <trkpt lat="47.99739" lon="6.9113">
        <ele>921</ele>
        <time>2010-10-29T13:44:41Z</time>
      </trkpt>
      <trkpt lat="47.99725" lon="6.91143">
        <ele>922</ele>
        <time>2010-10-29T13:44:51Z</time>
      </trkpt>
      <trkpt lat="47.99714" lon="6.91158">
        <ele>924</ele>
        <time>2010-10-29T13:44:59Z</time>
      </trkpt>
      <trkpt lat="47.99707" lon="6.91173">
        <ele>921</ele>
        <time>2010-10-29T13:45:06Z</time>
      </trkpt>
      <trkpt lat="47.99699" lon="6.91195">
        <ele>921</ele>
        <time>2010-10-29T13:45:14Z</time>
      </trkpt>
      <trkpt lat="47.99692" lon="6.9122">
        <ele>920</ele>
        <time>2010-10-29T13:45:23Z</time>
      </trkpt>
      <trkpt lat="47.99686" lon="6.91237">
        <ele>922</ele>
        <time>2010-10-29T13:45:29Z</time>
      </trkpt>
      <trkpt lat="47.99681" lon="6.91263">
        <ele>914</ele>
        <time>2010-10-29T13:45:37Z</time>
      </trkpt>
      <trkpt lat="47.99676" lon="6.91283">
        <ele>909</ele>
        <time>2010-10-29T13:45:44Z</time>
      </trkpt>
      <trkpt lat="47.99667" lon="6.91295">
        <ele>907</ele>
        <time>2010-10-29T13:45:50Z</time>
      </trkpt>
      <trkpt lat="47.99654" lon="6.91298">
        <ele>916</ele>
        <time>2010-10-29T13:45:56Z</time>
      </trkpt>
      <trkpt lat="47.99642" lon="6.91297">
        <ele>916</ele>
        <time>2010-10-29T13:46:02Z</time>
      </trkpt>
      <trkpt lat="47.99623" lon="6.91292">
        <ele>917</ele>
        <time>2010-10-29T13:46:09Z</time>
      </trkpt>
      <trkpt lat="47.99603" lon="6.91283">
        <ele>919</ele>
        <time>2010-10-29T13:46:16Z</time>
      </trkpt>
      <trkpt lat="47.99574" lon="6.91265">
        <ele>920</ele>
        <time>2010-10-29T13:46:24Z</time>
      </trkpt>
      <trkpt lat="47.99539" lon="6.91244">
        <ele>932</ele>
        <time>2010-10-29T13:46:32Z</time>
      </trkpt>
      <trkpt lat="47.99534" lon="6.91241">
        <ele>931</ele>
        <time>2010-10-29T13:46:33Z</time>
      </trkpt>
      <trkpt lat="47.99524" lon="6.91235">
        <ele>930</ele>
        <time>2010-10-29T13:46:35Z</time>
      </trkpt>
      <trkpt lat="47.99484" lon="6.91218">
        <ele>922</ele>
        <time>2010-10-29T13:46:42Z</time>
      </trkpt>
      <trkpt lat="47.99473" lon="6.91213">
        <ele>922</ele>
        <time>2010-10-29T13:46:44Z</time>
      </trkpt>
      <trkpt lat="47.99447" lon="6.912">
        <ele>922</ele>
        <time>2010-10-29T13:46:49Z</time>
      </trkpt>
      <trkpt lat="47.99426" lon="6.9119">
        <ele>923</ele>
        <time>2010-10-29T13:46:53Z</time>
      </trkpt>
      <trkpt lat="47.99407" lon="6.91192">
        <ele>922</ele>
        <time>2010-10-29T13:46:57Z</time>
      </trkpt>
      <trkpt lat="47.99377" lon="6.91215">
        <ele>920</ele>
        <time>2010-10-29T13:47:03Z</time>
      </trkpt>
      <trkpt lat="47.99365" lon="6.91224">
        <ele>920</ele>
        <time>2010-10-29T13:47:05Z</time>
      </trkpt>
      <trkpt lat="47.99353" lon="6.91235">
        <ele>919</ele>
        <time>2010-10-29T13:47:07Z</time>
      </trkpt>
      <trkpt lat="47.99334" lon="6.91261">
        <ele>912</ele>
        <time>2010-10-29T13:47:11Z</time>
      </trkpt>
      <trkpt lat="47.99319" lon="6.91303">
        <ele>921</ele>
        <time>2010-10-29T13:47:16Z</time>
      </trkpt>
      <trkpt lat="47.99315" lon="6.9132">
        <ele>918</ele>
        <time>2010-10-29T13:47:18Z</time>
      </trkpt>
      <trkpt lat="47.9931" lon="6.91337">
        <ele>908</ele>
        <time>2010-10-29T13:47:20Z</time>
      </trkpt>
      <trkpt lat="47.99296" lon="6.91353">
        <ele>910</ele>
        <time>2010-10-29T13:47:23Z</time>
      </trkpt>
      <trkpt lat="47.99275" lon="6.9138">
        <ele>911</ele>
        <time>2010-10-29T13:47:28Z</time>
      </trkpt>
      <trkpt lat="47.99267" lon="6.91392">
        <ele>911</ele>
        <time>2010-10-29T13:47:30Z</time>
      </trkpt>
      <trkpt lat="47.99261" lon="6.91406">
        <ele>912</ele>
        <time>2010-10-29T13:47:32Z</time>
      </trkpt>
      <trkpt lat="47.99255" lon="6.91422">
        <ele>909</ele>
        <time>2010-10-29T13:47:34Z</time>
      </trkpt>
      <trkpt lat="47.99252" lon="6.91438">
        <ele>903</ele>
        <time>2010-10-29T13:47:36Z</time>
      </trkpt>
      <trkpt lat="47.99248" lon="6.91479">
        <ele>922</ele>
        <time>2010-10-29T13:47:41Z</time>
      </trkpt>
      <trkpt lat="47.99249" lon="6.91524">
        <ele>914</ele>
        <time>2010-10-29T13:47:46Z</time>
      </trkpt>
      <trkpt lat="47.99249" lon="6.91551">
        <ele>911</ele>
        <time>2010-10-29T13:47:49Z</time>
      </trkpt>
      <trkpt lat="47.99249" lon="6.91568">
        <ele>906</ele>
        <time>2010-10-29T13:47:51Z</time>
      </trkpt>
      <trkpt lat="47.99242" lon="6.91598">
        <ele>897</ele>
        <time>2010-10-29T13:47:55Z</time>
      </trkpt>
      <trkpt lat="47.99234" lon="6.9161">
        <ele>897</ele>
        <time>2010-10-29T13:47:57Z</time>
      </trkpt>
      <trkpt lat="47.99215" lon="6.91638">
        <ele>896</ele>
        <time>2010-10-29T13:48:03Z</time>
      </trkpt>
      <trkpt lat="47.99191" lon="6.91658">
        <ele>898</ele>
        <time>2010-10-29T13:48:09Z</time>
      </trkpt>
      <trkpt lat="47.99186" lon="6.91661">
        <ele>898</ele>
        <time>2010-10-29T13:48:10Z</time>
      </trkpt>
      <trkpt lat="47.99162" lon="6.91667">
        <ele>896</ele>
        <time>2010-10-29T13:48:14Z</time>
      </trkpt>
      <trkpt lat="47.99149" lon="6.91666">
        <ele>905</ele>
        <time>2010-10-29T13:48:16Z</time>
      </trkpt>
      <trkpt lat="47.99113" lon="6.9167">
        <ele>892</ele>
        <time>2010-10-29T13:48:21Z</time>
      </trkpt>
      <trkpt lat="47.99098" lon="6.9167">
        <ele>893</ele>
        <time>2010-10-29T13:48:23Z</time>
      </trkpt>
      <trkpt lat="47.99058" lon="6.91671">
        <ele>896</ele>
        <time>2010-10-29T13:48:28Z</time>
      </trkpt>
      <trkpt lat="47.9905" lon="6.91671">
        <ele>896</ele>
        <time>2010-10-29T13:48:29Z</time>
      </trkpt>
      <trkpt lat="47.99018" lon="6.917">
        <ele>897</ele>
        <time>2010-10-29T13:48:34Z</time>
      </trkpt>
      <trkpt lat="47.9901" lon="6.91718">
        <ele>896</ele>
        <time>2010-10-29T13:48:36Z</time>
      </trkpt>
      <trkpt lat="47.99001" lon="6.91752">
        <ele>896</ele>
        <time>2010-10-29T13:48:39Z</time>
      </trkpt>
      <trkpt lat="47.99012" lon="6.91784">
        <ele>893</ele>
        <time>2010-10-29T13:48:43Z</time>
      </trkpt>
      <trkpt lat="47.99015" lon="6.9179">
        <ele>893</ele>
        <time>2010-10-29T13:48:44Z</time>
      </trkpt>
      <trkpt lat="47.99023" lon="6.91806">
        <ele>894</ele>
        <time>2010-10-29T13:48:47Z</time>
      </trkpt>
      <trkpt lat="47.99039" lon="6.91818">
        <ele>892</ele>
        <time>2010-10-29T13:48:51Z</time>
      </trkpt>
      <trkpt lat="47.99044" lon="6.91818">
        <ele>891</ele>
        <time>2010-10-29T13:48:52Z</time>
      </trkpt>
      <trkpt lat="47.9907" lon="6.91817">
        <ele>888</ele>
        <time>2010-10-29T13:48:57Z</time>
      </trkpt>
      <trkpt lat="47.99081" lon="6.91818">
        <ele>887</ele>
        <time>2010-10-29T13:48:59Z</time>
      </trkpt>
      <trkpt lat="47.99108" lon="6.91824">
        <ele>882</ele>
        <time>2010-10-29T13:49:05Z</time>
      </trkpt>
      <trkpt lat="47.99126" lon="6.91828">
        <ele>882</ele>
        <time>2010-10-29T13:49:10Z</time>
      </trkpt>
      <trkpt lat="47.99141" lon="6.91825">
        <ele>882</ele>
        <time>2010-10-29T13:49:15Z</time>
      </trkpt>
      <trkpt lat="47.99149" lon="6.91821">
        <ele>882</ele>
        <time>2010-10-29T13:49:19Z</time>
      </trkpt>
      <trkpt lat="47.99158" lon="6.91812">
        <ele>882</ele>
        <time>2010-10-29T13:49:25Z</time>
      </trkpt>
      <trkpt lat="47.99173" lon="6.91798">
        <ele>879</ele>
        <time>2010-10-29T13:49:31Z</time>
      </trkpt>
      <trkpt lat="47.99183" lon="6.91789">
        <ele>878</ele>
        <time>2010-10-29T13:49:35Z</time>
      </trkpt>
      <trkpt lat="47.99202" lon="6.91783">
        <ele>877</ele>
        <time>2010-10-29T13:49:40Z</time>
      </trkpt>
      <trkpt lat="47.99215" lon="6.91776">
        <ele>876</ele>
        <time>2010-10-29T13:49:44Z</time>
      </trkpt>
      <trkpt lat="47.99236" lon="6.91772">
        <ele>874</ele>
        <time>2010-10-29T13:49:48Z</time>
      </trkpt>
      <trkpt lat="47.99265" lon="6.91779">
        <ele>866</ele>
        <time>2010-10-29T13:49:53Z</time>
      </trkpt>
      <trkpt lat="47.99276" lon="6.91788">
        <ele>865</ele>
        <time>2010-10-29T13:49:55Z</time>
      </trkpt>
      <trkpt lat="47.99289" lon="6.91807">
        <ele>865</ele>
        <time>2010-10-29T13:49:58Z</time>
      </trkpt>
      <trkpt lat="47.99297" lon="6.91821">
        <ele>865</ele>
        <time>2010-10-29T13:50:00Z</time>
      </trkpt>
      <trkpt lat="47.9931" lon="6.91836">
        <ele>870</ele>
        <time>2010-10-29T13:50:03Z</time>
      </trkpt>
      <trkpt lat="47.99315" lon="6.91841">
        <ele>869</ele>
        <time>2010-10-29T13:50:04Z</time>
      </trkpt>
      <trkpt lat="47.99338" lon="6.91863">
        <ele>858</ele>
        <time>2010-10-29T13:50:09Z</time>
      </trkpt>
      <trkpt lat="47.99355" lon="6.91883">
        <ele>858</ele>
        <time>2010-10-29T13:50:13Z</time>
      </trkpt>
      <trkpt lat="47.99382" lon="6.91908">
        <ele>855</ele>
        <time>2010-10-29T13:50:18Z</time>
      </trkpt>
      <trkpt lat="47.99399" lon="6.91921">
        <ele>862</ele>
        <time>2010-10-29T13:50:21Z</time>
      </trkpt>
      <trkpt lat="47.99409" lon="6.91928">
        <ele>859</ele>
        <time>2010-10-29T13:50:23Z</time>
      </trkpt>
      <trkpt lat="47.99434" lon="6.91938">
        <ele>850</ele>
        <time>2010-10-29T13:50:29Z</time>
      </trkpt>
      <trkpt lat="47.99452" lon="6.91948">
        <ele>849</ele>
        <time>2010-10-29T13:50:33Z</time>
      </trkpt>
      <trkpt lat="47.99471" lon="6.91956">
        <ele>848</ele>
        <time>2010-10-29T13:50:37Z</time>
      </trkpt>
      <trkpt lat="47.9949" lon="6.91965">
        <ele>847</ele>
        <time>2010-10-29T13:50:42Z</time>
      </trkpt>
      <trkpt lat="47.99509" lon="6.91974">
        <ele>834</ele>
        <time>2010-10-29T13:50:47Z</time>
      </trkpt>
      <trkpt lat="47.99512" lon="6.91976">
        <ele>834</ele>
        <time>2010-10-29T13:50:48Z</time>
      </trkpt>
      <trkpt lat="47.99527" lon="6.91989">
        <ele>833</ele>
        <time>2010-10-29T13:50:53Z</time>
      </trkpt>
      <trkpt lat="47.9953" lon="6.91993">
        <ele>832</ele>
        <time>2010-10-29T13:50:54Z</time>
      </trkpt>
      <trkpt lat="47.99554" lon="6.92016">
        <ele>842</ele>
        <time>2010-10-29T13:51:00Z</time>
      </trkpt>
      <trkpt lat="47.99564" lon="6.92028">
        <ele>842</ele>
        <time>2010-10-29T13:51:03Z</time>
      </trkpt>
      <trkpt lat="47.99575" lon="6.92037">
        <ele>842</ele>
        <time>2010-10-29T13:51:05Z</time>
      </trkpt>
      <trkpt lat="47.9959" lon="6.92053">
        <ele>824</ele>
        <time>2010-10-29T13:51:08Z</time>
      </trkpt>
      <trkpt lat="47.99618" lon="6.92086">
        <ele>833</ele>
        <time>2010-10-29T13:51:12Z</time>
      </trkpt>
      <trkpt lat="47.99651" lon="6.92127">
        <ele>830</ele>
        <time>2010-10-29T13:51:17Z</time>
      </trkpt>
      <trkpt lat="47.99677" lon="6.92163">
        <ele>816</ele>
        <time>2010-10-29T13:51:22Z</time>
      </trkpt>
      <trkpt lat="47.9969" lon="6.92188">
        <ele>813</ele>
        <time>2010-10-29T13:51:25Z</time>
      </trkpt>
      <trkpt lat="47.99699" lon="6.92205">
        <ele>811</ele>
        <time>2010-10-29T13:51:27Z</time>
      </trkpt>
      <trkpt lat="47.99716" lon="6.92248">
        <ele>807</ele>
        <time>2010-10-29T13:51:32Z</time>
      </trkpt>
      <trkpt lat="47.99722" lon="6.92269">
        <ele>810</ele>
        <time>2010-10-29T13:51:34Z</time>
      </trkpt>
      <trkpt lat="47.9973" lon="6.92305">
        <ele>810</ele>
        <time>2010-10-29T13:51:37Z</time>
      </trkpt>
      <trkpt lat="47.99735" lon="6.9233">
        <ele>805</ele>
        <time>2010-10-29T13:51:39Z</time>
      </trkpt>
      <trkpt lat="47.99735" lon="6.92363">
        <ele>812</ele>
        <time>2010-10-29T13:51:42Z</time>
      </trkpt>
      <trkpt lat="47.99733" lon="6.92385">
        <ele>814</ele>
        <time>2010-10-29T13:51:44Z</time>
      </trkpt>
      <trkpt lat="47.99745" lon="6.9242">
        <ele>807</ele>
        <time>2010-10-29T13:51:48Z</time>
      </trkpt>
      <trkpt lat="47.99757" lon="6.92426">
        <ele>798</ele>
        <time>2010-10-29T13:51:50Z</time>
      </trkpt>
      <trkpt lat="47.99779" lon="6.92438">
        <ele>793</ele>
        <time>2010-10-29T13:51:54Z</time>
      </trkpt>
      <trkpt lat="47.99802" lon="6.92472">
        <ele>790</ele>
        <time>2010-10-29T13:51:59Z</time>
      </trkpt>
      <trkpt lat="47.99812" lon="6.92487">
        <ele>788</ele>
        <time>2010-10-29T13:52:01Z</time>
      </trkpt>
      <trkpt lat="47.99817" lon="6.92495">
        <ele>786</ele>
        <time>2010-10-29T13:52:02Z</time>
      </trkpt>
      <trkpt lat="47.99841" lon="6.92523">
        <ele>776</ele>
        <time>2010-10-29T13:52:08Z</time>
      </trkpt>
      <trkpt lat="47.99846" lon="6.92528">
        <ele>775</ele>
        <time>2010-10-29T13:52:09Z</time>
      </trkpt>
      <trkpt lat="47.9986" lon="6.92545">
        <ele>775</ele>
        <time>2010-10-29T13:52:12Z</time>
      </trkpt>
      <trkpt lat="47.99879" lon="6.92575">
        <ele>773</ele>
        <time>2010-10-29T13:52:16Z</time>
      </trkpt>
      <trkpt lat="47.99899" lon="6.92611">
        <ele>779</ele>
        <time>2010-10-29T13:52:21Z</time>
      </trkpt>
      <trkpt lat="47.99911" lon="6.9263">
        <ele>781</ele>
        <time>2010-10-29T13:52:24Z</time>
      </trkpt>
      <trkpt lat="47.99918" lon="6.92641">
        <ele>764</ele>
        <time>2010-10-29T13:52:26Z</time>
      </trkpt>
      <trkpt lat="47.99926" lon="6.92649">
        <ele>765</ele>
        <time>2010-10-29T13:52:28Z</time>
      </trkpt>
      <trkpt lat="47.99945" lon="6.92674">
        <ele>769</ele>
        <time>2010-10-29T13:52:33Z</time>
      </trkpt>
      <trkpt lat="47.99955" lon="6.92689">
        <ele>767</ele>
        <time>2010-10-29T13:52:36Z</time>
      </trkpt>
      <trkpt lat="47.99971" lon="6.92712">
        <ele>765</ele>
        <time>2010-10-29T13:52:40Z</time>
      </trkpt>
      <trkpt lat="47.99984" lon="6.92734">
        <ele>763</ele>
        <time>2010-10-29T13:52:44Z</time>
      </trkpt>
      <trkpt lat="47.99987" lon="6.92741">
        <ele>762</ele>
        <time>2010-10-29T13:52:45Z</time>
      </trkpt>
      <trkpt lat="48.0001" lon="6.92777">
        <ele>754</ele>
        <time>2010-10-29T13:52:51Z</time>
      </trkpt>
      <trkpt lat="48.00027" lon="6.92818">
        <ele>755</ele>
        <time>2010-10-29T13:52:56Z</time>
      </trkpt>
      <trkpt lat="48.00031" lon="6.92827">
        <ele>755</ele>
        <time>2010-10-29T13:52:57Z</time>
      </trkpt>
      <trkpt lat="48.00035" lon="6.92836">
        <ele>759</ele>
        <time>2010-10-29T13:52:58Z</time>
      </trkpt>
      <trkpt lat="48.00059" lon="6.92876">
        <ele>755</ele>
        <time>2010-10-29T13:53:03Z</time>
      </trkpt>
      <trkpt lat="48.00063" lon="6.92883">
        <ele>755</ele>
        <time>2010-10-29T13:53:04Z</time>
      </trkpt>
      <trkpt lat="48.00071" lon="6.92896">
        <ele>753</ele>
        <time>2010-10-29T13:53:06Z</time>
      </trkpt>
      <trkpt lat="48.00101" lon="6.92946">
        <ele>744</ele>
        <time>2010-10-29T13:53:12Z</time>
      </trkpt>
      <trkpt lat="48.00114" lon="6.92965">
        <ele>744</ele>
        <time>2010-10-29T13:53:15Z</time>
      </trkpt>
      <trkpt lat="48.00124" lon="6.92982">
        <ele>744</ele>
        <time>2010-10-29T13:53:20Z</time>
      </trkpt>
      <trkpt lat="48.00138" lon="6.93002">
        <ele>746</ele>
        <time>2010-10-29T13:53:27Z</time>
      </trkpt>
      <trkpt lat="48.0015" lon="6.93019">
        <ele>745</ele>
        <time>2010-10-29T13:53:32Z</time>
      </trkpt>
      <trkpt lat="48.00161" lon="6.93029">
        <ele>745</ele>
        <time>2010-10-29T13:53:39Z</time>
      </trkpt>
      <trkpt lat="48.00174" lon="6.93037">
        <ele>739</ele>
        <time>2010-10-29T13:53:47Z</time>
      </trkpt>
      <trkpt lat="48.00177" lon="6.93039">
        <ele>739</ele>
        <time>2010-10-29T13:53:51Z</time>
      </trkpt>
      <trkpt lat="48.00177" lon="6.93041">
        <ele>739</ele>
        <time>2010-10-29T13:54:16Z</time>
      </trkpt>
      <trkpt lat="48.00187" lon="6.93043">
        <ele>739</ele>
        <time>2010-10-29T13:54:20Z</time>
      </trkpt>
      <trkpt lat="48.00216" lon="6.93044">
        <ele>737</ele>
        <time>2010-10-29T13:54:27Z</time>
      </trkpt>
      <trkpt lat="48.00232" lon="6.93051">
        <ele>737</ele>
        <time>2010-10-29T13:54:30Z</time>
      </trkpt>
      <trkpt lat="48.00243" lon="6.93061">
        <ele>737</ele>
        <time>2010-10-29T13:54:32Z</time>
      </trkpt>
      <trkpt lat="48.00265" lon="6.93079">
        <ele>734</ele>
        <time>2010-10-29T13:54:36Z</time>
      </trkpt>
      <trkpt lat="48.00278" lon="6.93099">
        <ele>736</ele>
        <time>2010-10-29T13:54:40Z</time>
      </trkpt>
      <trkpt lat="48.00276" lon="6.9311">
        <ele>737</ele>
        <time>2010-10-29T13:54:42Z</time>
      </trkpt>
      <trkpt lat="48.00272" lon="6.93135">
        <ele>738</ele>
        <time>2010-10-29T13:54:49Z</time>
      </trkpt>
      <trkpt lat="48.00272" lon="6.93156">
        <ele>740</ele>
        <time>2010-10-29T13:54:55Z</time>
      </trkpt>
      <trkpt lat="48.00272" lon="6.93185">
        <ele>742</ele>
        <time>2010-10-29T13:55:04Z</time>
      </trkpt>
      <trkpt lat="48.00274" lon="6.93213">
        <ele>742</ele>
        <time>2010-10-29T13:55:13Z</time>
      </trkpt>
      <trkpt lat="48.00274" lon="6.93242">
        <ele>744</ele>
        <time>2010-10-29T13:55:21Z</time>
      </trkpt>
      <trkpt lat="48.00275" lon="6.9327">
        <ele>745</ele>
        <time>2010-10-29T13:55:29Z</time>
      </trkpt>
      <trkpt lat="48.00277" lon="6.93299">
        <ele>745</ele>
        <time>2010-10-29T13:55:38Z</time>
      </trkpt>
      <trkpt lat="48.00278" lon="6.93325">
        <ele>746</ele>
        <time>2010-10-29T13:55:46Z</time>
      </trkpt>
      <trkpt lat="48.00279" lon="6.93348">
        <ele>747</ele>
        <time>2010-10-29T13:55:53Z</time>
      </trkpt>
      <trkpt lat="48.00283" lon="6.93376">
        <ele>746</ele>
        <time>2010-10-29T13:56:01Z</time>
      </trkpt>
      <trkpt lat="48.00291" lon="6.93397">
        <ele>746</ele>
        <time>2010-10-29T13:56:08Z</time>
      </trkpt>
      <trkpt lat="48.00297" lon="6.93411">
        <ele>745</ele>
        <time>2010-10-29T13:56:13Z</time>
      </trkpt>
      <trkpt lat="48.00311" lon="6.93428">
        <ele>746</ele>
        <time>2010-10-29T13:56:20Z</time>
      </trkpt>
      <trkpt lat="48.00319" lon="6.93435">
        <ele>745</ele>
        <time>2010-10-29T13:56:22Z</time>
      </trkpt>
      <trkpt lat="48.00328" lon="6.93444">
        <ele>746</ele>
        <time>2010-10-29T13:56:24Z</time>
      </trkpt>
      <trkpt lat="48.00334" lon="6.93449">
        <ele>738</ele>
        <time>2010-10-29T13:56:25Z</time>
      </trkpt>
      <trkpt lat="48.00354" lon="6.93474">
        <ele>739</ele>
        <time>2010-10-29T13:56:30Z</time>
      </trkpt>
      <trkpt lat="48.00367" lon="6.93505">
        <ele>743</ele>
        <time>2010-10-29T13:56:36Z</time>
      </trkpt>
      <trkpt lat="48.00372" lon="6.93533">
        <ele>744</ele>
        <time>2010-10-29T13:56:43Z</time>
      </trkpt>
      <trkpt lat="48.00374" lon="6.93546">
        <ele>744</ele>
        <time>2010-10-29T13:56:47Z</time>
      </trkpt>
      <trkpt lat="48.00375" lon="6.93579">
        <ele>745</ele>
        <time>2010-10-29T13:56:56Z</time>
      </trkpt>
      <trkpt lat="48.00381" lon="6.93609">
        <ele>750</ele>
        <time>2010-10-29T13:57:03Z</time>
      </trkpt>
      <trkpt lat="48.00388" lon="6.93635">
        <ele>751</ele>
        <time>2010-10-29T13:57:09Z</time>
      </trkpt>
      <trkpt lat="48.00403" lon="6.93672">
        <ele>752</ele>
        <time>2010-10-29T13:57:18Z</time>
      </trkpt>
      <trkpt lat="48.00413" lon="6.93699">
        <ele>757</ele>
        <time>2010-10-29T13:57:24Z</time>
      </trkpt>
      <trkpt lat="48.00426" lon="6.93724">
        <ele>745</ele>
        <time>2010-10-29T13:57:31Z</time>
      </trkpt>
      <trkpt lat="48.00448" lon="6.93743">
        <ele>745</ele>
        <time>2010-10-29T13:57:39Z</time>
      </trkpt>
      <trkpt lat="48.0046" lon="6.93752">
        <ele>752</ele>
        <time>2010-10-29T13:57:43Z</time>
      </trkpt>
      <trkpt lat="48.00467" lon="6.93758">
        <ele>751</ele>
        <time>2010-10-29T13:57:46Z</time>
      </trkpt>
      <trkpt lat="48.0047" lon="6.93758">
        <ele>751</ele>
        <time>2010-10-29T13:57:47Z</time>
      </trkpt>
      <trkpt lat="48.00485" lon="6.93765">
        <ele>749</ele>
        <time>2010-10-29T13:57:53Z</time>
      </trkpt>
      <trkpt lat="48.00499" lon="6.93776">
        <ele>750</ele>
        <time>2010-10-29T13:57:58Z</time>
      </trkpt>
      <trkpt lat="48.00503" lon="6.93779">
        <ele>744</ele>
        <time>2010-10-29T13:57:59Z</time>
      </trkpt>
      <trkpt lat="48.00518" lon="6.93797">
        <ele>745</ele>
        <time>2010-10-29T13:58:04Z</time>
      </trkpt>
      <trkpt lat="48.00534" lon="6.9382">
        <ele>746</ele>
        <time>2010-10-29T13:58:10Z</time>
      </trkpt>
      <trkpt lat="48.0055" lon="6.93834">
        <ele>751</ele>
        <time>2010-10-29T13:58:16Z</time>
      </trkpt>
      <trkpt lat="48.00567" lon="6.93855">
        <ele>750</ele>
        <time>2010-10-29T13:58:23Z</time>
      </trkpt>
      <trkpt lat="48.00583" lon="6.93871">
        <ele>751</ele>
        <time>2010-10-29T13:58:29Z</time>
      </trkpt>
      <trkpt lat="48.00599" lon="6.93888">
        <ele>745</ele>
        <time>2010-10-29T13:58:36Z</time>
      </trkpt>
      <trkpt lat="48.00621" lon="6.93908">
        <ele>744</ele>
        <time>2010-10-29T13:58:44Z</time>
      </trkpt>
      <trkpt lat="48.00639" lon="6.93913">
        <ele>744</ele>
        <time>2010-10-29T13:58:50Z</time>
      </trkpt>
      <trkpt lat="48.00648" lon="6.93904">
        <ele>743</ele>
        <time>2010-10-29T13:58:55Z</time>
      </trkpt>
      <trkpt lat="48.00661" lon="6.93875">
        <ele>742</ele>
        <time>2010-10-29T13:59:02Z</time>
      </trkpt>
      <trkpt lat="48.00677" lon="6.93836">
        <ele>741</ele>
        <time>2010-10-29T13:59:11Z</time>
      </trkpt>
      <trkpt lat="48.00696" lon="6.93797">
        <ele>740</ele>
        <time>2010-10-29T13:59:20Z</time>
      </trkpt>
      <trkpt lat="48.00714" lon="6.93771">
        <ele>740</ele>
        <time>2010-10-29T13:59:28Z</time>
      </trkpt>
      <trkpt lat="48.00736" lon="6.9375">
        <ele>740</ele>
        <time>2010-10-29T13:59:37Z</time>
      </trkpt>
      <trkpt lat="48.00748" lon="6.93746">
        <ele>740</ele>
        <time>2010-10-29T13:59:41Z</time>
      </trkpt>
      <trkpt lat="48.00762" lon="6.93757">
        <ele>741</ele>
        <time>2010-10-29T13:59:46Z</time>
      </trkpt>
      <trkpt lat="48.00785" lon="6.9378">
        <ele>742</ele>
        <time>2010-10-29T13:59:55Z</time>
      </trkpt>
      <trkpt lat="48.00806" lon="6.93793">
        <ele>742</ele>
        <time>2010-10-29T14:00:03Z</time>
      </trkpt>
      <trkpt lat="48.00822" lon="6.93807">
        <ele>742</ele>
        <time>2010-10-29T14:00:09Z</time>
      </trkpt>
      <trkpt lat="48.00844" lon="6.93826">
        <ele>744</ele>
        <time>2010-10-29T14:00:18Z</time>
      </trkpt>
      <trkpt lat="48.00856" lon="6.93837">
        <ele>743</ele>
        <time>2010-10-29T14:00:25Z</time>
      </trkpt>
      <trkpt lat="48.00865" lon="6.93848">
        <ele>744</ele>
        <time>2010-10-29T14:00:30Z</time>
      </trkpt>
      <trkpt lat="48.00874" lon="6.93864">
        <ele>744</ele>
        <time>2010-10-29T14:00:35Z</time>
      </trkpt>
      <trkpt lat="48.0089" lon="6.93906">
        <ele>744</ele>
        <time>2010-10-29T14:00:44Z</time>
      </trkpt>
      <trkpt lat="48.00904" lon="6.93945">
        <ele>745</ele>
        <time>2010-10-29T14:00:53Z</time>
      </trkpt>
      <trkpt lat="48.00925" lon="6.93971">
        <ele>746</ele>
        <time>2010-10-29T14:01:01Z</time>
      </trkpt>
      <trkpt lat="48.00949" lon="6.93993">
        <ele>746</ele>
        <time>2010-10-29T14:01:10Z</time>
      </trkpt>
      <trkpt lat="48.00972" lon="6.94015">
        <ele>746</ele>
        <time>2010-10-29T14:01:19Z</time>
      </trkpt>
      <trkpt lat="48.00977" lon="6.94019">
        <ele>747</ele>
        <time>2010-10-29T14:01:21Z</time>
      </trkpt>
      <trkpt lat="48.00995" lon="6.94034">
        <ele>747</ele>
        <time>2010-10-29T14:01:28Z</time>
      </trkpt>
      <trkpt lat="48.01013" lon="6.94055">
        <ele>749</ele>
        <time>2010-10-29T14:01:36Z</time>
      </trkpt>
      <trkpt lat="48.01031" lon="6.94076">
        <ele>749</ele>
        <time>2010-10-29T14:01:45Z</time>
      </trkpt>
      <trkpt lat="48.01045" lon="6.94092">
        <ele>752</ele>
        <time>2010-10-29T14:01:52Z</time>
      </trkpt>
      <trkpt lat="48.01057" lon="6.94106">
        <ele>752</ele>
        <time>2010-10-29T14:01:59Z</time>
      </trkpt>
      <trkpt lat="48.01057" lon="6.94107">
        <ele>752</ele>
        <time>2010-10-29T14:02:01Z</time>
      </trkpt>
      <trkpt lat="48.01057" lon="6.94107">
        <ele>752</ele>
        <time>2010-10-29T14:02:32Z</time>
      </trkpt>
      <trkpt lat="48.01059" lon="6.9411">
        <ele>752</ele>
        <time>2010-10-29T14:02:33Z</time>
      </trkpt>
      <trkpt lat="48.01058" lon="6.94128">
        <ele>753</ele>
        <time>2010-10-29T14:02:38Z</time>
      </trkpt>
      <trkpt lat="48.01062" lon="6.94155">
        <ele>754</ele>
        <time>2010-10-29T14:02:45Z</time>
      </trkpt>
      <trkpt lat="48.01072" lon="6.94185">
        <ele>757</ele>
        <time>2010-10-29T14:02:53Z</time>
      </trkpt>
      <trkpt lat="48.01074" lon="6.94193">
        <ele>758</ele>
        <time>2010-10-29T14:02:55Z</time>
      </trkpt>
      <trkpt lat="48.01082" lon="6.94226">
        <ele>759</ele>
        <time>2010-10-29T14:03:04Z</time>
      </trkpt>
      <trkpt lat="48.01089" lon="6.94253">
        <ele>762</ele>
        <time>2010-10-29T14:03:12Z</time>
      </trkpt>
      <trkpt lat="48.01098" lon="6.94276">
        <ele>763</ele>
        <time>2010-10-29T14:03:19Z</time>
      </trkpt>
      <trkpt lat="48.01108" lon="6.94293">
        <ele>765</ele>
        <time>2010-10-29T14:03:25Z</time>
      </trkpt>
      <trkpt lat="48.01126" lon="6.94314">
        <ele>765</ele>
        <time>2010-10-29T14:03:34Z</time>
      </trkpt>
      <trkpt lat="48.01148" lon="6.94321">
        <ele>765</ele>
        <time>2010-10-29T14:03:41Z</time>
      </trkpt>
      <trkpt lat="48.01171" lon="6.94325">
        <ele>764</ele>
        <time>2010-10-29T14:03:48Z</time>
      </trkpt>
      <trkpt lat="48.01193" lon="6.94336">
        <ele>769</ele>
        <time>2010-10-29T14:03:55Z</time>
      </trkpt>
      <trkpt lat="48.01214" lon="6.94365">
        <ele>770</ele>
        <time>2010-10-29T14:04:04Z</time>
      </trkpt>
      <trkpt lat="48.0123" lon="6.94392">
        <ele>772</ele>
        <time>2010-10-29T14:04:12Z</time>
      </trkpt>
      <trkpt lat="48.01239" lon="6.94412">
        <ele>773</ele>
        <time>2010-10-29T14:04:18Z</time>
      </trkpt>
      <trkpt lat="48.01247" lon="6.94426">
        <ele>777</ele>
        <time>2010-10-29T14:04:24Z</time>
      </trkpt>
      <trkpt lat="48.01255" lon="6.9444">
        <ele>774</ele>
        <time>2010-10-29T14:04:29Z</time>
      </trkpt>
      <trkpt lat="48.01267" lon="6.94454">
        <ele>775</ele>
        <time>2010-10-29T14:04:35Z</time>
      </trkpt>
      <trkpt lat="48.01286" lon="6.94474">
        <ele>776</ele>
        <time>2010-10-29T14:04:44Z</time>
      </trkpt>
      <trkpt lat="48.01302" lon="6.94484">
        <ele>775</ele>
        <time>2010-10-29T14:04:51Z</time>
      </trkpt>
      <trkpt lat="48.0132" lon="6.945">
        <ele>775</ele>
        <time>2010-10-29T14:04:57Z</time>
      </trkpt>
      <trkpt lat="48.01339" lon="6.94511">
        <ele>776</ele>
        <time>2010-10-29T14:05:03Z</time>
      </trkpt>
      <trkpt lat="48.01358" lon="6.94509">
        <ele>776</ele>
        <time>2010-10-29T14:05:08Z</time>
      </trkpt>
      <trkpt lat="48.01379" lon="6.94508">
        <ele>775</ele>
        <time>2010-10-29T14:05:12Z</time>
      </trkpt>
      <trkpt lat="48.01384" lon="6.94509">
        <ele>775</ele>
        <time>2010-10-29T14:05:13Z</time>
      </trkpt>
      <trkpt lat="48.014" lon="6.94508">
        <ele>772</ele>
        <time>2010-10-29T14:05:17Z</time>
      </trkpt>
      <trkpt lat="48.01408" lon="6.94499">
        <ele>767</ele>
        <time>2010-10-29T14:05:22Z</time>
      </trkpt>
      <trkpt lat="48.01412" lon="6.94495">
        <ele>767</ele>
        <time>2010-10-29T14:05:27Z</time>
      </trkpt>
      <trkpt lat="48.01418" lon="6.945">
        <ele>767</ele>
        <time>2010-10-29T14:05:31Z</time>
      </trkpt>
      <trkpt lat="48.01426" lon="6.94516">
        <ele>770</ele>
        <time>2010-10-29T14:05:38Z</time>
      </trkpt>
      <trkpt lat="48.0144" lon="6.94528">
        <ele>772</ele>
        <time>2010-10-29T14:05:44Z</time>
      </trkpt>
      <trkpt lat="48.01463" lon="6.94546">
        <ele>773</ele>
        <time>2010-10-29T14:05:52Z</time>
      </trkpt>
      <trkpt lat="48.01486" lon="6.94564">
        <ele>774</ele>
        <time>2010-10-29T14:05:59Z</time>
      </trkpt>
      <trkpt lat="48.01494" lon="6.94568">
        <ele>775</ele>
        <time>2010-10-29T14:06:01Z</time>
      </trkpt>
      <trkpt lat="48.01528" lon="6.94592">
        <ele>778</ele>
        <time>2010-10-29T14:06:10Z</time>
      </trkpt>
      <trkpt lat="48.01564" lon="6.94623">
        <ele>778</ele>
        <time>2010-10-29T14:06:19Z</time>
      </trkpt>
      <trkpt lat="48.01593" lon="6.94649">
        <ele>776</ele>
        <time>2010-10-29T14:06:27Z</time>
      </trkpt>
      <trkpt lat="48.01601" lon="6.94656">
        <ele>776</ele>
        <time>2010-10-29T14:06:29Z</time>
      </trkpt>
      <trkpt lat="48.01628" lon="6.94683">
        <ele>779</ele>
        <time>2010-10-29T14:06:36Z</time>
      </trkpt>
      <trkpt lat="48.01656" lon="6.9471">
        <ele>780</ele>
        <time>2010-10-29T14:06:43Z</time>
      </trkpt>
      <trkpt lat="48.01678" lon="6.94731">
        <ele>779</ele>
        <time>2010-10-29T14:06:50Z</time>
      </trkpt>
      <trkpt lat="48.01703" lon="6.94759">
        <ele>785</ele>
        <time>2010-10-29T14:06:58Z</time>
      </trkpt>
      <trkpt lat="48.01714" lon="6.94769">
        <ele>785</ele>
        <time>2010-10-29T14:07:01Z</time>
      </trkpt>
      <trkpt lat="48.01729" lon="6.94781">
        <ele>785</ele>
        <time>2010-10-29T14:07:05Z</time>
      </trkpt>
      <trkpt lat="48.0176" lon="6.94805">
        <ele>783</ele>
        <time>2010-10-29T14:07:13Z</time>
      </trkpt>
      <trkpt lat="48.01787" lon="6.94829">
        <ele>783</ele>
        <time>2010-10-29T14:07:21Z</time>
      </trkpt>
      <trkpt lat="48.01789" lon="6.9483">
        <ele>783</ele>
        <time>2010-10-29T14:07:22Z</time>
      </trkpt>
      <trkpt lat="48.01797" lon="6.94818">
        <ele>783</ele>
        <time>2010-10-29T14:07:27Z</time>
      </trkpt>
      <trkpt lat="48.01797" lon="6.94802">
        <ele>782</ele>
        <time>2010-10-29T14:07:31Z</time>
      </trkpt>
      <trkpt lat="48.018" lon="6.94775">
        <ele>781</ele>
        <time>2010-10-29T14:07:36Z</time>
      </trkpt>
      <trkpt lat="48.01807" lon="6.94756">
        <ele>781</ele>
        <time>2010-10-29T14:07:41Z</time>
      </trkpt>
      <trkpt lat="48.01821" lon="6.94746">
        <ele>779</ele>
        <time>2010-10-29T14:07:46Z</time>
      </trkpt>
      <trkpt lat="48.01828" lon="6.94745">
        <ele>779</ele>
        <time>2010-10-29T14:07:48Z</time>
      </trkpt>
      <trkpt lat="48.01832" lon="6.94734">
        <ele>779</ele>
        <time>2010-10-29T14:07:52Z</time>
      </trkpt>
      <trkpt lat="48.01834" lon="6.94726">
        <ele>783</ele>
        <time>2010-10-29T14:07:54Z</time>
      </trkpt>
      <trkpt lat="48.01845" lon="6.9472">
        <ele>784</ele>
        <time>2010-10-29T14:07:58Z</time>
      </trkpt>
      <trkpt lat="48.01866" lon="6.94727">
        <ele>786</ele>
        <time>2010-10-29T14:08:04Z</time>
      </trkpt>
      <trkpt lat="48.01873" lon="6.94731">
        <ele>786</ele>
        <time>2010-10-29T14:08:06Z</time>
      </trkpt>
      <trkpt lat="48.01904" lon="6.94764">
        <ele>785</ele>
        <time>2010-10-29T14:08:13Z</time>
      </trkpt>
      <trkpt lat="48.01937" lon="6.94811">
        <ele>789</ele>
        <time>2010-10-29T14:08:21Z</time>
      </trkpt>
      <trkpt lat="48.01968" lon="6.94871">
        <ele>788</ele>
        <time>2010-10-29T14:08:30Z</time>
      </trkpt>
      <trkpt lat="48.02002" lon="6.94936">
        <ele>792</ele>
        <time>2010-10-29T14:08:40Z</time>
      </trkpt>
      <trkpt lat="48.02036" lon="6.94981">
        <ele>794</ele>
        <time>2010-10-29T14:08:48Z</time>
      </trkpt>
      <trkpt lat="48.02079" lon="6.95032">
        <ele>795</ele>
        <time>2010-10-29T14:08:58Z</time>
      </trkpt>
      <trkpt lat="48.02093" lon="6.95047">
        <ele>796</ele>
        <time>2010-10-29T14:09:01Z</time>
      </trkpt>
      <trkpt lat="48.02106" lon="6.95062">
        <ele>796</ele>
        <time>2010-10-29T14:09:04Z</time>
      </trkpt>
      <trkpt lat="48.0212" lon="6.95083">
        <ele>796</ele>
        <time>2010-10-29T14:09:08Z</time>
      </trkpt>
      <trkpt lat="48.02124" lon="6.95093">
        <ele>797</ele>
        <time>2010-10-29T14:09:10Z</time>
      </trkpt>
      <trkpt lat="48.02134" lon="6.95115">
        <ele>797</ele>
        <time>2010-10-29T14:09:16Z</time>
      </trkpt>
      <trkpt lat="48.02138" lon="6.95122">
        <ele>798</ele>
        <time>2010-10-29T14:09:19Z</time>
      </trkpt>
      <trkpt lat="48.0215" lon="6.95127">
        <ele>798</ele>
        <time>2010-10-29T14:09:25Z</time>
      </trkpt>
      <trkpt lat="48.02168" lon="6.95128">
        <ele>803</ele>
        <time>2010-10-29T14:09:31Z</time>
      </trkpt>
    </trkseg>
  </trk>
</gpx>